     2.10           OBSERVATION DATA    G (GPS)             RINEX VERSION / TYPE
teqc 2005May6 SOPAC 20050707 00:32:21UTC                    PGM / RUN BY / DATE
Linux 2.4.20-8|Pentium IV|gcc|Linux|486/DX+                 COMMENT
BIT 2 OF LLI FLAGS DATA COLLECTED UNDER A/S CONDITION       COMMENT
HPGN CA 02 21                                               MARKER NAME
0221                                                        MARKER NUMBER
Dallas Carlon                                               OBSERVER / AGENCY
0220308760 TRIMBLE 5700 2.01                                REC # / TYPE / VERS
12606060 TRM41249.00 NONE                                   ANT # / TYPE
 -2646167.0000 -4084659.0000  4109901.0000                  APPROX POSITION XYZ
        1.8000        0.0000        0.0000                  ANTENNA: DELTA H/E/N
     1     1                                                WAVELENGTH FACT L1/2
     6    L1    L2    C1    P2    P1    D1                  # / TYPES OF OBSERV
    15.0000                                                 INTERVAL
Northern California Height Modernization 2004               COMMENT
                                                            COMMENT
SOPAC - Scripps Orbit and Permanent Array Center            COMMENT
IGPP - Institute of Geophysics and Planetary Physics        COMMENT
SIO - Scripps Institution of Oceanography                   COMMENT
UCSD - University of California, San Diego                  COMMENT
                                                            COMMENT
email: archive@gpsmail.ucsd.edu                             COMMENT
ftp://garner.ucsd.edu                                       COMMENT
http://sopac.ucsd.edu                                       COMMENT
                                                            COMMENT
                                                            COMMENT
Approximate Lat, Lon : 40.370, -122.936                     COMMENT
                                                            COMMENT
SNR is mapped to RINEX snr flag value [0-9]                 COMMENT
L1 & L2: 2-19 dBHz = 1, 20-27 dBHz = 2, 28-31 dBHz = 3      COMMENT
32-35 dBHz = 4, 36-38 dBHz = 5, 39-41 dBHz = 6              COMMENT
42-44 dBHz = 7, 45-48 dBHz = 8, >= 49 dBHz = 9              COMMENT
  2004     9    10    14    45    0.0000000     GPS         TIME OF FIRST OBS
                                                            END OF HEADER
 04  9 10 14 45  0.0000000  0  7G 1G11G14G15G19G22G25
    -85071.23058    -55844.01253  23001789.5164   23001788.7624

    -67845.99658    -45148.08254  22463426.0784   22463422.8404

     65592.64559     34972.48856  20813975.6024   20813972.7814

    130669.23057     75615.74653  22683318.4614   22683317.8594

     91822.82058     50785.33254  23081977.2734   23081973.8954

     86993.93059     47852.54354  22545748.5474   22545745.7774

    -89077.30158    -59958.85953  22744179.2814   22744178.2384

 04  9 10 14 45 15.0000000  0  7G 1G11G14G15G19G22G25
   -122610.82848    -85095.65243  22994645.6724   22994644.9494
      2502.6404
    -97633.62148    -68359.23444  22457757.5784   22457754.4804
      1985.8424
     93851.00049     56991.96546  20819352.7274   20819350.4654
     -1883.8904
    188207.95348    120451.05143  22694267.7504   22694267.2974
     -3835.9154
    131479.85548     81686.88744  23089523.9384   23089521.0204
     -2643.8024
    124466.74649     77052.10244  22552879.9454   22552876.7664
     -2498.1884
   -128147.18448    -90402.92243  22736743.5474   22736743.4774
      2604.6594
 04  9 10 14 45 30.0000000  0  7G 1G11G14G15G19G22G25
   -160164.84848   -114358.54743  22987499.4064   22987498.6024
      2503.6014
   -127409.78948    -91561.47744  22452091.1644   22452088.1804
      1985.0784
    122124.05149     79022.88746  20824733.0704   20824730.3554
     -1884.8704
    245735.34448    165277.53143  22705214.4614   22705214.4614
     -3835.1594
    171145.04348    112594.80543  23097071.9774   23097069.0634
     -2644.3464
    161898.23849    106219.44544  22560002.9064   22559999.8054
     -2495.4334
   -167233.16848   -120859.52044  22729306.7344   22729305.8244
      2605.7324
 04  9 10 14 45 45.0000000  0  7G 1G11G14G15G19G22G25
   -197697.36348   -143604.66043  22980357.1644   22980356.0124
      2502.1684
   -157138.42649   -114726.65244  22446434.5084   22446431.0394
      1981.9094
    150447.44149    101093.04746  20830122.9694   20830120.4574
     -1888.2264
    303286.98047    210122.91043  22716166.2424   22716166.2464
     -3836.7764
    210853.86348    143536.70743  23104628.4844   23104625.4804
     -2647.2554
    199324.25449    135382.55144  22567124.6954   22567121.4264
     -2495.0684
   -206299.15648   -151300.53944  22721872.3754   22721871.7074
      2604.3994
 04  9 10 14 46  0.0000000  0  7G 1G11G14G15G19G22G25
   -235192.81247   -172821.91442  22973222.1414   22973221.4534
      2499.6974
   -186803.73846   -137842.46942  22440788.9224   22440785.5984
      1977.6884
    178836.36748    123214.28543  20835525.0554   20835522.7384
     -1892.5954
    360878.29347    254999.18442  22727126.2974   22727125.7154
     -3839.4214
    250621.32847    174524.28142  23112196.4144   23112193.1174
     -2651.1644
    236760.22747    164553.43842  22574249.0944   22574245.0124
     -2495.7324
   -245329.32448   -181713.64843  22714444.7114   22714444.7424
      2602.0114
 04  9 10 14 46 15.0000000  0  7G 1G11G14G15G19G22G25
   -272640.52748   -202001.93443  22966095.8204   22966095.2424
      2496.5144
   -216395.06249   -160900.68744  22435158.3284   22435155.5004
      1972.7554
    207300.80949    145394.33646  20840941.5634   20840939.3244
     -1897.6294
    418519.39147    299914.28543  22738094.7344   22738094.4304
     -3842.7404
    290457.60948    205565.56343  23119776.2894   23119773.6884
     -2655.7524
    274216.57849    193740.13344  22581376.1334   22581373.4414
     -2497.0904
   -284312.84448   -212090.39143  22707026.2664   22707026.3594
      2598.9014
 04  9 10 14 46 30.0000000  0  7G 1G11G14G15G19G22G25
   -310039.73448   -231144.16843  22958979.0474   22958978.8364
      2493.2804
   -245911.57048   -183900.56244  22429541.0554   22429538.6914
      1967.7674
    235841.51249    167633.81646  20846372.9304   20846370.0274
     -1902.7144
    476210.61347    344868.42643  22749072.6564   22749072.7274
     -3846.0824
    330363.07448    236660.68443  23127370.3284   23127367.3244
     -2660.3644
    311694.01249    222943.29744  22588508.3674   22588504.9844
     -2498.4964
   -323248.71148   -242430.01243  22699617.7034   22699617.3164
      2595.7244
 04  9 10 14 46 45.0000000  0  7G 1G11G14G15G19G22G25
   -347388.81248   -260247.37943  22951871.9774   22951871.4614
      2489.9394
   -275351.44948   -206840.75444  22423939.2114   22423935.9804
      1962.6594
    264459.57849    189933.59046  20851818.8914   20851816.4734
     -1907.8714
    533953.28947    389862.64143  22760061.0474   22760061.1334
     -3849.5124
    370338.79748    267810.57044  23134977.9064   23134974.6524
     -2665.0484
    349193.93849    252163.98844  22595644.4694   22595641.3014
     -2499.9954
   -362135.17248   -272731.13744  22692217.1804   22692217.1954
      2592.4314
 04  9 10 14 47  0.0000000  0  7G 1G11G14G15G19G22G25
   -384686.32447   -289310.41442  22944774.3444   22944773.9804
      2486.5014
   -304712.84046   -229719.76642  22418351.7344   22418348.4534
      1957.4264
    293156.22747    212294.61343  20857279.0474   20857277.2114
     -1913.1104
    591748.55147    434897.85242  22771059.4924   22771059.4304
     -3853.0174
    410385.79347    299015.96542  23142598.4384   23142595.3954
     -2669.8004
    386717.73447    281403.30142  22602785.5314   22602781.3984
     -2501.5864
   -400970.42647   -302992.35543  22684828.1724   22684826.9614
      2589.0174
 04  9 10 14 47 15.0000000  0  7G 1G11G14G15G19G22G25
   -421931.82047   -318332.85543  22937687.0474   22937686.2504
      2483.0334
   -333995.61348   -252537.55944  22412779.0634   22412776.6764
      1952.1854
    321931.25849    234716.68446  20862755.0314   20862752.6524
     -1918.3354
    649596.29747    479973.96543  22782067.5004   22782067.0984
     -3856.5164
    450504.00448    330276.91444  23150232.5314   23150229.2934
     -2674.5474
    424265.50849    310661.25444  22609930.3754   22609926.6024
     -2503.1854
   -439753.96148   -333213.28144  22677447.2034   22677446.7734
      2585.5694
 04  9 10 14 47 30.0000000  0  7G 1G11G14G15G19G22G25
   -459122.73048   -347312.80543  22930609.4774   22930608.7304
      2479.3944
   -363196.70349   -275291.66444  22407222.6724   22407219.8914
      1946.7394
    350787.13349    257201.76246  20868246.3754   20868243.6214
     -1923.7254
    707498.79348    525092.73043  22793086.0554   22793085.9774
     -3860.1664
    490695.51248    361594.93844  23157880.8914   23157876.8914
     -2679.4344
    461839.87949    339939.93844  22617079.9534   22617076.8594
     -2504.9584
   -478482.87948   -363391.64844  22670077.2734   22670076.6844
      2581.9284
 04  9 10 14 47 45.0010000  0  7G 1G11G14G15G19G22G25
   -496264.64848   -376254.56643  22923541.5674   22923540.9704
      2476.1284
   -392321.16049   -297986.06244  22401680.3564   22401677.6344
      1941.6304
    379722.10249    279748.46546  20873752.4504   20873749.8604
     -1928.9984
    765456.32447    570254.38743  22804115.1614   22804114.7744
     -3863.8354
    530959.32448    392969.31643  23165542.0364   23165539.1774
     -2684.2544
    499440.05949    369238.73844  22624235.5214   22624232.2984
     -2506.6794
   -517162.71548   -393531.77044  22662716.7314   22662715.9114
      2578.6564
 04  9 10 14 48  0.0010000  0  7G 1G11G14G15G19G22G25
   -533349.32848   -405151.71943  22916484.6224   22916483.8764
      2472.3124
   -421361.68449   -320615.05144  22396154.0994   22396150.9384
      1936.0354
    408735.21949    302356.07846  20879273.7714   20879270.8644
     -1934.2084
    823464.03948    615455.15243  22815153.1854   22815153.3064
     -3867.1814
    571292.82448    424397.99243  23173217.9504   23173214.8884
     -2688.9004
    537064.05948    398556.10244  22631394.7634   22631392.0954
     -2508.2674
   -555784.86748   -423626.94544  22655367.1464   22655366.4854
      2574.8104
 04  9 10 14 48 15.0010000  0  7G 1G11G14G15G19G22G25
   -570381.30948   -434007.81243  22909437.4664   22909437.0324
      2468.7994
   -450321.96548   -343181.53144  22390643.1304   22390639.9584
      1930.6854
    437826.00449    325024.20346  20884809.3104   20884806.4624
     -1939.3864
    881523.35248    660696.11343  22826201.8024   22826202.1064
     -3870.6214
    611696.23848    455881.13743  23180906.4354   23180903.5014
     -2693.5614
    574712.23849    427892.29344  22638558.9814   22638556.5284
     -2509.8794
   -594353.69148   -453680.55143  22648027.6304   22648027.1734
      2571.2554
 04  9 10 14 48 30.0010000  0  7G 1G11G14G15G19G22G25
   -607357.41847   -462820.37543  22902401.3024   22902400.8334
      2465.0744
   -479198.80148   -365682.97744  22385147.8414   22385145.0834
      1925.1224
    466997.37149    347755.11346  20890360.4034   20890357.8964
     -1944.7584
    939637.15247    705979.53943  22837260.0214   22837260.6424
     -3874.2534
    652172.26248    487420.88344  23188608.8804   23188605.5054
     -2698.4024
    612387.66449    457249.72744  22645728.3414   22645725.2514
     -2511.6954
   -632865.71548   -483689.91444  22640699.3254   22640698.4234
      2567.4684
 04  9 10 14 48 45.0010000  0  7G 1G11G14G15G19G22G25
   -644279.89147   -491591.14143  22895375.6774   22895374.7394
      2461.4984
   -507994.34048   -388121.07844  22379668.4664   22379665.4074
      1919.7034
    496246.71549    370546.78946  20895926.5524   20895924.0404
     -1949.9564
    997802.78548    751303.34443  22848329.6384   22848329.4894
     -3877.7094
    692718.14148    519015.04344  23196324.8174   23196320.7434
     -2703.0594
    650087.95348    486626.53144  22652902.6534   22652899.2634
     -2513.3534
   -671323.15248   -513656.72744  22633381.0914   22633380.4704
      2563.8294
 04  9 10 14 49  0.0010000  0  7G 1G11G14G15G19G22G25
   -681148.92248   -520320.25843  22888359.8804   22888358.8334
      2457.9354
   -536708.62149   -410495.85244  22374204.4034   22374201.8684
      1914.2854
    525573.39149    393398.71946  20901507.3334   20901504.5954
     -1955.1124
   1056019.65648    796667.07843  22859407.8564   22859407.9974
     -3881.1254
    733333.16448    550663.07443  23204053.1774   23204050.3764
     -2707.6684
    687812.73448    516022.41444  22660081.5754   22660078.2354
     -2514.9854
   -709726.02748   -543581.03544  22626073.1224   22626072.7244
      2560.1924
 04  9 10 14 49 15.0010000  0  7G 1G11G14G15G19G22G25
   -717963.16847   -549006.68743  22881354.4114   22881353.3374
      2454.2834
   -565340.14149   -432806.13744  22368755.8964   22368753.9194
      1908.7684
    554978.30149    416311.62546  20907102.5994   20907100.1344
     -1960.3274
   1114288.73048    842071.49643  22870495.7554   22870495.6854
     -3884.6054
    774018.18048    582365.65643  23211795.4584   23211792.4894
     -2712.3344
    725563.13748    545438.26644  22667264.9664   22667261.6344
     -2516.6934
   -748072.78148   -573461.60544  22618775.1854   22618775.7124
      2556.4504
 04  9 10 14 49 30.0010000  0  7G 1G11G14G15G19G22G25
   -754721.73847   -577649.72743  22874358.6384   22874358.5874
      2450.5714
   -593887.76249   -455051.05944  22363323.4424   22363320.8884
      1903.1754
    584462.07849    439285.97746  20912713.2714   20912710.5674
     -1965.5854
   1172610.55948    887517.02043  22881594.1854   22881593.9814
     -3888.1224
    814773.69148    614123.17643  23219550.7474   23219547.6534
     -2717.0344
    763340.09848    574874.80144  22674453.8564   22674450.4274
     -2518.4644
   -786362.20348   -603297.50844  22611489.8334   22611489.1964
      2552.6284
 04  9 10 14 49 45.0010000  0  7G 1G11G14G15G19G22G25
   -791423.98047   -606248.88743  22867374.9744   22867374.1384
      2446.8164
   -622350.88348   -477230.12944  22357907.3024   22357904.6494
      1897.5414
    614024.92249    462321.93846  20918338.6144   20918336.3254
     -1970.8564
   1230985.30948    933003.79343  22892702.3104   22892702.4974
     -3891.6504
    855599.66048    645935.59043  23227319.3494   23227316.5054
     -2721.7314
    801143.97348    604332.34044  22681647.7784   22681644.3334
     -2520.2584
   -824593.52748   -633088.14144  22604214.9974   22604213.8994
      2548.7554
 04  9 10 14 50  0.0010000  0  7G 1G11G14G15G19G22G25
   -828070.23048   -634804.40643  22860401.5834   22860400.5714
      2443.0834
   -650729.68049   -499343.48844  22352507.2084   22352503.9074
      1891.9204
    643666.15249    485418.97746  20923979.4354   20923977.3134
     -1976.0824
   1289412.25848    978531.22343  22903820.1774   22903820.7944
     -3895.1304
    896495.36347    677802.35543  23235101.7314   23235099.1924
     -2726.3804
    838974.41848    633810.57844  22688846.8104   22688843.1574
     -2522.0304
   -862766.78948   -662833.53544  22596950.4744   22596949.5874
      2544.8844
 04  9 10 14 50 15.0010000  0  7G 1G11G14G15G19G22G25
   -864660.42247   -663316.25843  22853438.5834   22853437.8174
      2439.3464
   -679023.91848   -521390.95344  22347122.7784   22347120.0404
      1886.2834
    673385.39549    508576.81346  20929634.6614   20929632.7354
     -1981.2834
   1347891.05948   1024099.07043  22914948.7784   22914948.6614
     -3898.5874
    937460.31648    709723.07443  23242896.9194   23242894.1734
     -2730.9974
    876831.16048    663309.30144  22696050.8644   22696047.8604
     -2523.7834
   -900881.78148   -692533.51244  22589697.6464   22589696.4854
      2540.9994
 04  9 10 14 50 30.0010000  0  7G 1G11G14G15G19G22G25
   -901191.50447   -691782.04343  22846486.5214   22846486.2744
      2435.4054
   -707230.34848   -543370.00044  22341755.1774   22341752.2864
      1880.4294
    703185.37549    531797.55146  20935305.5524   20935303.4034
     -1986.6654
   1406424.37148   1069709.37943  22926087.0674   22926087.1734
     -3902.2214
    978497.10548    741699.77743  23250706.2474   23250703.2004
     -2735.7864
    914717.18848    692830.84044  22703260.4274   22703257.2824
     -2525.7354
   -938935.17648   -722185.50044  22582456.1774   22582455.1464
      2536.8934
 04  9 10 14 50 45.0010000  0  7G 1G11G14G15G19G22G25
   -937664.50448   -720202.57043  22839546.5054   22839545.9584
      2431.5334
   -735349.78148   -565281.24644  22336404.1924   22336401.6884
      1874.6294
    733064.85249    555080.23846  20940991.5674   20940988.8724
     -1991.9654
   1465010.90248   1115361.16043  22937235.6924   22937236.0444
     -3905.7694
   1019604.32848    773731.35243  23258528.5994   23258525.9464
     -2740.4824
    952631.39148    722374.34844  22710474.7244   22710472.0914
     -2527.6144
   -976927.79348   -751790.12144  22575226.8254   22575225.5284
      2532.8414
 04  9 10 14 51  0.0010000  0  7G 1G11G14G15G19G22G25
   -974080.45748   -748578.64843  22832616.5364   22832616.2944
      2427.7304
   -763383.05949   -587125.37144  22331069.8564   22331067.1104
      1868.8854
    763022.36749    578423.73446  20946692.2314   20946689.8414
     -1997.1684
   1523649.27748   1161053.34443  22948394.6924   22948394.9314
     -3909.2254
   1060780.45348    805816.62143  23266364.1464   23266361.1534
     -2745.0754
    990572.66848    751938.94944  22717694.7004   22717691.8374
     -2529.4184
  -1014860.51248   -781348.08244  22568007.8174   22568006.8454
      2528.8484
 04  9 10 14 51 15.0010000  0  7G 1G11G14G15G19G22G25
  -1010438.97348   -776909.95743  22825697.8644   22825696.6224
      2423.9014
   -791329.84449   -608902.09844  22325752.0834   22325748.8134
      1863.1194
    793057.89549    601828.02746  20952407.7864   20952405.5134
     -2002.3684
   1582339.35948   1206785.82043  22959562.9894   22959562.8494
     -3912.6724
   1102025.27748    837955.41043  23274213.2714   23274209.8454
     -2749.6554
   1028541.09848    781524.69944  22724920.1144   22724916.7714
     -2531.2294
  -1052732.64548   -810858.82044  22560801.5914   22560800.2314
      2524.8094
 04  9 10 14 51 30.0010000  0  7G 1G11G14G15G19G22G25
  -1046740.10548   -805196.57043  22818789.8644   22818788.5364
      2420.0764
   -819190.00449   -630611.32844  22320450.4504   22320447.4424
      1857.3444
    823170.93449    625292.71546  20958138.1534   20958135.6144
     -2007.5364
   1641080.62948   1252558.18043  22970741.1224   22970740.6924
     -3916.0854
   1143338.25448    870147.31643  23282074.7714   23282071.7944
     -2754.1984
   1066536.44148    811131.43444  22732150.3104   22732147.0404
     -2533.0234
  -1090544.29748   -840322.43444  22553605.7004   22553604.7904
      2520.7774
 04  9 10 14 51 45.0010000  0  7G 1G11G14G15G19G22G25
  -1082980.53147   -833435.85943  22811893.4974   22811892.4154
      2416.0284
   -846959.96549   -652250.28144  22315165.5914   22315162.8064
      1851.3314
    853364.47349    648820.12946  20963883.8884   20963881.5134
     -2012.9034
   1699876.11748   1298372.79343  22981929.1304   22981929.4154
     -3919.6994
   1184722.16847    902394.50043  23289949.7864   23289946.7124
     -2758.9284
   1104562.05148    840761.74244  22739386.4744   22739383.1654
     -2535.0414
  -1128291.73848   -869736.01644  22546422.6774   22546421.7434
      2516.4964
 04  9 10 14 52  0.0010000  0  7G 1G11G14G15G19G22G25
  -1119161.84448   -861629.09843  22805008.3334   22805007.6464
      2412.0884
   -874641.35249   -673820.19944  22309898.0364   22309895.4114
      1845.4264
    883636.52349    672408.71146  20969644.2474   20969641.7944
     -2018.1374
   1758723.80148   1344228.08242  22993128.1774   22993128.4704
     -3923.1794
   1226174.98048    934695.36743  23297837.7164   23297834.7824
     -2763.5214
   1142616.13348    870414.25444  22746628.0604   22746625.0094
     -2536.9394
  -1165976.38348   -899100.66844  22539251.4194   22539250.5054
      2512.3104
 04  9 10 14 52 15.0010000  0  7G 1G11G14G15G19G22G25
  -1155282.69148   -889775.20743  22798134.9894   22798134.1964
      2408.0574
   -902232.53149   -695319.83244  22304647.6854   22304644.6884
      1839.4124
    913988.14149    696059.29746  20975420.0444   20975417.8644
     -2023.4414
   1817624.62948   1390124.79343  23004336.6464   23004336.1654
     -3926.7224
   1267697.56348    967050.60943  23305739.6534   23305736.7714
     -2768.1724
   1180699.96948    900089.93444  22753875.2944   22753871.6184
     -2538.9224
  -1203596.68048   -928415.17244  22532092.4354   22532091.3964
      2508.0204
 04  9 10 14 52 30.0010000  0  7G 1G11G14G15G19G22G25
  -1191343.23848   -917874.34443  22791272.8254   22791272.5284
      2404.0364
   -929733.60249   -716749.25044  22299414.3254   22299411.4584
      1833.4054
    944418.69149    719771.40246  20981210.8414   20981208.1854
     -2028.7034
   1876578.03148   1436062.45742  23015555.1924   23015555.0404
     -3930.2274
   1309289.28148    999459.71143  23313654.3024   23313651.4934
     -2772.7814
   1218813.11748    929788.47344  22761127.6534   22761124.8414
     -2540.8774
  -1241152.61748   -957679.53544  22524946.0604   22524944.9854
      2503.7294
 04  9 10 14 52 45.0010000  0  7G 1G11G14G15G19G22G25
  -1227344.09048   -945926.96143  22784421.7714   22784421.9974
      2400.0574
   -957144.98048   -738108.78944  22294198.1774   22294195.3294
      1827.4254
    974927.31349    743544.32846  20987016.5834   20987014.1104
     -2033.9084
   1935583.07048   1482040.35543  23026783.5054   23026783.4424
     -3933.6694
   1350948.96148   1031921.77043  23321581.9114   23321578.4744
     -2777.3124
   1256954.92648    959509.33244  22768385.9744   22768382.8994
     -2542.7874
  -1278644.48848   -986893.95344  22517811.4354   22517810.3684
      2499.4584
 04  9 10 14 53  0.0010000  0  7G 1G11G14G15G19G22G25
  -1263284.09048   -973932.16043  22777582.7944   22777582.5054
      2396.0004
   -984465.32449   -759397.37544  22288999.0834   22288996.6264
      1821.3564
   1005514.70349    767378.64146  20992837.0674   20992834.7944
     -2039.1594
   1994640.49248   1528059.08242  23038022.0914   23038021.6884
     -3937.1614
   1392677.27748   1064437.30544  23329522.5054   23329519.5994
     -2781.8884
   1295126.39548    989253.28544  22775649.5444   22775646.8104
     -2544.7654
  -1316070.99248  -1016057.46544  22510689.4034   22510688.5604
      2495.1004
 04  9 10 14 53 15.0010000  0  7G 1G11G14G15G19G22G25
  -1299163.21548  -1001889.93443  22770755.1144   22770754.7744
      2391.9424
  -1011694.61349   -780615.02044  22283817.8024   22283814.9384
      1815.2864
   1036180.47749    791274.03146  20998672.6224   20998669.9624
     -2044.3854
   2053749.93848   1574118.33242  23049270.0284   23049270.0094
     -3940.6304
   1434473.70748   1097005.92643  23337476.0524   23337473.0244
     -2786.4294
   1333327.41448   1019020.27344  22782919.1144   22782916.3374
     -2546.7354
  -1353431.85248  -1045169.80944  22503580.0054   22503578.9464
      2490.7244
 04  9 10 14 53 30.0010000  0  7G 1G11G14G15G19G22G25
  -1334981.66448  -1029800.40643  22763939.2634   22763938.4234
      2387.8974
  -1038832.80148   -801761.68044  22278653.4354   22278651.1964
      1809.2134
   1066924.25049    815230.20346  21004522.7944   21004520.5914
     -2049.5854
   2112910.88348   1620217.71942  23060528.0914   23060528.0054
     -3944.0634
   1476337.71548   1129627.20343  23345442.8414   23345439.5994
     -2790.9344
   1371557.59848   1048809.98444  22790193.9894   22790191.0874
     -2548.6794
  -1390727.06648  -1074231.01244  22496482.5524   22496481.8454
      2486.3484
 04  9 10 14 53 45.0010000  0  7G 1G11G14G15G19G22G25
  -1370737.62148  -1057662.19543  22757135.4974   22757134.6344
      2383.7304
  -1065877.99249   -822835.85544  22273506.9974   22273504.4894
      1803.0134
   1097747.38749    839248.20746  21010388.6464   21010386.0674
     -2054.8764
   2172124.77748   1666358.36342  23071796.1614   23071796.2554
     -3947.5934
   1518270.57448   1162302.13743  23353422.1064   23353418.9784
     -2795.5244
   1409818.70348   1078623.78544  22797474.4894   22797471.9854
     -2550.7404
  -1427954.48848  -1103239.37944  22489398.6304   22489397.7434
      2481.8284
 04  9 10 14 54  0.0010000  0  7G 1G11G14G15G19G22G25
  -1406431.73448  -1085475.80543  22750342.7474   22750342.1614
      2379.6084
  -1092830.59449   -843837.89844  22268378.4354   22268375.6494
      1796.8404
   1128648.91049    863327.29746  21016268.9814   21016266.3494
     -2060.1024
   2231390.59848   1712539.47343  23083074.5674   23083073.9784
     -3951.0554
   1560271.21148   1195029.88743  23361414.7314   23361411.4784
     -2800.0424
   1448110.01648   1108461.12944  22804761.8964   22804758.9974
     -2552.7544
  -1465114.71948  -1132195.39144  22482326.9354   22482326.2824
      2477.3494
 04  9 10 14 54 15.0010000  0  7G 1G11G14G15G19G22G25
  -1442062.45748  -1113240.01243  22743562.2164   22743562.3414
      2375.3824
  -1119688.85949   -864766.43044  22263267.3104   22263264.4744
      1790.5514
   1159630.03549    887468.42246  21022164.4034   21022161.6734
     -2065.4084
   2290709.43448   1758761.89142  23094361.4814   23094361.6774
     -3954.5894
   1602340.62948   1227811.21543  23369420.7554   23369417.4814
     -2804.6284
   1486432.87948   1138323.06344  22812054.1614   22812051.3994
     -2554.8584
  -1502205.98048  -1161097.65644  22475268.8414   22475268.1854
      2472.7514
 04  9 10 14 54 30.0010000  0  7G 1G11G14G15G19G22G25
  -1477631.48048  -1140956.13343  22736794.1534   22736793.8134
      2371.2684
  -1146454.48849   -885622.78544  22258173.8104   22258171.1304
      1784.3754
   1190688.62549    911669.89146  21028074.6464   21028072.6464
     -2070.5734
   2350079.22748   1805024.02742  23105659.6854   23105659.2204
     -3957.9864
   1644476.58248   1260644.40643  23377438.6064   23377435.1614
     -2809.0644
   1524785.39548   1168208.10544  22819352.7554   22819349.3564
     -2556.8344
  -1539229.82448  -1189947.39844  22468223.4584   22468222.4934
      2468.2564
 04  9 10 14 54 45.0010000  0  7G 1G11G14G15G19G22G25
  -1513135.66848  -1168621.74243  22730037.8964   22730037.6224
      2366.9464
  -1173124.18749   -906404.39144  22253098.6144   22253096.3604
      1777.9804
   1221827.31649    935933.78546  21034000.2714   21033997.7634
     -2075.9134
   2409502.69947   1851327.98442  23116967.1854   23116967.3884
     -3961.5654
   1686681.76648   1293531.54743  23385469.9894   23385466.3604
     -2813.6794
   1563170.53148   1198118.56344  22826656.9354   22826653.9704
     -2559.0094
  -1576182.85248  -1218741.95344  22461191.6854   22461190.6224
      2463.5354
 04  9 10 14 55  0.0010000  0  7G 1G11G14G15G19G22G25
  -1548574.90248  -1196236.73043  22723293.7714   22723293.9074
      2362.6164
  -1199697.58649   -927110.94544  22248041.9814   22248039.6064
      1771.5604
   1253045.99649    960260.01246  21039940.8024   21039938.4114
     -2081.2454
   2468979.59047   1897673.57842  23128285.7084   23128285.5674
     -3965.1264
   1728955.86748   1326472.37543  23393514.4744   23393511.0954
     -2818.2734
   1601588.40248   1228054.53144  22833967.8644   22833964.9624
     -2561.1914
  -1613064.80148  -1247481.11344  22454173.5994   22454172.6534
      2458.7974
 04  9 10 14 55 15.0010000  0  7G 1G11G14G15G19G22G25
  -1583950.83648  -1223802.39844  22716562.3724   22716562.4154
      2358.3964
  -1226176.56249   -947743.92244  22243003.3964   22243000.7084
      1765.2654
   1284342.63749    984646.98446  21045896.1614   21045893.9194
     -2086.4434
   2528507.81348   1944059.14842  23139613.7474   23139613.7244
     -3968.5484
   1771296.61748   1359465.14543  23401571.4664   23401568.0444
     -2822.7174
   1640037.19548   1258014.57844  22841284.2244   22841281.7394
     -2563.2534
  -1649876.93748  -1276165.87944  22447167.8104   22447167.6384
      2454.1424
 04  9 10 14 55 30.0010000  0  7G 1G11G14G15G19G22G25
  -1619263.39848  -1251318.68444  22709842.3884   22709842.0914
      2354.1714
  -1252560.53149   -968302.87544  22237982.6304   22237979.5524
      1758.9314
   1315716.92249   1009094.46146  21051866.8804   21051864.1574
     -2091.6194
   2588087.13348   1990484.52742  23150951.0994   23150951.0634
     -3971.9554
   1813703.61348   1392509.52343  23409641.6144   23409638.2124
     -2827.1334
   1678516.74648   1287998.61344  22848606.7314   22848603.7594
     -2565.3034
  -1686619.08248  -1304796.09844  22440175.8494   22440176.0214
      2449.4764
 04  9 10 14 55 45.0010000  0  7G 1G11G14G15G19G22G25
  -1654512.20348  -1278785.28944  22703134.8964   22703134.4894
      2349.9204
  -1278848.85549   -988787.29344  22232980.0914   22232977.1224
      1752.5554
   1347168.93449   1033602.49646  21057851.8104   21057849.3294
     -2096.8014
   2647717.55548   2036949.74642  23162298.2944   23162298.8534
     -3975.3614
   1856176.87548   1425605.53543  23417724.5054   23417720.7744
     -2831.5514
   1717027.43848   1318006.89844  22855935.3884   22855932.5994
     -2567.3794
  -1723290.59848  -1333371.29344  22433198.0134   22433197.5444
      2444.7684
 04  9 10 14 56  0.0010000  0  7G 1G11G14G15G19G22G25
  -1689697.37948  -1306202.30944  22696439.1384   22696438.5014
      2345.6784
  -1305041.62549  -1009197.26644  22227995.7084   22227992.8564
      1746.1854
   1378698.19549   1058170.74246  21063851.7004   21063849.5994
     -2101.9514
   2707398.59448   2083454.40642  23173655.5134   23173656.1224
     -3978.7364
   1898715.70348   1458752.65243  23425818.8564   23425815.4934
     -2835.9224
   1755569.02748   1348039.24644  22863269.2164   22863266.8924
     -2569.4394
  -1759891.43048  -1361891.39844  22426232.7864   22426232.3174
      2440.0554
 04  9 10 14 56 15.0010000  0  7G 1G11G14G15G19G22G25
  -1724817.53148  -1333568.66044  22689755.7244   22689755.6264
      2341.3434
  -1331137.41449  -1029531.65644  22223030.0754   22223026.8844
      1739.7194
   1410305.74649   1082799.97346  21069866.5604   21069864.0174
     -2107.1704
   2767131.25448   2129999.28143  23185022.0364   23185022.8604
     -3982.1774
   1941320.93848   1491951.50843  23433925.9814   23433922.8804
     -2840.3494
   1794142.77348   1378096.66444  22870609.7394   22870606.9544
     -2571.5834
  -1796420.06248  -1390355.25444  22419281.4584   22419280.9584
      2435.2424
 04  9 10 14 56 30.0010000  0  7G 1G11G14G15G19G22G25
  -1759872.66048  -1360884.35544  22683084.8494   22683085.3294
      2337.0094
  -1357136.01649  -1049790.32444  22218082.5054   22218079.5244
      1733.2404
   1441991.21149   1107489.93046  21075895.9194   21075893.7514
     -2112.3644
   2826915.20348   2176584.13342  23196398.3414   23196399.0524
     -3985.5974
   1983992.11748   1525201.77343  23442046.2314   23442043.4974
     -2844.7454
   1832748.48448   1408178.99244  22877956.1304   22877953.2554
     -2573.7144
  -1832876.09048  -1418762.53544  22412344.9194   22412343.5794
      2430.4024
 04  9 10 14 56 45.0010000  0  7G 1G11G14G15G19G22G25
  -1794864.50448  -1388150.73444  22676426.7084   22676426.2984
      2332.7904
  -1383039.09049  -1069974.55944  22213153.4424   22213150.7354
      1726.8724
   1473752.45749   1132238.93446  21081939.9894   21081937.9114
     -2117.4164
   2886748.18048   2223207.18442  23207784.4504   23207785.2594
     -3988.8654
   2026727.01248   1558501.66043  23450178.3964   23450176.4314
     -2848.9934
   1871384.24649   1438284.74644  22885308.7944   22885305.6344
     -2575.7174
  -1869261.25449  -1447114.58244  22405420.7634   22405420.0794
      2425.6784
 04  9 10 14 57  0.0010000  0  7G 1G11G14G15G19G22G25
  -1829789.39848  -1415364.94544  22669780.9034   22669780.2044
      2328.3264
  -1408842.73449  -1090081.30544  22208243.0674   22208240.6184
      1720.2434
   1505592.78149   1157049.55146  21087998.9504   21087996.8994
     -2122.6884
   2946633.53548   2269871.05542  23219180.6614   23219181.1034
     -3992.3574
   2069528.85548   1591853.71543  23458323.1464   23458320.8804
     -2853.4564
   1910053.62949   1468416.69144  22892666.8334   22892664.1144
     -2577.9594
  -1905571.63348  -1475408.35944  22398510.8494   22398510.2594
      2420.6924
 04  9 10 14 57 15.0010000  0  7G 1G11G14G15G19G22G25
  -1864647.98848  -1442527.48444  22663147.5604   22663146.6774
      2323.9064
  -1434547.46149  -1110110.97344  22203351.5524   22203348.8844
      1713.6484
   1537511.12949   1181920.98046  21094072.8024   21094070.4854
     -2127.8904
   3006570.20748   2316574.89142  23230585.7944   23230586.4074
     -3995.7784
   2112396.52748   1625257.09043  23466480.6384   23466478.5914
     -2857.8454
   1948756.00448   1498574.35244  22900031.8494   22900029.3064
     -2580.1584
  -1941807.49248  -1503644.07444  22391615.7634   22391615.1464
      2415.7244
 04  9 10 14 57 30.0010000  0  7G 1G11G14G15G19G22G25
  -1899440.36748  -1469638.43443  22656525.8564   22656525.4424
      2319.4924
  -1460153.24648  -1130063.54744  22198479.0914   22198476.2204
      1707.0524
   1569507.10549   1206852.88746  21100161.6064   21100159.4464
     -2133.0654
   3066557.69148   2363318.35943  23242000.8644   23242001.9504
     -3999.1664
   2155329.33248   1658711.18043  23474650.7634   23474647.6614
     -2862.1874
   1987491.06348   1528757.48444  22907402.9114   22907399.5634
     -2582.3374
  -1977968.81648  -1531821.71944  22384734.3494   22384733.6384
      2410.7554
 04  9 10 14 57 45.0010000  0  7G 1G11G14G15G19G22G25
  -1934166.38348  -1496697.66044  22649918.6694   22649918.2944
      2315.0684
  -1485659.82449  -1149938.80944  22193625.0214   22193622.7004
      1700.4394
   1601580.44549   1231845.08246  21106265.0754   21106262.4934
     -2138.2234
   3126595.73048   2410101.18442  23253426.1534   23253426.6144
     -4002.5364
   2198326.97348   1692215.80143  23482832.6224   23482829.4034
     -2866.5094
   2026258.76648   1558966.06644  22914780.0054   22914776.8334
     -2584.5144
  -2014055.27748  -1559941.01244  22377867.3564   22377866.6424
      2405.7644
 04  9 10 14 58  0.0010000  0  7G 1G11G14G15G19G22G25
  -1968826.50448  -1523705.54743  22643322.5524   22643322.0754
      2310.6754
  -1511067.48449  -1169736.98445  22188790.2474   22188787.8294
      1693.8444
   1633730.51649   1256897.07046  21112382.9114   21112380.5564
     -2143.3384
   3186683.47747   2456922.75842  23264860.4744   23264860.9234
     -4005.8504
   2241388.51648   1725770.22743  23491027.2394   23491023.6964
     -2870.7704
   2065058.62548   1589199.69544  22922163.2714   22922160.8844
     -2586.6574
  -2050067.13748  -1588002.18444  22371014.2864   22371013.5484
      2400.7914
 04  9 10 14 58 15.0010000  0  7G 1G11G14G15G19G22G25
  -2003420.54748  -1550661.95344  22636739.8644   22636739.5174
      2306.2704
  -1536375.88749  -1189457.82844  22183974.3964   22183971.7904
      1687.2274
   1665957.02049   1282008.61746  21118515.5994   21118513.2354
     -2148.4344
   3246820.84047   2503783.01242  23276304.0674   23276304.7084
     -4009.1584
   2284513.72348   1759374.24243  23499233.6534   23499230.8064
     -2875.0144
   2103890.64848   1619458.35944  22929553.0834   22929550.1654
     -2588.8024
  -2086003.94948  -1616004.87144  22364175.8724   22364175.1144
      2395.7884
 04  9 10 14 58 30.0010000  0  7G 1G11G14G15G19G22G25
  -2037946.95748  -1577565.64544  22630169.5364   22630169.2004
      2301.7614
  -1561583.33248  -1209099.98844  22179177.3494   22179175.4974
      1680.4964
   1698261.23049   1307180.71546  21124662.5914   21124660.3024
     -2153.6144
   3307009.02347   2550682.84042  23287758.0834   23287758.5444
     -4012.5464
   2327703.64548   1793028.67643  23507452.5134   23507449.2594
     -2879.3284
   2142756.28548   1649743.23044  22936948.9354   22936946.0914
     -2591.0424
  -2121863.91448  -1643947.68744  22357351.6064   22357350.9354
      2390.6644
 04  9 10 14 58 45.0010000  0  7G 1G11G14G15G19G22G25
  -2072405.62548  -1604416.55544  22623612.1304   22623611.6854
      2297.2454
  -1586689.54749  -1228663.28544  22174399.9114   22174397.7634
      1673.7484
   1730642.78149   1332413.07446  21130824.7634   21130822.5994
     -2158.7704
   3367247.68848   2597622.00043  23299221.5134   23299221.4464
     -4015.9114
   2370957.85548   1826733.24643  23515683.4114   23515680.9194
     -2883.6144
   2181655.53548   1680054.29344  22944351.3564   22944348.8214
     -2593.2834
  -2157646.79348  -1671830.43744  22350542.7004   22350541.5874
      2385.5254
 04  9 10 14 59  0.0010000  0  7G 1G11G14G15G19G22G25
  -2106797.02048  -1631215.04344  22617067.7314   22617067.3214
      2292.7604
  -1611694.85249  -1248147.93444  22169641.8254   22169639.6224
      1667.0204
   1763100.87149   1357705.06646  21137001.5214   21136999.1814
     -2163.8734
   3427536.07448   2644599.92643  23310693.3024   23310694.2714
     -4019.2264
   2414275.47348   1860487.19543  23523926.7784   23523924.0404
     -2887.8414
   2220587.86348   1710391.14144  22951759.7164   22951757.4624
     -2595.4894
  -2193352.84048  -1699653.30944  22343747.7244   22343747.1574
      2380.4034
 04  9 10 14 59 15.0010000  0  7G 1G11G14G15G19G22G25
  -2141121.04748  -1657961.03943  22610536.3494   22610535.3024
      2288.2684
  -1636599.05149  -1267553.81645  22164902.6534   22164900.1304
      1660.2804
   1795635.31649   1383056.56646  21143192.3494   21143190.0794
     -2168.9634
   3487873.79748   2691616.27343  23322175.0754   23322176.1964
     -4022.5154
   2457656.10948   1894290.27043  23532181.4504   23532179.0954
     -2892.0424
   2259553.19148   1740753.67244  22959174.5674   22959172.4384
     -2597.6894
  -2228981.68048  -1727416.02344  22336968.1774   22336967.1734
      2375.2564
 04  9 10 14 59 30.0010000  0  7G 1G11G14G15G19G22G25
  -2175376.56248  -1684653.64144  22604017.3254   22604016.8964
      2283.7014
  -1661400.83649  -1286879.89144  22160183.4504   22160180.6964
      1653.4524
   1828246.82849   1408468.11746  21149398.2944   21149395.9354
     -2174.1014
   3548261.59447   2738671.63743  23333667.4974   23333668.0054
     -4025.8534
   2501100.39548   1928142.94143  23540448.4274   23540445.9424
     -2896.2864
   2298552.39148   1771142.62144  22966596.6304   22966593.3064
     -2599.9474
  -2264532.01248  -1755117.56244  22330203.0134   22330202.1734
      2370.0224
 04  9 10 14 59 45.0010000  0  7G 1G11G14G15G19G22G25
  -2209564.31248  -1711293.44944  22597511.7474   22597511.2634
      2279.1834
  -1686100.74249  -1306126.58644  22155483.0444   22155480.1034
      1646.6604
   1860934.32049   1433938.87946  21155618.2474   21155616.2474
     -2179.1664
   3608698.33247   2785765.15642  23345167.5054   23345168.6264
     -4029.1164
   2544607.03948   1962044.20343  23548727.6304   23548725.1144
     -2900.4434
   2337584.80548   1801557.45344  22974023.7474   22974021.3064
     -2602.1614
  -2300004.35948  -1782758.33244  22323452.9274   22323451.9814
      2364.8234
 04  9 10 15  0  0.0010000  0  7G 1G11G14G15G19G22G25
  -2243684.65648  -1737880.73044  22591019.0364   22591018.3964
      2274.6904
  -1710698.95749  -1325294.04344  22150801.6224   22150799.4274
      1639.8814
   1893697.10249   1459468.29746  21161853.1614   21161850.8644
     -2184.1854
   3669183.37947   2832896.30142  23356677.4974   23356678.8024
     -4032.3364
   2588175.18448   1995993.37543  23557019.2784   23557015.9154
     -2904.5434
   2376649.83648   1831997.69144  22981457.9194   22981454.7744
     -2604.3354
  -2335398.69548  -1810338.32044  22316718.0054   22316716.3414
      2359.6224
 04  9 10 15  0 15.0010000  0  7G 1G11G14G15G19G22G25
  -2277736.25048  -1764414.43744  22584539.0054   22584538.1854
      2270.1064
  -1735194.11749  -1344381.18745  22146140.3884   22146138.0794
      1633.0114
   1926536.17649   1485057.16446  21168102.3494   21168099.6854
     -2189.2724
   3729717.60947   2880065.79742  23368196.4894   23368197.8844
     -4035.6154
   2631805.74648   2029991.19543  23565321.7314   23565318.2714
     -2908.7044
   2415748.77048   1862464.35544  22988897.7944   22988894.8604
     -2606.5964
  -2370713.65648  -1837856.45344  22309997.1924   22309996.1104
      2354.3314
 04  9 10 15  0 30.0010000  0  7G 1G11G14G15G19G22G25
  -2311719.77748  -1790895.11344  22578072.6774   22578071.8844
      2265.5684
  -1759586.70749  -1363388.41044  22141498.8334   22141496.1814
      1626.1734
   1959450.56649   1510704.73046  21174365.7244   21174363.4194
     -2194.2934
   3790299.99247   2927272.79342  23379725.2314   23379726.6534
     -4038.8264
   2675497.49648   2064036.68443  23573636.0134   23573632.8214
     -2912.7834
   2454880.74248   1892956.75844  22996343.9894   22996341.8334
     -2608.7984
  -2405949.60948  -1865313.01644  22303292.0524   22303290.9744
      2349.0644
 04  9 10 15  0 45.0010000  0  7G 1G11G14G15G19G22G25
  -2345635.85948  -1817323.22744  22571618.6144   22571617.8454
      2261.0724
  -1783877.10549  -1382316.00044  22136876.6064   22136874.2744
      1619.3604
   1992439.21949   1536410.15246  21180643.1924   21180641.2514
     -2199.2434
   3850929.61747   2974516.59842  23391262.6854   23391263.9384
     -4041.9754
   2719249.37948   2098129.04343  23581961.7084   23581958.6734
     -2916.7924
   2494045.12148   1923474.40244  23003797.4424   23003794.3254
     -2610.9594
  -2441107.06648  -1892708.42244  22296602.1774   22296600.3884
      2343.8304
 04  9 10 15  1  0.0010000  0  7G 1G11G14G15G19G22G25
  -2379482.77048  -1843697.43744  22565177.4354   22565176.6184
      2256.4614
  -1808063.60249  -1401162.62945  22132274.0994   22132271.4464
      1612.4334
   2025503.46549   1562174.48046  21186935.1224   21186933.0604
     -2204.2834
   3911607.64147   3021798.11342  23402809.5914   23402810.2944
     -4045.2024
   2763062.66048   2132269.24243  23590299.0444   23590295.8644
     -2920.8854
   2533243.53948   1954018.57044  23011256.7004   23011254.0634
     -2613.2284
  -2476184.16848  -1920041.20344  22289926.6694   22289925.6384
      2338.4734
 04  9 10 15  1 15.0010000  0  7G 1G11G14G15G19G22G25
  -2413260.12548  -1870017.44544  22558749.7474   22558749.1304
      2251.8244
  -1832145.67649  -1419927.89144  22127691.3884   22127689.0794
      1605.4724
   2058643.50049   1587997.86346  21193241.3564   21193239.1854
     -2209.3364
   3972334.27047   3069117.50842  23414365.2084   23414366.2714
     -4048.4424
   2806937.27748   2166457.22343  23598648.2474   23598644.1144
     -2924.9744
   2572476.14148   1984589.39844  23018722.3644   23018719.4664
     -2615.5074
  -2511180.19148  -1947310.81644  22283267.4274   22283266.1654
      2333.0684
 04  9 10 15  1 30.0010000  0  7G 1G11G14G15G19G22G25
  -2446967.92648  -1896283.27044  22552335.6464   22552334.6424
      2247.1874
  -1856123.09049  -1438611.59845  22123128.8334   22123126.3964
      1598.4944
   2091858.78949   1613879.89146  21199562.2944   21199559.5444
     -2214.3534
   4033109.12547   3116474.50442  23425930.6144   23425931.2434
     -4051.6574
   2850872.71148   2200692.59443  23607008.6144   23607004.3964
     -2929.0294
   2611742.79348   2015186.74644  23026194.5994   23026191.9814
     -2617.7774
  -2546094.86748  -1974517.03144  22276623.1304   22276621.8684
      2327.6454
 04  9 10 15  1 45.0010000  0  7G 1G11G14G15G19G22G25
  -2480604.83248  -1922493.84444  22545934.5914   22545933.7904
      2242.4604
  -1879994.30549  -1457212.56244  22118585.9894   22118583.3564
      1591.4144
   2125150.45749   1639821.43846  21205897.2714   21205894.8684
     -2219.4454
   4093933.05148   3163869.69942  23437505.4114   23437505.4034
     -4054.9284
   2894869.76648   2234975.96942  23615380.8644   23615377.2784
     -2933.1374
   2651044.70348   2045811.56644  23033673.6854   23033670.7394
     -2620.1274
  -2580926.73848  -2001658.73444  22269994.9664   22269994.1614
      2322.1254
 04  9 10 15  2  0.0010000  0  7G 1G11G14G15G19G22G25
  -2514170.34848  -1948648.79744  22539547.4114   22539546.2314
      2237.7014
  -1903758.70749  -1475730.28544  22114063.9504   22114061.6694
      1584.2934
   2158518.65649   1665822.61346  21212246.9194   21212244.7284
     -2224.5474
   4154806.27047   3211303.34442  23449088.4894   23449089.3964
     -4058.2154
   2938928.55948   2269307.47342  23623764.7634   23623761.4194
     -2937.2534
   2690382.44148   2076464.30944  23041159.3174   23041156.4354
     -2622.5164
  -2615675.12948  -2028735.38344  22263382.4354   22263381.0214
      2316.5594
 04  9 10 15  2 15.0010000  0  7G 1G11G14G15G19G22G25
  -2547667.79748  -1974750.70744  22533173.1694   22533172.2744
      2233.1634
  -1927419.62949  -1494167.36745  22109561.1614   22109559.1304
      1577.3954
   2191959.64849   1691880.50846  21218610.7784   21218608.2354
     -2229.3994
   4215725.02748   3258772.45342  23460681.0754   23460682.1814
     -4061.2514
   2983045.25847   2303684.08643  23632160.0994   23632156.3884
     -2941.1134
   2729752.45348   2107142.19944  23048651.0284   23048648.2824
     -2624.6674
  -2650343.07049  -2055749.35544  22256785.5914   22256784.0794
      2311.1964
 04  9 10 15  2 30.0010000  0  7G 1G11G14G15G19G22G25
  -2581095.57848  -2000798.32844  22526811.4354   22526811.1144
      2228.5194
  -1950975.17649  -1512522.34445  22105078.5914   22105076.7514
      1570.3704
   2225474.71949   1717996.12946  21224988.7084   21224986.0874
     -2234.3384
   4276690.57447   3306278.02742  23472282.9424   23472283.7084
     -4064.3704
   3027220.91848   2338106.66043  23640566.6064   23640563.4034
     -2945.0444
   2769156.26248   2137846.41044  23056149.9424   23056146.4504
     -2626.9214
  -2684928.78549  -2082699.23844  22250203.9664   22250202.7124
      2305.7144
 04  9 10 15  2 45.0010000  0  7G 1G11G14G15G19G22G25
  -2614453.62148  -2026791.60544  22520463.4584   22520463.6964
      2223.8704
  -1974425.07449  -1530795.00445  22100616.6384   22100614.5364
      1563.3274
   2259063.64849   1744169.30946  21231380.4194   21231377.5014
     -2239.2624
   4337702.63747   3353819.85542  23483893.0364   23483894.2984
     -4067.4714
   3071455.15648   2372574.88743  23648983.8644   23648981.3254
     -2948.9494
   2808593.85548   2168576.97344  23063653.8494   23063650.7714
     -2629.1734
  -2719431.73048  -2109584.63744  22243638.0214   22243637.2824
      2300.1964
 04  9 10 15  3  0.0010000  0  7G 1G11G14G15G19G22G25
  -2647741.71148  -2052730.37944  22514129.1384   22514129.2124
      2219.2064
  -1997768.95349  -1548985.03945  22096174.5134   22096172.0444
      1556.2594
   2292726.17649   1770399.82846  21237785.5994   21237783.4114
     -2244.1684
   4398761.04347   3401397.77342  23495511.7314   23495513.0284
     -4070.5604
   3115747.75848   2407088.55943  23657412.7634   23657410.2674
     -2952.8404
   2848065.23048   2199333.85244  23071165.4744   23071161.9974
     -2631.4254
  -2753851.66049  -2136405.34044  22237088.1144   22237087.3684
      2294.6624
 04  9 10 15  3 15.0010000  0  7G 1G11G14G15G19G22G25
  -2680958.90248  -2078613.89844  22507808.5834   22507808.2634
      2214.4794
  -2021005.85949  -1567091.73844  22091752.3104   22091749.3764
      1549.1274
   2326463.00849   1796688.25046  21244206.2164   21244203.4894
     -2249.1224
   4459866.30548   3449012.21942  23507139.8334   23507140.8844
     -4073.6844
   3160099.14147   2441648.03943  23665852.9034   23665850.0054
     -2956.7594
   2887571.32448   2230117.77044  23078683.5054   23078680.3684
     -2633.7404
  -2788187.48448  -2163160.51244  22230554.4354   22230553.5364
      2289.0554
 04  9 10 15  3 30.0010000  0  7G 1G11G14G15G19G22G25
  -2714104.77348  -2104441.85544  22501501.1774   22501500.3494
      2209.7254
  -2044135.19149  -1585114.60244  22087351.2944   22087348.2004
      1541.9554
   2360274.13749   1823034.56646  21250640.0834   21250637.5094
     -2254.0754
   4521018.48448   3496663.21142  23518776.9274   23518777.5364
     -4076.8124
   3204509.28548   2476253.32843  23674303.5754   23674301.5174
     -2960.6764
   2927112.46948   2260929.00044  23086207.8804   23086205.0564
     -2636.0764
  -2822438.59448  -2189849.66844  22224036.7634   22224035.5214
      2283.4074
 04  9 10 15  3 45.0010000  0  7G 1G11G14G15G19G22G25
  -2747180.24648  -2130214.94944  22495206.9114   22495206.2674
      2205.0324
  -2067157.69549  -1603054.22745  22082970.3494   22082967.4034
      1534.8344
   2394158.43049   1849437.90246  21257087.8414   21257085.4544
     -2258.9534
   4582216.24648   3544349.73442  23530423.0914   23530423.4274
     -4079.8514
   3248976.69547   2510903.21143  23682765.4424   23682762.5564
     -2964.4944
   2966687.57848   2291766.71543  23093738.5214   23093736.1694
     -2638.3414
  -2856605.66449  -2216473.34044  22217534.7084   22217533.7674
      2277.8054
 04  9 10 15  4  0.0010000  0  7G 1G11G14G15G19G22G25
  -2780185.85549  -2155933.59844  22488926.0524   22488925.7354
      2200.3744
  -2090073.72349  -1620910.88345  22078609.1924   22078606.5914
      1527.7354
   2428114.89549   1875897.45746  21263549.3414   21263547.5214
     -2263.7644
   4643458.72747   3592071.10542  23542076.6924   23542076.8964
     -4082.8324
   3293500.34048   2545596.93043  23691238.4744   23691235.2044
     -2968.2434
   3006296.01248   2322630.37543  23101275.8644   23101273.7824
     -2640.5624
  -2890688.96149  -2243031.73444  22211049.1614   22211048.0604
      2272.2204
 04  9 10 15  4 15.0010000  0  7G 1G11G14G15G19G22G25
  -2813119.15648  -2181595.90644  22482658.9424   22482658.9854
      2195.5534
  -2112880.84449  -1638682.68445  22074269.0214   22074266.4934
      1520.4754
   2462145.68449   1902414.93446  21270025.3884   21270023.2594
     -2268.7194
   4704748.03148   3639828.96942  23553740.0444   23553740.0914
     -4085.9544
   3338082.26248   2580336.05543  23699721.9034   23699718.8064
     -2972.1284
   3045940.04348   2353521.77044  23108819.9354   23108817.2904
     -2642.9354
  -2924685.91449  -2269522.84444  22204579.6144   22204578.6384
      2266.4644
 04  9 10 15  4 30.0010000  0  7G 1G11G14G15G19G22G25
  -2845981.40248  -2207202.85544  22476405.8644   22476404.7514
      2190.8164
  -2135580.17249  -1656370.46545  22069949.4034   22069947.5244
      1513.2894
   2496249.17249   1928989.05946  21276515.1694   21276513.1574
     -2273.5664
   4766082.43448   3687621.96942  23565411.1854   23565411.7004
     -4088.9604
   3382720.64848   2615119.20343  23708216.1924   23708213.1774
     -2975.8924
   3085618.21948   2384439.78543  23116370.5134   23116367.6424
     -2645.2124
  -2958597.66848  -2295947.56644  22198126.2784   22198125.2714
      2260.7844
 04  9 10 15  4 45.0010000  0  7G 1G11G14G15G19G22G25
  -2878772.90648  -2232754.66444  22470165.9664   22470164.7984
      2186.1004
  -2158171.62149  -1673974.20345  22065650.8964   22065648.6344
      1506.0974
   2530424.73049   1955619.34446  21283018.5994   21283016.7164
     -2278.3714
   4827461.30548   3735449.60542  23577091.0524   23577091.9384
     -4091.9254
   3427414.78548   2649945.77043  23716720.6854   23716718.7864
     -2979.6094
   3125330.28548   2415384.18843  23123927.7244   23123924.2044
     -2647.4714
  -2992424.13748  -2322305.83244  22191689.4744   22191688.5604
      2255.0984
 04  9 10 15  5  0.0010000  0  7G 1G11G14G15G19G22G25
  -2911492.32448  -2258250.31244  22463939.2944   22463938.1774
      2181.2954
  -2180653.86749  -1691492.84045  22061372.5674   22061370.2824
      1498.8164
   2564673.34849   1982306.56346  21289535.7164   21289533.6774
     -2283.2414
   4888885.71947   3783312.73842  23588779.9814   23588780.2164
     -4094.9614
   3472165.53547   2684816.47743  23725236.8104   23725234.7674
     -2983.3834
   3165077.48848   2446356.00843  23131491.2554   23131488.1104
     -2649.8144
  -3026163.82048  -2348596.47744  22185268.7714   22185267.8214
      2249.3124
 04  9 10 15  5 15.0010000  0  7G 1G11G14G15G19G22G25
  -2944140.18448  -2283690.19944  22457726.6224   22457726.0284
      2176.5244
  -2203027.29349  -1708926.68045  22057115.1144   22057112.8454
      1491.5624
   2598994.16849   2009050.04346  21296066.8644   21296064.9274
     -2288.0554
   4950354.71148   3831210.60242  23600477.2394   23600477.6034
     -4097.9334
   3516971.89848   2719730.48443  23733763.5754   23733760.5994
     -2987.0914
   3204859.14848   2477354.65643  23139061.2784   23139058.8174
     -2652.1114
  -3059817.14548  -2374819.82444  22178865.0994   22178863.7284
      2243.5554
 04  9 10 15  5 30.0010000  0  7G 1G11G14G15G19G22G25
  -2976716.66448  -2309074.46944  22451527.3644   22451526.8174
      2171.7654
  -2225292.06649  -1726275.87144  22052878.1224   22052875.4894
      1484.3184
   2633386.62149   2035849.34046  21302611.5994   21302609.6884
     -2292.8304
   5011867.66447   3879142.71142  23612183.0214   23612183.7354
     -4100.8644
   3561833.24647   2754687.35243  23742299.9504   23742297.6654
     -2990.7574
   3244674.93048   2508379.89843  23146638.0834   23146635.6304
     -2654.3854
  -3093383.98049  -2400975.78544  22172477.5994   22172476.6614
      2237.7894
 04  9 10 15  5 45.0010000  0  7G 1G11G14G15G19G22G25
  -3009220.23848  -2334401.92644  22445342.3804   22445341.6424
      2166.9054
  -2247446.38749  -1743538.99244  22048662.5754   22048659.6224
      1476.9554
   2667851.84449   2062705.34046  21309169.8884   21309167.9704
     -2297.6824
   5073425.77047   3927110.01642  23623896.8104   23623897.6424
     -4103.8744
   3606750.52048   2789687.79343  23750846.9584   23750845.1494
     -2994.4854
   3284526.30148   2539432.85244  23154221.9424   23154219.4974
     -2656.7584
  -3126862.58248  -2427062.99644  22166106.7394   22166105.8414
      2231.9074
 04  9 10 15  6  0.0010000  0  7G 1G11G14G15G19G22G25
  -3041652.33648  -2359673.68044  22439170.5134   22439169.9544
      2162.1404
  -2269491.53949  -1760717.05544  22044467.1854   22044464.0604
      1469.6774
   2702388.09849   2089616.69146  21315742.0834   21315740.0524
     -2302.4174
   5135027.16447   3975111.05142  23635619.4974   23635619.9274
     -4106.7604
   3651721.80948   2824730.33643  23759405.4194   23759402.4234
     -2998.0864
   3324411.65248   2570512.29743  23161811.6924   23161809.8494
     -2659.0234
  -3160254.19548  -2453082.41444  22159752.4584   22159751.7124
      2226.1084
 04  9 10 15  6 15.0010000  0  7G 1G11G14G15G19G22G25
  -3074012.73848  -2384889.57844  22433012.4504   22433011.9314
      2157.3604
  -2291427.11749  -1777809.71944  22040293.1224   22040290.2474
      1462.3724
   2736995.28949   2116583.31646  21322327.5674   21322325.2944
     -2307.1464
   5196671.69147   4023145.72342  23647349.8104   23647351.0444
     -4109.6354
   3696746.95748   2859814.84843  23767973.6144   23767970.6534
     -3001.6774
   3364331.16048   2601618.34844  23169408.1614   23169405.9934
     -2661.3014
  -3193558.26249  -2479033.61744  22153414.7164   22153413.8294
      2220.2714
 04  9 10 15  6 30.0010000  0  7G 1G11G14G15G19G22G25
  -3106300.47748  -2410048.85244  22426868.3254   22426867.6774
      2152.5164
  -2313251.88749  -1794816.04745  22036139.7474   22036137.5364
      1454.9854
   2771674.14849   2143605.79346  21328926.9814   21328924.2084
     -2311.9244
   5258360.09047   4071214.55542  23659088.3644   23659089.8804
     -4112.5604
   3741826.49648   2894941.72343  23776551.8644   23776548.9894
     -3005.3034
   3404285.71548   2632751.74644  23177011.4034   23177008.6064
     -2663.6374
  -3226773.58649  -2504915.67244  22147094.0914   22147093.4154
      2214.3554
 04  9 10 15  6 45.0010000  0  7G 1G11G14G15G19G22G25
  -3138515.54349  -2435151.49244  22420738.3804   22420737.0674
      2147.6714
  -2334965.91049  -1811736.07045  22032008.0134   22032004.8724
      1447.6024
   2806424.20749   2170683.74246  21335539.7474   21335537.5834
     -2316.6714
   5320091.86347   4119317.19542  23670836.2634   23670836.7634
     -4115.4524
   3786959.71548   2930110.44143  23785140.1614   23785137.5794
     -3008.8814
   3444275.18848   2663912.33244  23184621.1144   23184618.8804
     -2665.9654
  -3259900.06649  -2530728.50444  22140790.3174   22140789.4974
      2208.4324
 04  9 10 15  7  0.0010000  0  7G 1G11G14G15G19G22G25
  -3170657.24247  -2460196.96544  22414621.8494   22414620.8924
      2142.7804
  -2356568.25049  -1828569.07444  22027896.9424   22027894.1344
      1440.1564
   2841245.97349   2197817.56646  21342166.0754   21342163.7864
     -2321.4514
   5381867.48847   4167453.98042  23682591.6924   23682592.3684
     -4118.3754
   3832147.10947   2965321.36743  23793739.4274   23793735.9974
     -3012.4934
   3484300.20748   2695100.61344  23192237.2944   23192235.3104
     -2668.3354
  -3292936.77348  -2556471.37145  22134503.2784   22134502.7474
      2202.4474
 04  9 10 15  7 15.0010000  0  7G 1G11G14G15G19G22G25
  -3202726.36347  -2485185.88744  22408519.1464   22408518.2744
      2137.9414
  -2378059.49649  -1845315.51244  22023807.3174   22023804.8024
      1432.7504
   2876138.24649   2225006.33245  21348805.7714   21348803.7554
     -2326.1524
   5443685.76647   4215624.03942  23694355.4274   23694356.3604
     -4121.2184
   3877387.24648   3000573.38343  23802348.0364   23802344.8534
     -3016.0094
   3524359.94148   2726315.93444  23199860.5994   23199858.3024
     -2670.6494
  -3325884.37548  -2582144.81245  22128234.1144   22128233.1534
      2196.5074
 04  9 10 15  7 30.0010000  0  7G 1G11G14G15G19G22G25
  -3234722.52747  -2510117.96944  22402430.5674   22402429.4894
      2133.0784
  -2399439.27749  -1861975.08645  22019739.0214   22019736.6694
      1425.3194
   2911101.01249   2252250.02345  21355458.9974   21355456.5444
     -2330.8514
   5505546.67247   4263827.28142  23706126.9194   23706128.0714
     -4124.0604
   3922680.09848   3035866.50443  23810967.2714   23810964.0134
     -3019.5234
   3564454.56648   2757558.46144  23207490.8414   23207488.1144
     -2672.9754
  -3358742.12548  -2607748.23845  22121981.2474   22121980.6494
      2190.5174
 04  9 10 15  7 45.0010000  0  7G 1G11G14G15G19G22G25
  -3266646.19948  -2534993.53944  22396355.6464   22396354.8174
      2128.2454
  -2420707.87949  -1878548.02345  22015691.6464   22015689.1734
      1417.9074
   2946133.50449   2279548.05146  21362125.4814   21362123.4274
     -2335.4994
   5567449.36747   4312063.09842  23717906.5914   23717908.0174
     -4126.8464
   3968024.75847   3071199.97343  23819595.7554   23819592.8924
     -3022.9774
   3604583.55148   2788827.75044  23215126.5364   23215124.5404
     -2675.2664
  -3391510.24648  -2633281.82845  22115745.6464   22115745.0444
      2184.5414
 04  9 10 15  8  0.0010000  0  7G 1G11G14G15G19G22G25
  -3298496.58248  -2559812.01644  22390294.8024   22390293.9464
      2123.3594
  -2441864.25849  -1895033.52045  22011666.2244   22011663.2204
      1410.4254
   2981236.27049   2306900.83646  21368805.3174   21368803.2244
     -2340.1844
   5629394.19547   4360331.74242  23729694.9814   23729695.9274
     -4129.6554
   4013421.52047   3106574.03943  23828234.5134   23828231.5444
     -3026.4514
   3644747.57048   2820124.34444  23222769.4974   23222767.5094
     -2677.6014
  -3424187.77049  -2658744.80945  22109527.2864   22109526.4934
      2178.5024
 04  9 10 15  8 15.0010000  0  7G 1G11G14G15G19G22G25
  -3330272.39548  -2584572.37544  22384247.7714   22384246.9974
      2118.3884
  -2462907.02049  -1911430.49245  22007661.8174   22007658.9114
      1402.8514
   3016410.27349   2334309.12546  21375498.5914   21375496.4464
     -2344.9344
   5691382.16047   4408634.00842  23741489.9504   23741491.9464
     -4132.5314
   4058871.27048   3141989.39543  23836883.9354   23836880.7674
     -3029.9834
   3684947.81348   2851449.17244  23230419.5754   23230416.9784
     -2680.0164
  -3456773.19549  -2684136.04345  22103326.7394   22103325.5484
      2172.3624
 04  9 10 15  8 30.0010000  0  7G 1G11G14G15G19G22G25
  -3361974.19548  -2609275.07044  22378215.4194   22378214.4854
      2113.4534
  -2483836.60949  -1927739.27345  22003679.3024   22003676.3414
      1395.3064
   3051654.51649   2361772.15645  21382205.4504   21382202.9934
     -2349.6164
   5753412.24647   4456969.09442  23753293.3644   23753295.5214
     -4135.3394
   4104372.91847   3177445.19142  23845541.8494   23845539.5914
     -3033.4434
   3725183.53148   2882801.63344  23238076.0284   23238073.6734
     -2682.3814
  -3489266.87949  -2709455.78545  22097143.0604   22097142.2474
      2166.2464
 04  9 10 15  8 45.0010000  0  7G 1G11G14G15G19G22G25
  -3393602.16848  -2633920.25044  22372196.6384   22372196.3104
      2108.5324
  -2504653.22349  -1943960.02045  21999717.8334   21999715.1184
      1387.7744
   3086968.51649   2389289.53546  21388925.2474   21388923.2434
     -2354.2674
   5815483.94147   4505336.58242  23765105.9504   23765107.5134
     -4138.1134
   4149925.72347   3212940.84843  23854210.9584   23854207.9624
     -3036.8544
   3765454.52048   2914181.57443  23245739.4274   23245737.3024
     -2684.7334
  -3521668.92248  -2734704.11345  22090977.3414   22090976.5324
      2160.1364
 04  9 10 15  9  0.0010000  0  7G 1G11G14G15G19G22G25
  -3425155.85247  -2658507.51644  22366192.2864   22366191.6384
      2103.5794
  -2525356.03949  -1960092.08245  21995778.0444   21995775.3724
      1380.1884
   3122352.39849   2416861.37146  21395658.8494   21395656.3684
     -2358.9264
   5877597.37147   4553736.59442  23776926.3104   23776927.0564
     -4140.8954
   4195529.70347   3248476.40242  23862888.7864   23862885.8564
     -3040.2654
   3805761.19948   2945589.32044  23253409.9584   23253406.9854
     -2687.1124
  -3553978.62548  -2759880.49245  22084828.8884   22084827.3254
      2153.9804
 04  9 10 15  9 15.0010000  0  7G 1G11G14G15G19G22G25
  -3456636.21147  -2683037.66044  22360201.4974   22360201.5754
      2098.6914
  -2545945.94949  -1976136.17645  21991860.1224   21991857.4074
      1372.6614
   3157804.86749   2444486.65246  21402405.5524   21402402.7124
     -2363.4984
   5939751.13347   4602168.05142  23788753.3174   23788754.6064
     -4143.5844
   4241183.39147   3284050.66842  23871576.1614   23871573.8884
     -3043.5794
   3846102.29348   2977023.89844  23261086.6304   23261084.1424
     -2689.4064
  -3586196.86747  -2784985.59845  22078698.2714   22078697.2204
      2147.8834
 04  9 10 15  9 30.0010000  0  7G 1G11G14G15G19G22G25
  -3488041.92647  -2707509.64144  22354224.9894   22354225.1034
      2093.7144
  -2566421.41049  -1992091.09445  21987963.5054   21987960.9194
      1365.0314
   3193327.03549   2472166.23446  21409164.7004   21409162.8924
     -2368.1454
   6001946.39547   4650631.83242  23800589.1064   23800590.6304
     -4146.3514
   4286887.82047   3319664.48843  23880273.5604   23880271.0754
     -3046.9624
   3886479.38348   3008486.50844  23268770.0284   23268767.8494
     -2691.8064
  -3618321.85548  -2810018.03945  22072585.1464   22072583.6574
      2141.6664
 04  9 10 15  9 45.0010000  0  7G 1G11G14G15G19G22G25
  -3519372.87548  -2731923.36344  22348263.4584   22348263.1614
      2088.7304
  -2586782.38749  -2007956.79745  21984089.2314   21984086.6884
      1357.3984
   3228918.43049   2499899.77046  21415937.4894   21415935.5524
     -2372.7604
   6064182.69147   4699127.60542  23812432.2864   23812433.3884
     -4149.0864
   4332642.43847   3355317.39842  23888979.7394   23888977.4934
     -3050.3084
   3926892.12948   3039976.89543  23276460.6144   23276458.4664
     -2694.1834
  -3650353.45348  -2834977.71945  22066489.4664   22066488.1884
      2135.4404
 04  9 10 15 10  0.0010000  0  7G 1G11G14G15G19G22G25
  -3550628.93748  -2756278.72744  22342315.4424   22342315.3764
      2083.7384
  -2607028.53149  -2023733.03545  21980236.3104   21980233.5094
      1349.7434
   3264578.90249   2527687.12946  21422723.8024   21422721.3174
     -2377.3654
   6126459.84047   4747655.19942  23824283.1064   23824284.6034
     -4151.8104
   4378446.93847   3391009.19543  23897697.0214   23897693.8994
     -3053.6334
   3967340.67648   3071495.18444  23284157.8174   23284155.6694
     -2696.5704
  -3682291.35549  -2859864.38345  22060412.1774   22060410.3724
      2129.1934
 04  9 10 15 10 15.0010000  0  7G 1G11G14G15G19G22G25
  -3581810.17249  -2780575.78944  22336381.9584   22336381.7354
      2078.7494
  -2627159.67649  -2039419.64544  21976405.6144   21976402.9234
      1342.0764
   3300308.18849   2555528.11745  21429522.7314   21429520.5564
     -2381.9524
   6188777.45747   4796214.34042  23836142.0214   23836143.4034
     -4154.5084
   4424300.80547   3426739.44542  23906422.3804   23906419.0244
     -3056.9244
   4007824.94548   3103041.32044  23291861.6854   23291859.6854
     -2698.9514
  -3714135.25449  -2884677.78945  22054352.1774   22054350.8374
      2122.9274
 04  9 10 15 10 30.0010000  0  7G 1G11G14G15G19G22G25
  -3612917.11348  -2804814.95344  22330462.3804   22330462.3804
      2073.7964
  -2647176.21948  -2055016.96544  21972596.7554   21972593.7594
      1334.4364
   3336105.48049   2583422.09046  21436334.8104   21436332.7944
     -2386.4864
   6251134.55148   4844804.23442  23848008.2394   23848008.9744
     -4157.1404
   4470203.18447   3462507.48442  23915157.7474   23915154.3174
     -3060.1594
   4048344.33248   3134614.82043  23299572.4584   23299570.3064
     -2701.2924
  -3745885.57449  -2909418.28545  22048310.2634   22048308.9584
      2116.6884
 04  9 10 15 10 45.0010000  0  7G 1G11G14G15G19G22G25
  -3643949.62548  -2828996.11744  22324557.0754   22324557.2434
      2068.8344
  -2667077.93049  -2070524.80145  21968809.2244   21968806.6814
      1326.7814
   3371970.50849   2611368.84846  21443159.7084   21443157.6924
     -2391.0024
   6313531.09847   4893424.85942  23859882.1924   23859882.6144
     -4159.7704
   4516153.66447   3498313.02042  23923902.3254   23923899.0484
     -3063.3654
   4088898.86348   3166215.71943  23307289.4194   23307286.2744
     -2703.6354
  -3777541.96149  -2934085.58245  22042286.1924   22042284.8494
      2110.4264
 04  9 10 15 11  0.0010000  0  7G 1G11G14G15G19G22G25
  -3674906.25048  -2853118.16044  22318666.6854   22318666.0364
      2063.7754
  -2686863.05949  -2085941.78545  21965044.1924   21965041.7984
      1319.0094
   3407904.50849   2639369.34446  21449997.6924   21449995.6494
     -2395.6004
   6375968.17247   4942077.09442  23871763.4194   23871764.3684
     -4162.4724
   4562153.14547   3534156.73042  23932655.2244   23932652.6574
     -3066.6324
   4129489.93848   3197845.08243  23315013.7554   23315010.3884
     -2706.0724
  -3809102.57448  -2958678.25445  22036280.7394   22036279.2124
      2104.0414
 04  9 10 15 11 15.0010000  0  7G 1G11G14G15G19G22G25
  -3705788.00047  -2877181.85244  22312789.7944   22312789.1144
      2058.7834
  -2706532.59849  -2101268.70745  21961301.1614   21961298.6964
      1311.3034
   3443906.06649   2667422.49645  21456848.9664   21456846.5094
     -2400.1044
   6438444.34448   4990759.77742  23883652.7244   23883653.2674
     -4165.0784
   4608200.27747   3570037.59442  23941417.4584   23941415.3564
     -3069.8094
   4170116.37548   3229502.00443  23322744.9194   23322741.7004
     -2708.4294
  -3840568.24247  -2983196.94945  22030292.7634   22030291.2084
      2097.7114
 04  9 10 15 11 30.0010000  0  7G 1G11G14G15G19G22G25
  -3736594.75847  -2901187.12144  22306927.4744   22306926.7904
      2053.7844
  -2726086.26649  -2116505.34045  21957580.4114   21957577.4544
      1303.5784
   3479974.94949   2695528.09846  21463712.2784   21463709.8804
     -2404.5924
   6500959.36347   5039472.74642  23895548.7634   23895549.3684
     -4167.6684
   4654294.55947   3605955.18442  23950188.3884   23950186.2314
     -3072.9524
   4210778.12548   3261186.45343  23330482.3804   23330479.9154
     -2710.7834
  -3871938.69948  -3007641.44945  22024322.9584   22024321.5834
      2091.3644
 04  9 10 15 11 45.0010000  0  7G 1G11G14G15G19G22G25
  -3767325.77748  -2925133.34844  22301079.1924   22301078.7124
      2048.7354
  -2745523.19149  -2131651.00845  21953882.0284   21953878.5404
      1295.7954
   3516111.59449   2723686.50445  21470588.6224   21470586.6534
     -2409.1104
   6563513.58647   5088216.28542  23907451.8644   23907453.3534
     -4170.2824
   4700436.25047   3641909.72343  23958969.7164   23958966.8684
     -3076.1134
   4251475.93848   3292898.96943  23338226.7864   23338224.5714
     -2713.1874
  -3903213.09848  -3032011.09045  22018371.4584   22018370.4544
      2084.9604
 04  9 10 15 12  0.0010000  0  7G 1G11G14G15G19G22G25
  -3797981.71548  -2949021.07844  22295245.8644   22295245.3454
      2043.7294
  -2764843.90249  -2146706.12545  21950205.3804   21950202.2864
      1288.0474
   3552315.07849   2751896.99646  21477478.0994   21477476.1104
     -2413.5664
   6626106.10247   5136989.64142  23919363.0754   23919364.2594
     -4172.8344
   4746624.28948   3677900.37543  23967759.0444   23967756.6924
     -3079.2034
   4292209.02748   3324639.00443  23345977.7944   23345975.3174
     -2715.5394
  -3934391.77749  -3056306.14845  22012438.5834   22012437.0444
      2078.5794
 04  9 10 15 12 15.0010000  0  7G 1G11G14G15G19G22G25
  -3828562.93749  -2972850.59444  22289426.4424   22289425.8684
      2038.7484
  -2784048.63749  -2161670.85945  21946550.3804   21946547.7474
      1280.3164
   3588584.62549   2780158.96545  21484379.8024   21484378.0674
     -2417.9704
   6688736.05948   5185792.15242  23931281.1224   23931282.3684
     -4175.3304
   4792857.92647   3713926.56343  23976556.6924   23976554.7244
     -3082.2424
   4332976.94548   3356406.16043  23353735.8104   23353733.6424
     -2717.8614
  -3965474.94149  -3080526.78145  22006523.6064   22006522.3724
      2072.2114
 04  9 10 15 12 30.0010000  0  7G 1G11G14G15G19G22G25
  -3859068.93449  -2996621.48844  22283621.2474   22283620.7784
      2033.7334
  -2803136.68049  -2176544.65245  21942918.1614   21942915.5364
      1272.5364
   3624920.52349   2808472.63345  21491294.5444   21491292.4194
     -2422.3934
   6751403.65247   5234624.00442  23943206.4274   23943208.1774
     -4177.8404
   4839137.20747   3749988.31343  23985363.8964   23985361.4704
     -3085.2854
   4373780.16448   3388200.80943  23361501.0364   23361498.4584
     -2720.2154
  -3996461.73049  -3104672.32045  22000626.8414   22000625.9814
      2065.7864
 04  9 10 15 12 45.0010000  0  7G 1G11G14G15G19G22G25
  -3889499.43448  -3020333.55944  22277830.4744   22277830.2314
      2028.7004
  -2822107.57449  -2191327.18044  21939308.1924   21939305.4584
      1264.7264
   3661322.69949   2836837.93845  21498221.7784   21498219.7084
     -2426.8124
   6814108.77747   5283485.09442  23955138.6924   23955140.4854
     -4180.3424
   4885462.02047   3786085.53943  23994178.5524   23994176.9464
     -3088.3214
   4414618.81648   3420023.09443  23369272.5914   23369269.4854
     -2722.5774
  -4027351.62549  -3128742.35245  21994749.1534   21994748.1264
      2059.3264
 04  9 10 15 13  0.0010000  0  7G 1G11G14G15G19G22G25
  -3919852.77749  -3043985.50444  22272054.3724   22272054.0524
      2023.5564
  -2840959.60249  -2206017.08645  21935720.9354   21935717.8454
      1256.8024
   3697792.57049   2865256.00045  21505161.8564   21505159.8104
     -2431.3254
   6876852.81347   5332376.49642  23967078.3804   23967080.5834
     -4182.9364
   4931833.43447   3822219.07843  24003003.3494   24003000.5754
     -3091.4284
   4455494.55548   3451874.26643  23377050.4584   23377048.4274
     -2725.0494
  -4058142.85249  -3152735.50445  21988889.5834   21988888.3804
      2052.7484
 04  9 10 15 13 15.0010000  0  7G 1G11G14G15G19G22G25
  -3950127.95749  -3067576.54344  22266293.2944   22266292.2674
      2018.3454
  -2859691.62549  -2220613.48845  21932156.4034   21932154.0604
      1248.8024
   3734330.76649   2893727.30145  21512114.4114   21512112.4354
     -2435.8804
   6939636.32447   5381298.67242  23979025.7474   23979026.9074
     -4185.5674
   4978252.04747   3858389.39843  24011836.4424   24011833.2714
     -3094.5744
   4496408.23448   3483755.00043  23384836.0994   23384835.1694
     -2727.5794
  -4088834.21149  -3176650.82845  21983049.0914   21983047.8804
      2046.0914
 04  9 10 15 13 30.0010000  0  7G 1G11G14G15G19G22G25
  -3980327.48848  -3091108.63744  22260546.6694   22260545.8684
      2013.3024
  -2878306.05949  -2235118.25045  21928614.2164   21928610.9704
      1240.9624
   3770934.34449   2922249.55546  21519080.1464   21519077.8804
     -2440.2394
   7002456.53147   5430249.39142  23990979.9664   23990981.1734
     -4188.0144
   5024714.90247   3894594.15643  24020678.4974   24020674.8214
     -3097.5244
   4537357.18448   3515663.22743  23392628.2004   23392627.0914
     -2729.9304
  -4119428.06649  -3200490.17645  21977227.2634   21977226.0284
      2039.5904
 04  9 10 15 13 45.0010000  0  7G 1G11G14G15G19G22G25
  -4010449.82849  -3114580.57444  22254814.4274   22254813.6924
      2008.1564
  -2896801.19149  -2249530.06245  21925094.3024   21925091.5914
      1233.0094
   3807604.57049   2950823.73845  21526058.3724   21526056.1064
     -2444.6824
   7065314.45347   5479229.55942  24002941.9194   24002943.1494
     -4190.5284
   5071222.93447   3930834.15243  24029528.3724   24029525.6494
     -3100.5354
   4578342.99248   3547600.15243  23400427.8644   23400425.8494
     -2732.3874
  -4149922.64849  -3224252.18045  21971424.3564   21971423.2434
      2032.9724
 04  9 10 15 14  0.0010000  0  7G 1G11G14G15G19G22G25
  -4040495.53148  -3137992.80544  22249096.7394   22249096.3844
      2003.0474
  -2915177.30549  -2263849.10945  21921597.7314   21921595.3884
      1225.0744
   3844340.66049   2979449.24646  21533048.8414   21533047.2824
     -2449.0734
   7128209.30147   5528238.45342  24014910.7784   24014911.5634
     -4192.9904
   5117775.24248   3967108.61742  24038386.6144   24038384.3724
     -3103.4874
   4619364.89847   3579565.23043  23408233.9664   23408231.4034
     -2734.7944
  -4180318.31649  -3247937.10245  21965640.2784   21965639.0094
      2026.3784
 04  9 10 15 14 15.0010000  0  7G 1G11G14G15G19G22G25
  -4070464.38348  -3161345.15244  22243393.9814   22243393.4354
      1997.9234
  -2933434.14849  -2278075.22745  21918123.4034   21918120.7784
      1217.1234
   3881142.42249   3008125.92245  21540052.1534   21540050.0484
     -2453.4514
   7191140.81647   5577275.98442  24026885.2864   24026887.1464
     -4195.4344
   5164371.55947   4003417.43043  24047254.2164   24047251.6814
     -3106.4214
   4660423.07447   3611558.56643  23416047.1534   23416043.9504
     -2737.2124
  -4210614.66048  -3271544.62945  21959875.0284   21959873.5754
      2019.7564
 04  9 10 15 14 30.0010000  0  7G 1G11G14G15G19G22G25
  -4100356.77748  -3184637.92644  22237705.7164   22237705.0404
      1992.8264
  -2951571.91449  -2292208.55945  21914672.2864   21914669.4544
      1209.1844
   3918009.15649   3036853.22345  21547067.7474   21547065.9274
     -2457.7824
   7254108.38347   5626341.56642  24038868.4584   24038869.6144
     -4197.8384
   5211011.09847   4039759.88343  24056129.0524   24056127.4974
     -3109.3034
   4701517.08647   3643579.83643  23423867.5054   23423863.9544
     -2739.6014
  -4240811.79348  -3295074.84445  21954128.4894   21954127.4074
      2013.1424
 04  9 10 15 14 45.0010000  0  7G 1G11G14G15G19G22G25
  -4130172.53148  -3207870.96544  22232031.8804   22232031.3374
      1987.7174
  -2969590.35249  -2306248.90645  21911243.2554   21911240.4814
      1201.2294
   3954940.84849   3065631.14845  21554095.6224   21554093.3564
     -2462.1134
   7317111.85547   5675435.09842  24050857.6924   24050858.6344
     -4200.2324
   5257693.57447   4076135.81643  24065012.6144   24065010.2784
     -3112.1654
   4742647.05148   3675629.11743  23431693.7554   23431691.1614
     -2741.9984
  -4270909.33248  -3318527.45345  21948400.8804   21948399.6494
      2006.5034
 04  9 10 15 15  0.0010000  0  7G 1G11G14G15G19G22G25
  -4159911.87548  -3231044.46944  22226372.3174   22226371.6614
      1982.6234
  -2987489.53949  -2320196.32445  21907836.9664   21907834.7744
      1193.2794
   3991936.97749   3094459.27345  21561135.7164   21561133.4584
     -2466.4094
   7380150.48047   5724556.07042  24062852.9424   24062854.4854
     -4202.5754
   5304418.26247   4112544.62942  24073903.8414   24073901.7164
     -3114.9794
   4783812.50848   3707706.04343  23439527.5444   23439525.5634
     -2744.3644
  -4300907.40248  -3341902.55945  21942692.8964   21942691.9194
      1999.8714
 04  9 10 15 15 15.0010000  0  7G 1G11G14G15G19G22G25
  -4189573.75448  -3254157.61744  22220728.0914   22220727.2204
      1977.4594
  -3005268.29749  -2334049.91445  21904453.9504   21904451.5634
      1185.2514
   4028998.23449   3123338.16445  21568188.2864   21568186.0404
     -2470.7514
   7443225.14147   5773705.11742  24074856.0444   24074857.0284
     -4204.9774
   5351185.60947   4148986.68043  24082803.4274   24082801.3174
     -3117.8234
   4825014.47347   3739811.42643  23447368.2314   23447365.8884
     -2746.7984
  -4330804.66048  -3365199.10245  21937003.5674   21937002.5604
      1993.1514
 04  9 10 15 15 30.0010000  0  7G 1G11G14G15G19G22G25
  -4219158.01648  -3277210.27344  22215098.2784   22215098.0054
      1972.2844
  -3022926.27749  -2347809.39145  21901093.8414   21901091.0874
      1177.1994
   4066124.50449   3152267.69545  21575253.2784   21575250.5324
     -2475.0854
   7506335.60247   5822882.03942  24086865.5284   24086866.9384
     -4207.3644
   5397995.46947   4185461.85242  24091711.0524   24091709.2354
     -3120.6574
   4866253.06648   3771945.34443  23455215.5674   23455213.0914
     -2749.2404
  -4360600.62549  -3388416.72345  21931333.5524   21931332.3064
      1986.3984
 04  9 10 15 15 45.0010000  0  7G 1G11G14G15G19G22G25
  -4248666.52749  -3300203.90644  22209483.2314   22209481.9194
      1967.2344
  -3040465.26249  -2361476.14145  21897756.0214   21897754.0524
      1169.2664
   4103313.43049   3181246.06645  21582330.0054   21582327.4544
     -2479.2624
   7569479.60547   5872085.10942  24098881.8414   24098883.3254
     -4209.6004
   5444845.54347   4221968.36342  24100626.3564   24100624.5014
     -3123.3384
   4907526.28548   3804106.23843  23463069.7944   23463067.5714
     -2751.5484
  -4390297.03949  -3411556.77345  21925682.7864   21925681.3564
      1979.7614
 04  9 10 15 16  0.0010000  0  7G 1G11G14G15G19G22G25
  -4278097.18049  -3323136.87544  22203882.7714   22203881.8374
      1962.0434
  -3057883.06649  -2375048.46145  21894441.8414   21894439.1184
      1161.1874
   4140566.95349   3210274.76645  21589419.2004   21589416.9854
     -2483.5684
   7632658.89147   5921315.68042  24110903.8104   24110905.5214
     -4211.9524
   5491737.48047   4258507.52042  24109550.1224   24109547.5874
     -3126.1294
   4948836.19148   3836295.73043  23470930.9354   23470928.0994
     -2753.9944
  -4419891.57449  -3434617.44145  21920050.8104   21920049.7394
      1972.9694
 04  9 10 15 16 15.0010000  0  7G 1G11G14G15G19G22G25
  -4307451.85949  -3346010.63744  22198296.2944   22198295.9894
      1956.9794
  -3075181.43049  -2388527.71945  21891149.5524   21891147.2824
      1153.2244
   4177882.85949   3239352.07445  21596520.0444   21596518.2904
     -2487.7274
   7695871.21547   5970571.95342  24122933.3724   24122934.8414
     -4214.1554
   5538668.89147   4295077.42242  24118479.9424   24118478.2714
     -3128.7614
   4990180.82848   3868512.30143  23478798.2394   23478796.2864
     -2756.3094
  -4449385.96149  -3457600.06245  21914438.0994   21914437.0444
      1966.2924
 04  9 10 15 16 30.0010000  0  7G 1G11G14G15G19G22G25
  -4336727.36748  -3368822.72344  22192725.9274   22192725.1814
      1951.7014
  -3092356.99649  -2401911.28945  21887881.3254   21887878.9624
      1145.0384
   4215264.06349   3268480.27045  21603633.4744   21603631.3454
     -2492.0804
   7759119.42247   6019856.22742  24134969.2634   24134970.8024
     -4216.5474
   5585642.43047   4331680.14542  24127419.3964   24127416.9974
     -3131.5694
   5031563.26248   3900758.31643  23486673.2084   23486671.0954
     -2758.8294
  -4478776.77049  -3480501.97745  21908845.3104   21908844.0714
      1959.3874
 04  9 10 15 16 45.0010000  0  7G 1G11G14G15G19G22G25
  -4365926.39148  -3391575.20744  22187169.5994   22187168.8924
      1946.6024
  -3109412.22749  -2415201.09845  21884635.9034   21884633.6924
      1137.0154
   4252707.48049   3297656.93045  21610758.6144   21610756.5174
     -2496.2284
   7822400.49647   6069166.07842  24147011.5364   24147013.1034
     -4218.7384
   5632655.11747   4368313.36742  24136364.6924   24136362.9704
     -3134.1794
   5072980.78548   3933031.66043  23494554.2944   23494553.2314
     -2761.1684
  -4508066.43449  -3503325.07445  21903271.4274   21903270.5714
      1952.6444
 04  9 10 15 17  0.0010000  0  7G 1G11G14G15G19G22G25
  -4395048.46148  -3414267.73444  22181627.7634   22181626.4974
      1941.4714
  -3126346.54349  -2428396.66845  21881413.6614   21881410.6614
      1128.9544
   4290213.32449   3326882.25045  21617895.5674   21617893.9504
     -2500.3904
   7885714.62547   6118501.70742  24159059.2864   24159061.6384
     -4220.9424
   5679706.90246   4404977.07042  24145319.0284   24145316.5914
     -3136.7864
   5114433.78948   3965332.66043  23502443.0134   23502440.9584
     -2763.5344
  -4537254.33249  -3526068.87545  21897717.2714   21897716.6424
      1945.8604
 04  9 10 15 17 15.0010000  0  7G 1G11G14G15G19G22G25
  -4424092.52048  -3436899.46544  22176100.8174   22176100.0524
      1936.2714
  -3143158.80149  -2441497.14845  21878214.3174   21878211.2554
      1120.8174
   4327782.27749   3356156.72745  21625045.1774   21625043.4194
     -2504.5974
   7949062.36347   6167863.51242  24171114.6144   24171115.9894
     -4223.1834
   5726798.34847   4441671.68442  24154280.0364   24154277.5244
     -3139.4304
   5155923.09448   3997661.94543  23510338.3334   23510336.9894
     -2765.9544
  -4566339.34849  -3548732.50845  21892182.3334   21892181.6574
      1939.0014
 04  9 10 15 17 30.0010000  0  8G 1G20G11G14G15G19G22G25
  -4453060.71549  -3459472.09044  22170589.2004   22170587.7474
      1931.2134
    -97944.81256    -73747.56251  24434694.9504   24434693.3534

  -3159851.00449  -2454504.06645  21875037.8104   21875035.4934
      1112.8144
   4365412.05549   3385478.61745  21632205.9584   21632203.5714
     -2508.6524
   8012441.26247   6217249.62542  24183175.1064   24183176.6104
     -4225.2604
   5773926.95347   4478395.23442  24163248.3174   24163245.0564
     -3141.9074
   5197446.62948   4030017.90643  23518240.0914   23518238.0244
     -2768.2364
  -4595323.23049  -3571317.32445  21886666.3414   21886666.3924
      1932.2594
 04  9 10 15 17 45.0010000  0  8G 1G20G11G14G15G19G22G25
  -4481953.47348  -3481985.93044  22165089.8564   22165090.0484
      1926.1844
   -136809.23446   -104031.52041  24427299.2084   24427297.2244
      2590.9614
  -3176423.48849  -2467417.70345  21871884.0994   21871881.8884
      1104.8324
   4403101.84449   3414847.26245  21639377.9194   21639375.4424
     -2512.6534
   8075850.54347   6266659.39842  24195241.1614   24195242.6924
     -4227.2854
   5821091.68847   4515146.91842  24172223.5444   24172220.0634
     -3144.3164
   5239003.88348   4062400.12143  23526148.3414   23526146.5174
     -2770.4844
  -4624206.35249  -3593823.63745  21881171.0994   21881169.6064
      1925.5414
 04  9 10 15 18  0.0010000  0  8G 1G20G11G14G15G19G22G25
  -4510770.63348  -3504440.85944  22159606.8174   22159605.9934
      1921.1444
   -175672.08646   -134314.23441  24419903.6614   24419902.2944
      2590.8574
  -3192875.81249  -2480237.69545  21868753.5674   21868751.0094
      1096.8224
   4440851.51249   3444262.57445  21646561.1614   21646559.1304
     -2516.6454
   8139290.02347   6316092.70342  24207313.5524   24207315.1064
     -4229.2994
   5868292.32847   4551926.61342  24181205.3964   24181202.4664
     -3146.7094
   5280594.85548   4094808.63743  23534062.9504   23534060.5794
     -2772.7324
  -4652988.43049  -3616251.21145  21875693.7084   21875692.5914
      1918.8054
 04  9 10 15 18 15.0010000  0  8G 1G20G11G14G15G19G22G25
  -4539510.90249  -3526835.87144  22154137.4814   22154136.3884
      1916.0184
   -214532.07046   -164594.72741  24412508.9814   24412507.6884
      2590.6664
  -3209206.67249  -2492963.05545  21865645.7944   21865642.9354
      1088.7244
   4478662.00049   3473725.27745  21653756.3174   21653754.5754
     -2520.6994
   8202760.61347   6365550.25042  24219391.5994   24219393.2354
     -4231.3734
   5915529.83246   4588735.00442  24190194.5674   24190191.8454
     -3149.1674
   5322220.71148   4127244.32043  23541983.7084   23541981.5444
     -2775.0574
  -4681667.75049  -3638598.71545  21870236.3174   21870235.3414
      1911.9554
 04  9 10 15 18 30.0010000  0  8G 1G20G11G14G15G19G22G25
  -4568175.85248  -3549172.20344  22148682.7244   22148681.8134
      1910.9974
   -253390.78546   -194874.25842  24405114.5134   24405113.7514
      2590.5814
  -3225417.54749  -2505594.91045  21862560.8174   21862558.2164
      1080.7254
   4516531.41049   3503233.88345  21660962.8884   21660961.1034
     -2524.6274
   8266260.47747   6415030.59442  24231474.8644   24231476.9584
     -4233.3244
   5962802.02046   4625570.46942  24199190.5284   24199188.1964
     -3151.4794
   5363879.88348   4159705.96943  23549911.3104   23549909.1224
     -2777.2784
  -4710245.66049  -3660867.20745  21864797.9974   21864797.0834
      1905.1944
 04  9 10 15 18 45.0010000  0  8G 1G20G11G14G15G19G22G25
  -4596765.32448  -3571449.70744  22143242.0214   22143241.2744
      1905.9654
   -292248.00446   -225152.59442  24397720.4584   24397719.4354
      2590.4814
  -3241508.08649  -2518133.00445  21859499.1464   21859496.4464
      1072.7034
   4554459.62149   3532788.30945  21668180.4274   21668178.0874
     -2528.5474
   8329789.34847   6464533.56342  24243564.3104   24243566.1304
     -4235.2584
   6010108.54347   4662432.68042  24208192.6224   24208191.2354
     -3153.7684
   5405572.43448   4192193.62543  23557845.0604   23557843.2634
     -2779.5034
  -4738721.92249  -3683056.48845  21859379.4664   21859378.2674
      1898.4174
 04  9 10 15 19  0.0010000  0  8G 1G20G11G14G15G19G22G25
  -4625278.14548  -3593667.48844  22137816.1464   22137815.5244
      1900.8554
   -331102.53546   -255428.84842  24390326.9974   24390325.9424
      2590.3024
  -3257477.09849  -2530576.40245  21856460.3564   21856457.6494
      1064.6014
   4592447.59449   3562389.29745  21675409.3644   21675406.9854
     -2532.5324
   8393348.11747   6514059.80542  24255659.1304   24255660.9354
     -4237.2514
   6057450.31647   4699322.33642  24217201.7004   24217199.9664
     -3156.1184
   5447299.45348   4224708.14543  23565785.8964   23565783.6964
     -2781.8014
  -4767095.07849  -3705165.43045  21853979.9894   21853979.3494
      1891.5444
 04  9 10 15 19 15.0010000  0  8G 1G20G11G14G15G19G22G25
  -4653714.74248  -3615825.87544  22132404.8644   22132404.1964
      1895.7734
   -369954.87146   -285703.38342  24382934.0364   24382932.0214
      2590.1564
  -3273324.79749  -2542925.27345  21853444.7944   21853441.6464
      1056.5134
   4630494.44549   3592036.16845  21682649.2474   21682647.5794
     -2536.4574
   8456936.05548   6563608.78942  24267759.8174   24267761.5054
     -4239.1964
   6104826.38347   4736238.68842  24226216.8494   24226214.5484
     -3158.4044
   5489060.41848   4257249.12143  23573732.6694   23573730.4074
     -2784.0644
  -4795365.32849  -3727194.17645  21848600.3644   21848599.2784
      1884.6834
 04  9 10 15 19 30.0010000  0  7G 1G20G11G14G19G22G25
  -4682075.02048  -3637924.78144  22127008.4114   22127007.3884
      1890.6854
   -408804.83246   -315976.06642  24375540.8024   24375539.3214
      2589.9974
  -3289051.02349  -2555179.47745  21850452.0134   21850449.4784
      1048.4154
   4668600.11349   3621728.88745  21689900.7474   21689898.9704
     -2540.3784
   6152236.43447   4773181.56342  24235239.3494   24235235.6144
     -3160.6704
   5530855.38348   4289816.59043  23581685.3254   23581684.1264
     -2786.3314
  -4823532.41849  -3749142.54345  21843240.5134   21843239.4114
      1877.8064
 04  9 10 15 19 45.0010000  0  7G 1G20G11G14G19G22G25
  -4710358.96148  -3659964.21544  22121626.0284   22121625.3134
      1885.5964
   -447652.21946   -346246.71542  24368148.6774   24368147.1654
      2589.8264
  -3304655.49649  -2567338.81245  21847482.3884   21847479.8804
      1040.2984
   4706764.32049   3651467.20745  21697163.1774   21697161.1494
     -2544.2804
   6199680.03146   4810150.56342  24244267.6064   24244263.8804
     -3162.9074
   5572684.35548   4322410.53943  23589645.7314   23589644.2124
     -2788.5984
  -4851596.13348  -3771010.35545  21837899.6924   21837899.0324
      1870.9144
 04  9 10 15 20  0.0010000  0  7G 1G20G11G14G19G22G25
  -4738565.72748  -3681943.51245  22116258.4034   22116258.1854
      1880.4514
   -486496.25445   -376514.79342  24360755.7714   24360754.9664
      2589.6024
  -3320137.19149  -2579402.48445  21844536.2004   21844533.9154
      1032.1134
   4744987.60949   3681251.55945  21704436.6064   21704434.5444
     -2548.2194
   6247157.56647   4847146.03542  24253301.4274   24253299.1884
     -3165.1694
   5614548.06648   4355031.57443  23597612.4894   23597609.5834
     -2790.9144
  -4879555.51248  -3792796.86745  21832579.0994   21832578.3214
      1863.9594
 04  9 10 15 20 15.0010000  0  7G 1G20G11G14G19G22G25
  -4766694.94148  -3703862.36744  22110905.6614   22110905.0754
      1875.2814
   -525336.52046   -406779.92242  24353365.2714   24353363.6224
      2589.3514
  -3335495.50849  -2591370.01245  21841613.7394   21841611.3174
      1023.8884
   4783270.11749   3711082.06645  21711721.7634   21711719.6184
     -2552.1674
   6294668.98846   4884167.89842  24262342.2554   24262340.1104
     -3167.4284
   5656446.86348   4387679.97343  23605585.3644   23605582.3994
     -2793.2534
  -4907409.86748  -3814501.54745  21827278.8254   21827278.1144
      1856.9574
 04  9 10 15 20 30.0010000  0  7G 1G20G11G14G19G22G25
  -4794744.27748  -3725718.99644  22105567.9974   22105567.3294
      1869.9564
   -564170.64846   -437040.22742  24345975.3644   24345973.4744
      2588.9424
  -3350728.33249  -2603239.75445  21838715.0604   21838712.6224
      1015.5224
   4821613.75049   3740960.19945  21719018.1924   21719015.9584
     -2556.2424
   6342215.99646   4921217.46142  24271391.0834   24271388.7864
     -3169.8014
   5698382.83248   4420357.30143  23613565.0284   23613563.1144
     -2795.7314
  -4935156.75048  -3836122.47345  21821998.8104   21821997.8294
      1849.7924
 04  9 10 15 20 45.0010000  0  7G 1G20G11G14G19G22G25
  -4822712.72748  -3747512.58244  22100245.5604   22100244.5284
      1864.5634
   -602997.71146   -467295.09442  24338586.9814   24338585.3454
      2588.4714
  -3365834.44949  -2615010.77345  21835840.7084   21835838.0404
      1007.0744
   4860019.22749   3770886.52745  21726326.7394   21726324.4384
     -2560.3654
   6389799.32046   4958295.34842  24280445.7244   24280443.9074
     -3172.2224
   5740356.99648   4453064.39543  23621553.1534   23621550.9354
     -2798.2784
  -4962794.90248  -3857658.68045  21816739.6384   21816738.6884
      1842.5434
 04  9 10 15 21  0.0010000  0  7G 1G20G11G14G19G22G25
  -4850601.98048  -3769244.46144  22094938.4114   22094938.1814
      1859.2844
   -641819.23446   -497545.61342  24331199.6224   24331197.8994
      2588.1024
  -3380815.19549  -2626684.08645  21832989.7474   21832987.6924
       998.7164
   4898484.63749   3800859.55145  21733646.4894   21733644.2004
     -2564.3614
   6437416.84446   4995399.87142  24289507.4424   24289504.9154
     -3174.5024
   5782367.66848   4485799.93043  23629547.7084   23629544.9424
     -2800.7114
  -4990325.77749  -3879111.30145  21811500.7474   21811499.3414
      1835.3924
 04  9 10 15 21 15.0010000  0  7G 1G20G11G14G19G22G25
  -4878412.87549  -3790915.27344  22089646.2244   22089645.7674
      1854.0604
   -680636.17246   -527792.57442  24323812.8334   24323812.1304
      2587.7964
  -3395671.39849  -2638260.35245  21830162.6464   21830160.4034
       990.4144
   4937008.82849   3830878.37145  21740977.1694   21740975.5054
     -2568.2794
   6485067.32846   5032530.09042  24298574.6304   24298572.4354
     -3176.6994
   5824413.74248   4518563.07043  23637548.3334   23637545.8134
     -2803.0724
  -5017750.12949  -3900480.90245  21806281.5914   21806280.5014
      1828.2904
 04  9 10 15 21 30.0010000  0  7G 1G20G11G14G19G22G25
  -4906143.26248  -3812523.35244  22084369.0994   22084368.8134
      1848.6924
   -719446.26646   -558034.20342  24316426.8564   24316426.2354
      2587.3404
  -3410400.83649  -2649737.84045  21827359.6064   21827357.5134
       981.9634
   4975593.62549   3860944.43045  21748319.4894   21748317.9234
     -2572.3204
   6532752.43046   5069687.27742  24307648.9194   24307647.1494
     -3179.0074
   5866497.44148   4551355.50043  23645556.2004   23645554.8294
     -2805.5804
  -5045065.35249  -3921765.47745  21801083.7714   21801082.7044
      1821.0154
 04  9 10 15 21 45.0010000  0  7G 1G20G11G14G19G22G25
  -4933795.59849  -3834070.60944  22079107.1384   22079106.9314
      1843.4894
   -758251.93446   -588272.37142  24309042.3334   24309041.9234
      2587.0454
  -3425005.89149  -2661118.41445  21824580.7244   21824578.0564
       973.6704
   5014236.30149   3891055.58645  21755672.8884   21755671.7394
     -2576.1784
   6580469.23046   5106869.13342  24316729.2864   24316726.6144
     -3181.1204
   5908616.23448   4584175.30543  23653571.2244   23653569.7904
     -2807.9204
  -5072273.69549  -3942966.77345  21795906.1614   21795905.2244
      1813.8904
 04  9 10 15 22  0.0010000  0  7G 1G20G11G14G19G22G25
  -4961369.38749  -3855556.66844  22073860.1534   22073859.4854
      1838.2534
   -797052.63746   -618506.67242  24301659.2714   24301658.3214
      2586.7144
  -3439485.76249  -2672401.44145  21821825.2084   21821822.8214
       965.3254
   5052937.12949   3921212.04345  21763038.0994   21763035.8604
     -2580.0554
   6628217.77346   5144075.76242  24325815.9114   24325812.7864
     -3183.2364
   5950770.60248   4617022.80543  23661593.0054   23661591.7594
     -2810.2914
  -5099374.76249  -3964084.47745  21790749.0524   21790747.9274
      1806.7384
 04  9 10 15 22 15.0010000  0  7G 1G20G11G14G19G22G25
  -4988864.11749  -3876981.11744  22068628.1854   22068627.4384
      1832.9824
   -835847.87146   -648736.71542  24294277.1924   24294275.7554
      2586.3494
  -3453839.85549  -2683586.44945  21819093.9894   21819091.5054
       956.9404
   5091696.32849   3951413.99245  21770413.2084   21770411.4034
     -2583.9474
   6675998.11745   5181307.14542  24334907.4194   24334905.0714
     -3185.3564
   5992960.83248   4649898.25443  23669621.9894   23669620.3684
     -2812.6824
  -5126367.78149  -3985117.98445  21785612.5284   21785611.3724
      1799.5354
 04  9 10 15 22 30.0010000  0  7G 1G20G11G14G19G22G25
  -5016280.04349  -3898344.16045  22063411.2864   22063410.2674
      1827.7284
   -874637.66046   -678962.52742  24286895.7944   24286894.5714
      2585.9864
  -3468068.28149  -2694673.55145  21816386.1774   21816383.5444
       948.5624
   5130513.39849   3981661.04745  21777799.8804   21777797.8684
     -2587.8054
   6723809.57845   5218562.78942  24344005.7244   24344003.7164
     -3187.4314
   6035186.69548   4682801.47743  23677657.2244   23677656.0284
     -2815.0584
  -5153252.78149  -4006067.32045  21780496.3104   21780495.2434
      1792.3334
 04  9 10 15 22 45.0010000  0  7G 1G20G11G14G19G22G25
  -5043617.45349  -3919646.02044  22058209.0914   22058208.2714
      1822.4944
   -913422.40646   -709184.39542  24279515.2314   24279513.7434
      2585.6504
  -3482171.21949  -2705662.86345  21813702.7314   21813700.1064
       940.1964
   5169387.69149   4011952.68445  21785197.2394   21785195.6964
     -2591.6204
   6771651.52345   5255842.20742  24353109.2474   24353108.5284
     -3189.4634
   6077447.90648   4715732.25043  23685699.3334   23685698.0404
     -2817.4144
  -5180029.67649  -4026932.41845  21775401.1384   21775400.0214
      1785.1264
 04  9 10 15 23  0.0010000  0  7G 1G20G11G14G19G22G25
  -5070876.49648  -3940886.81645  22053021.6614   22053021.0134
      1817.2704
   -952202.31246   -739402.46942  24272134.7784   24272134.2514
      2585.3274
  -3496148.89549  -2716554.57045  21811042.5994   21811039.8644
       931.8454
   5208318.70349   4042288.51245  21792605.9424   21792604.5284
     -2595.4014
   6819523.16846   5293144.75842  24362219.7634   24362217.9154
     -3191.4434
   6119744.02348   4748690.21543  23693748.1614   23693746.2284
     -2819.7414
  -5206698.60549  -4047713.39145  21770325.9664   21770324.6064
      1777.9294
 04  9 10 15 23 15.0010000  0  7G 1G20G11G14G19G22G25
  -5098057.79747  -3962067.03145  22047848.9974   22047848.8174
      1812.0874
   -990977.82045   -769617.12942  24264757.2784   24264755.7004
      2585.0344
  -3510001.57049  -2727348.86345  21808406.5834   21808403.5714
       923.5124
   5247305.57449   4072667.85945  21800024.9814   21800023.2284
     -2599.1254
   6867423.65246   5330469.78142  24371335.3174   24371333.1304
     -3193.3664
   6162074.51248   4781674.98043  23701803.4114   23701801.4744
     -2822.0334
  -5233259.92648  -4068410.51645  21765271.9354   21765270.7474
      1770.7554
 04  9 10 15 23 30.0010000  0  7G 1G20G11G14G19G22G25
  -5125160.72347  -3983186.18445  22042691.6774   22042691.3064
      1806.8624
  -1029748.23446   -799827.83242  24257378.5914   24257378.0014
      2584.6944
  -3523728.57049  -2738045.24245  21805794.3724   21805791.2984
       915.1334
   5286348.62149   4103090.99245  21807454.4194   21807452.7084
     -2602.8704
   6915353.09046   5367817.32842  24380455.7084   24380453.2314
     -3195.2964
   6204439.91448   4814686.93043  23709864.9814   23709863.3174
     -2824.3604
  -5259712.89548  -4089023.20745  21760237.5284   21760236.4584
      1763.5314
 04  9 10 15 23 45.0010000  0  7G 1G20G11G14G19G22G25
  -5152184.29748  -4004243.50045  22037549.4664   22037548.9034
      1801.5724
  -1068512.58646   -830033.81242  24250002.4974   24250000.3174
      2584.2904
  -3537328.81249  -2748642.84845  21803206.5994   21803203.7714
       906.6834
   5325448.62149   4133558.50445  21814894.9664   21814893.1424
     -2606.6674
   6963311.99245   5405187.85942  24389581.4424   24389579.4154
     -3197.2604
   6246841.12548   4847726.78142  23717934.0524   23717932.2354
     -2826.7474
  -5286056.14848  -4109550.39845  21755224.6614   21755223.8104
      1756.2174
 04  9 10 15 24  0.0010000  0  7G 1G20G11G14G19G22G25
  -5179129.16449  -4025239.48845  22032421.9504   22032421.6614
      1796.3244
  -1107271.50046   -860235.55542  24242626.8334   24242625.5214
      2583.9284
  -3550802.70749  -2759141.99645  21800642.4034   21800639.9974
       898.2604
   5364604.70749   4164069.71545  21822346.4034   21822344.3724
     -2610.4064
   7011299.37145   5442580.57442  24398713.3644   24398710.9114
     -3199.1594
   6289277.38748   4880793.95742  23726009.0284   23726007.3024
     -2829.0844
  -5312290.29349  -4129992.57045  21750232.5834   21750231.7164
      1748.9434
 04  9 10 15 24 15.0010000  0  7G 1G20G11G14G19G22G25
  -5205994.88749  -4046173.80145  22027309.3804   22027309.6144
      1791.0484
  -1146024.43746   -890432.65242  24235252.2944   24235250.8174
      2583.5294
  -3564149.75049  -2769542.29745  21798102.9034   21798100.0524
       889.8034
   5403816.99249   4194624.72745  21829808.1304   21829805.9704
     -2614.1524
   7059315.19145   5479995.43442  24407851.2784   24407848.2204
     -3201.0554
   6331749.11348   4913888.77043  23734091.6064   23734090.0484
     -2831.4484
  -5338414.59449  -4150349.16045  21745261.5134   21745260.0604
      1741.6204
 04  9 10 15 24 30.0010000  0  7G 1G20G11G14G19G22G25
  -5232780.93049  -4067046.03545  22022212.4034   22022212.0484
      1785.7364
  -1184770.76646   -920624.56641  24227878.9034   24227877.5284
      2583.0894
  -3577369.27749  -2779843.23445  21795587.0834   21795584.5054
       881.3024
   5443085.65649   4225223.66445  21837280.8494   21837278.7474
     -2617.9114
   7107359.43146   5517432.43042  24416993.4354   24416990.7984
     -3202.9494
   6374256.81348   4947011.60243  23742180.0054   23742178.8564
     -2833.8474
  -5364428.31249  -4170619.57445  21740310.6384   21740309.8684
      1734.2484
 04  9 10 15 24 45.0010000  0  7G 1G20G11G14G19G22G25
  -5259489.59448  -4087857.96545  22017129.6144   22017129.5954
      1780.5784
  -1223512.85946   -950813.18741  24220506.0834   24220504.4664
      2582.8064
  -3590463.54349  -2790046.56645  21793095.1464   21793092.6344
       872.9514
   5482408.18449   4255864.57045  21844763.4274   21844762.0794
     -2621.5024
   7155429.43046   5554889.55942  24426140.6224   24426139.1924
     -3204.6674
   6416798.04748   4980160.56642  23750275.7004   23750273.6774
     -2836.0824
  -5390333.60548  -4190805.49645  21735381.4504   21735380.3174
      1727.0204
 04  9 10 15 25  0.0010000  0  7G 1G20G11G14G19G22G25
  -5286119.15247  -4108608.26245  22012062.3254   22012061.6494
      1775.3044
  -1262248.79746   -980997.05142  24213135.1774   24213133.0634
      2582.3964
  -3603430.55949  -2800150.75045  21790627.9424   21790625.0794
       864.4684
   5521785.99249   4286548.55145  21852256.7474   21852255.1574
     -2625.1874
   7203526.52046   5592367.79342  24435293.2714   24435292.4234
     -3206.4734
   6459374.48048   5013336.94543  23758377.6064   23758376.1184
     -2838.4294
  -5416128.68048  -4210905.54745  21730472.5214   21730471.7514
      1719.6724
 04  9 10 15 25 15.0010000  0  7G 1G20G11G14G19G22G25
  -5312669.19547  -4129296.59845  22007009.9974   22007009.4464
      1770.0034
  -1300978.22746  -1011175.81242  24205765.3334   24205763.0604
      2581.9624
  -3616269.88349  -2810155.42245  21788184.5604   21788181.6534
       855.9554
   5561219.29749   4317275.77745  21859761.0284   21859759.1384
     -2628.8874
   7251650.86346   5629867.21942  24444451.4274   24444449.3134
     -3208.2904
   6501986.53148   5046541.08643  23766486.4274   23766484.3064
     -2840.8034
  -5441812.76248  -4230919.10245  21725585.2554   21725584.1384
      1712.2724
 04  9 10 15 25 30.0010000  0  6G 1G20G11G14G22G25
  -5339140.35547  -4149923.46145  22001972.6774   22001972.2674
      1764.7444
  -1339701.78546  -1041350.00042  24198396.2554   24198394.4784
      2581.5714
  -3628981.93449  -2820060.92645  21785765.1464   21785763.0604
       847.4704
   5600706.99649   4348045.40245  21867274.8724   21867273.2434
     -2632.5134
   6544633.50848   5079772.45743  23774601.6224   23774599.6964
     -2843.1324
  -5467386.37148  -4250846.58245  21720718.7554   21720717.7714
      1704.9074
 04  9 10 15 25 45.0010000  0  6G 1G20G11G14G22G25
  -5365533.56649  -4170489.60245  21996950.4814   21996949.6184
      1759.5474
  -1378420.27747  -1071520.25442  24191028.6534   24191026.7634
      2581.2334
  -3641567.59449  -2829867.93445  21783370.4114   21783368.3104
       839.0444
   5640248.00849   4378856.55545  21874799.4744   21874797.5714
     -2636.0674
   6587314.38348   5113030.23042  23782724.3334   23782721.8804
     -2845.3924
  -5492850.06649  -4270688.40645  21715873.2864   21715871.7714
      1697.5804
 04  9 10 15 26  0.0010000  0  6G 1G20G11G14G22G25
  -5391846.23049  -4190992.97345  21991943.0134   21991942.7244
      1754.1784
  -1417131.01647  -1101684.43042  24183661.9194   24183661.0174
      2580.7164
  -3654024.23049  -2839574.41445  21781000.0674   21780997.7434
       830.4424
   5679844.71549   4409711.11345  21882334.4894   21882332.4894
     -2639.7804
   6630031.52348   5146316.28142  23790853.2084   23790850.7744
     -2847.8094
  -5518201.18049  -4290442.51245  21711049.0674   21711047.4854
      1690.0744
 04  9 10 15 26 15.0010000  0  6G 1G20G11G14G22G25
  -5418078.16049  -4211433.41845  21986951.0214   21986950.7824
      1748.7954
  -1455833.93447  -1131842.55942  24176298.0364   24176295.7124
      2580.1954
  -3666351.50449  -2849180.08645  21778653.9354   21778651.7124
       821.8184
   5719496.91449   4440608.91045  21889879.7474   21889878.3844
     -2643.4804
   6672785.10548   5179630.72342  23798988.7714   23798986.8684
     -2850.2394
  -5543439.34449  -4310108.60245  21706246.4194   21706244.7004
      1682.5444
 04  9 10 15 26 30.0010000  0  6G 1G20G11G14G22G25
  -5444229.55548  -4231811.12545  21981975.2314   21981974.1494
      1743.4264
  -1494528.94547  -1161994.52042  24168934.4034   24168932.0284
      2579.6674
  -3678549.48049  -2858685.01245  21776333.0054   21776330.4784
       813.1984
   5759204.21549   4471549.64145  21897436.2864   21897434.5524
     -2647.1534
   6715575.11748   5212973.55142  23807131.7244   23807129.9314
     -2852.6674
  -5568564.53548  -4329686.65645  21701464.9114   21701463.7514
      1675.0134
 04  9 10 15 26 45.0010000  0  6G 1G20G11G14G22G25
  -5470300.44548  -4252126.08645  21977013.8644   21977013.3134
      1738.0594
  -1533216.03147  -1192140.28542  24161572.5994   24161570.7164
      2579.1394
  -3690617.93748  -2868089.00845  21774036.5284   21774034.0444
       804.5644
   5798966.22749   4502533.00045  21905002.7314   21905000.9424
     -2650.8014
   6758401.32848   5246344.54743  23815280.9744   23815279.3414
     -2855.0814
  -5593576.56648  -4349176.54745  21696705.6534   21696704.3724
      1667.4694
 04  9 10 15 27  0.0010000  0  6G 1G20G11G14G22G25
  -5496289.43748  -4272377.24645  21972068.4664   21972067.7744
      1732.5994
  -1571893.82047  -1222278.79742  24154212.1534   24154210.5954
      2578.5194
  -3702555.44949  -2877390.98045  21771765.0134   21771762.7674
       795.8344
   5838784.07449   4533559.86745  21912579.1854   21912577.9544
     -2654.5234
   6801265.05148   5279744.80143  23823437.8724   23823436.2124
     -2857.5824
  -5618473.86748  -4368577.00845  21691967.5754   21691966.2904
      1659.8204
 04  9 10 15 27 15.0010000  0  6G 1G20G11G14G22G25
  -5522197.68048  -4292565.47345  21967138.2784   21967137.5914
      1727.2164
  -1610563.40247  -1252410.93042  24146853.7474   24146852.1264
      2577.9724
  -3714363.10249  -2886591.75445  21769518.1534   21769515.6384
       787.1774
   5878656.36349   4564629.15245  21920167.3174   21920165.2944
     -2658.1534
   6844164.98448   5313173.28543  23831601.7244   23831599.4234
     -2859.9964
  -5643257.45749  -4387888.88345  21687251.7084   21687250.0524
      1652.2394
 04  9 10 15 27 30.0010000  0  6G 1G20G11G14G22G25
  -5548025.75048  -4312691.22745  21962223.1924   21962222.7244
      1721.8714
  -1649225.28947  -1282537.05542  24139496.2474   24139495.0954
      2577.4594
  -3726041.24649  -2895691.62145  21767295.7554   21767293.2204
       778.5434
   5918582.34049   4595740.27745  21927764.9354   21927762.9034
     -2661.7324
   6887100.57448   5346629.55143  23839771.8494   23839769.7554
     -2862.3734
  -5667927.66049  -4407112.40645  21682557.0604   21682555.3064
      1644.6804
 04  9 10 15 27 45.0010000  0  6G 1G20G11G14G22G25
  -5573773.59848  -4332754.48445  21957323.5604   21957322.9424
      1716.5234
  -1687879.35947  -1312657.12542  24132141.0834   24132139.5284
      2576.9384
  -3737589.77749  -2904690.49645  21765098.3964   21765095.7594
       769.9024
   5958561.79749   4626893.07845  21935372.8494   21935370.6224
     -2665.2974
   6930071.93448   5380113.70343  23847949.0444   23847947.4154
     -2864.7574
  -5692484.22349  -4426247.37545  21677884.2554   21677882.7354
      1637.1044
 04  9 10 15 28  0.0010000  0  6G 1G20G11G14G22G25
  -5599442.82448  -4352756.46945  21952438.8104   21952438.6224
      1711.2824
  -1726527.14547  -1342772.29342  24124786.1614   24124785.3994
      2576.5194
  -3749010.21548  -2913589.55545  21762925.4814   21762922.6494
       761.3624
   5998592.78149   4658086.03545  21942990.5054   21942988.3644
     -2668.7324
   6973077.32048   5413624.32443  23856132.7474   23856131.6534
     -2867.0264
  -5716928.62549  -4445294.94545  21673232.5674   21673230.8174
      1629.6274
 04  9 10 15 28 15.0010000  0  6G 1G20G11G14G22G25
  -5625033.55548  -4372697.29745  21947569.0834   21947569.0014
      1706.0494
  -1765168.68747  -1372882.58242  24117432.8804   24117431.9624
      2576.1034
  -3760302.52748  -2922388.76645  21760776.2784   21760773.6304
       752.8214
   6038674.92249   4689318.85545  21950617.5994   21950615.7674
     -2672.1434
   7016116.45748   5447161.26642  23864323.1694   23864320.7744
     -2869.2764
  -5741260.78149  -4464255.05545  21668602.3804   21668600.6384
      1622.1444
 04  9 10 15 28 30.0010000  0  6G 1G20G11G14G22G25
  -5650543.52748  -4392575.19145  21942714.6534   21942714.2434
      1700.6654
  -1803801.67647  -1402986.20342  24110081.8254   24110080.4154
      2575.5334
  -3771464.23449  -2931086.20345  21758652.1224   21758649.5054
       744.1144
   6078810.39549   4720593.22345  21958255.3964   21958253.2904
     -2675.6984
   7059191.63348   5480726.30142  23872519.4744   23872518.2594
     -2871.6784
  -5765478.17649  -4483125.73445  21663993.7474   21663992.1574
      1614.4934
 04  9 10 15 28 45.0010000  0  6G 1G20G11G14G22G25
  -5675973.22749  -4412390.53145  21937875.5284   21937874.9354
      1695.3134
  -1842426.64147  -1433083.59042  24102731.9664   24102729.3214
      2574.9984
  -3782495.88349  -2939682.30145  21756552.9424   21756550.1144
       735.4434
   6118998.18049   4751908.36345  21965902.6464   21965901.2634
     -2679.1864
   7102302.26648   5514318.92642  23880723.5284   23880721.9814
     -2874.0424
  -5789581.22349  -4501907.30545  21659406.8334   21659405.2944
      1606.8704
 04  9 10 15 29  0.0010000  0  6G 1G20G11G14G22G25
  -5701324.32047  -4432144.61745  21933051.3024   21933050.7244
      1690.0734
  -1881045.05147  -1463175.85942  24095383.2164   24095380.4704
      2574.5614
  -3793398.89548  -2948178.16845  21754478.0604   21754475.3214
       726.8674
   6159236.51249   4783262.87945  21973559.8884   21973558.5674
     -2682.5554
   7145446.68448   5547937.91042  23888933.6464   23888931.3994
     -2876.2954
  -5813571.38349  -4520600.90645  21654841.6614   21654840.3604
      1599.3444
 04  9 10 15 29 15.0010000  0  6G 1G20G11G14G22G25
  -5726594.40248  -4451835.57845  21928242.7004   21928242.1734
      1684.6724
  -1919654.43048  -1493261.09042  24088035.6924   24088033.3414
      2573.9594
  -3804170.85249  -2956571.90645  21752428.4584   21752425.9074
       718.1304
   6199527.40649   4814658.35545  21981227.2474   21981225.4854
     -2686.0604
   7188627.10548   5581584.94542  23897150.5524   23897149.2594
     -2878.6954
  -5837446.04749  -4539204.52045  21650298.5054   21650297.2634
      1591.6444
 04  9 10 15 29 30.0010000  0  6G 1G20G11G14G22G25
  -5751785.73048  -4471465.16445  21923448.8104   21923448.1534
      1679.4224
  -1958257.01247  -1523341.01642  24080690.2394   24080688.0324
      2573.5054
  -3814813.81649  -2964865.13345  21750403.1064   21750400.6964
       709.5314
   6239868.46149   4846092.91445  21988904.3104   21988901.6694
     -2689.4044
   7231841.26248   5615258.24242  23905374.0364   23905372.5834
     -2880.9444
  -5861207.13749  -4557719.64545  21645777.0134   21645775.3104
      1584.0734
 04  9 10 15 29 45.0010000  0  6G 1G20G11G14G22G25
  -5776896.03548  -4491031.62545  21918670.7164   21918670.1344
      1674.0204
  -1996850.57048  -1553413.90642  24073345.8644   24073344.1574
      2572.9044
  -3825325.53148  -2973056.09045  21748402.5134   21748400.3254
       700.7814
   6280261.57449   4877568.05545  21996590.4194   21996588.5214
     -2692.8744
   7275091.34448   5648959.55943  23913604.0214   23913602.1304
     -2883.3394
  -5884852.32849  -4576144.44546  21641277.0674   21641275.7204
      1576.3464
 04  9 10 15 30  0.0010000  0  6G 1G20G11G14G22G25
  -5801925.86348  -4510535.37145  21913907.6924   21913906.9624
      1668.6554
  -2035435.46147  -1583480.03542  24066003.1384   24066001.5094
      2572.3264
  -3835706.39149  -2981145.08245  21746427.1384   21746424.8804
       692.0574
   6320705.98449   4909083.15245  22004286.7394   22004285.4074
     -2696.2944
   7318376.79348   5682688.43042  23921841.7394   23921839.3334
     -2885.6974
  -5908381.97749  -4594479.21145  21636799.8104   21636798.4784
      1568.6434
 04  9 10 15 30 15.0010000  0  6G 1G20G11G14G22G25
  -5826875.80948  -4529976.87145  21909159.9354   21909159.7784
      1663.3304
  -2074012.18047  -1613539.81642  24058662.0834   24058660.1304
      2571.7814
  -3845957.04749  -2989132.60545  21744476.7714   21744473.8214
       683.3774
   6361200.79749   4940637.52745  22011992.4274   22011991.2354
     -2699.6544
   7361696.89548   5716444.29743  23930085.1384   23930083.2984
     -2888.0074
  -5931796.45349  -4612724.24245  21632343.9664   21632343.3064
      1560.9654
 04  9 10 15 30 30.0010000  0  6G 1G20G11G14G22G25
  -5851747.01648  -4549357.02745  21904426.8024   21904426.1574
      1658.0804
  -2112581.81247  -1643594.07042  24051322.6224   24051320.6104
      2571.3094
  -3856078.15249  -2997019.18445  21742550.5604   21742548.0324
       674.7404
   6401744.69949   4972230.15645  22019707.6384   22019706.4934
     -2702.9274
   7405050.52048   5750226.30543  23938335.4744   23938334.0994
     -2890.2424
  -5955096.78549  -4630880.33245  21627910.2714   21627909.0994
      1553.3554
 04  9 10 15 30 45.0010000  0  6G 1G20G11G14G22G25
  -5876538.50049  -4568675.05545  21899709.3024   21899708.6464
      1652.7664
  -2151143.32046  -1673641.99642  24043984.8724   24043982.8494
      2570.7674
  -3866068.80949  -3004804.11745  21740649.5994   21740646.7044
       666.0444
   6442338.45349   5003861.63345  22027432.3964   22027430.9074
     -2706.2504
   7448438.62548   5784035.16443  23946591.3564   23946590.4034
     -2892.5404
  -5978281.83649  -4648946.59445  21623498.2314   21623496.8214
      1545.6704
 04  9 10 15 31  0.0010000  0  6G 1G20G11G14G22G25
  -5901250.84448  -4587931.41445  21895006.6384   21895005.9584
      1647.4904
  -2189697.25846  -1703684.02742  24036648.0134   24036646.4114
      2570.2624
  -3875929.37949  -3012487.68745  21738773.0054   21738770.1424
       657.3714
   6482981.22749   5035531.30545  22035166.9584   22035164.4544
     -2709.5184
   7491860.60948   5817870.41843  23954854.5834   23954853.2394
     -2894.7994
  -6001351.73849  -4666923.12945  21619108.2714   21619107.0794
      1537.9934
 04  9 10 15 31 15.0010000  0  6G 1G20G11G14G22G25
  -5925883.86349  -4607125.95345  21890318.9584   21890318.6654
      1642.2014
  -2228243.34446  -1733719.92242  24029313.4194   24029311.1574
      2569.7394
  -3885659.62949  -3020069.70745  21736921.4194   21736918.9624
       648.6834
   6523672.76649   5067238.98045  22042909.8964   22042908.4814
     -2712.7694
   7535316.50848   5851732.09443  23963123.6924   23963122.1694
     -2897.0604
  -6024306.32849  -4684809.80946  21614739.7634   21614739.0054
      1530.3064
 04  9 10 15 31 30.0010000  0  6G 1G20G11G14G22G25
  -5950436.17649  -4626257.62545  21885647.2474   21885646.2824
      1636.8214
  -2266780.11746  -1763748.57442  24021979.8724   24021978.0214
      2569.1184
  -3895257.87949  -3027548.86745  21735094.8964   21735092.5244
       639.8834
   6564414.34449   5098985.64145  22050662.9114   22050661.0174
     -2716.1054
   7578807.67248   5885621.24243  23971400.1694   23971398.4034
     -2899.4114
  -6047144.07049  -4702605.44546  21610394.1924   21610393.1464
      1522.5164
 04  9 10 15 31 45.0010000  0  6G 1G20G11G14G22G25
  -5974909.23049  -4645327.53545  21880990.0364   21880989.5404
      1631.5374
  -2305308.90746  -1793770.93742  24014647.6924   24014646.2164
      2568.5864
  -3904725.81249  -3034926.48845  21733293.4034   21733290.7714
       631.1964
   6605204.19149   5130769.91445  22058424.8174   22058423.3174
     -2719.3234
   7622332.60548   5919536.73443  23979682.4114   23979680.6614
     -2901.6624
  -6069866.26249  -4720311.03146  21606070.5834   21606069.0714
      1514.8134
 04  9 10 15 32  0.0010000  0  6G 1G20G11G14G22G25
  -5999302.69149  -4664335.40245  21876347.6064   21876347.6694
      1626.2314
  -2343829.30146  -1823786.85942  24007317.4814   24007316.0524
      2568.0264
  -3914062.91449  -3042202.15245  21731516.5524   21731514.1774
       622.4734
   6646042.50449   5162591.95345  22066196.3644   22066194.5284
     -2722.5544
   7665891.60248   5953478.74243  23987971.5754   23987970.4424
     -2903.9334
  -6092472.34849  -4737926.16045  21601768.2394   21601767.2784
      1507.0724
 04  9 10 15 32 15.0010000  0  6G 1G20G11G14G22G25
  -6023616.03949  -4683280.85545  21871721.2714   21871720.5214
      1620.8904
  -2382340.79746  -1853795.77742  23999989.7394   23999987.4854
      2567.4334
  -3923268.42249  -3049375.28545  21729764.6304   21729761.8024
       613.7014
   6686929.39849   5194451.84845  22073976.8104   22073975.0364
     -2725.7934
   7709484.96948   5987447.55142  23996267.0674   23996265.3254
     -2906.2244
  -6114961.42649  -4755450.10246  21597489.0834   21597487.7284
      1499.2724
 04  9 10 15 32 30.0010000  0  6G 1G20G11G14G22G25
  -6047850.17249  -4702164.57045  21867109.3884   21867108.9424
      1615.6094
  -2420844.18046  -1883798.43042  23992661.7164   23992660.5054
      2566.8924
  -3932343.27049  -3056446.59445  21728037.8254   21728034.9784
       604.9904
   6727863.82449   5226348.78145  22081766.5994   22081763.8104
     -2728.9624
   7753111.94948   6021442.55143  24004569.4584   24004567.1654
     -2908.4654
  -6137334.34449  -4772883.54346  21593231.6614   21593230.1494
      1491.5284
 04  9 10 15 32 45.0010000  0  6G 1G20G11G14G22G25
  -6072004.09448  -4720985.79345  21862513.1854   21862512.4114
      1610.2614
  -2459338.27046  -1913793.79342  23985337.0674   23985335.4154
      2566.2734
  -3941286.22748  -3063415.14545  21726336.2394   21726333.2634
       596.1974
   6768846.52349   5258283.32445  22089564.9974   22089562.9114
     -2732.1804
   7796773.40248   6055464.39143  24012877.3564   24012876.2784
     -2910.7644
  -6159589.86349  -4790225.49646  21588996.8174   21588995.2284
      1483.7014
 04  9 10 15 33  0.0010000  0  6G 1G20G11G14G22G25
  -6096077.72748  -4739744.46145  21857932.0284   21857931.2784
      1604.9094
  -2497822.96547  -1943781.84842  23978014.0444   23978011.7784
      2565.6464
  -3950097.20749  -3070280.85245  21724659.2554   21724656.6884
       587.3994
   6809877.28149   5290255.32045  22097373.0524   22097371.5874
     -2735.3844
   7840469.42247   6089513.17242  24021192.4114   24021191.7984
     -2913.0684
  -6181727.69549  -4807475.75046  21584783.5284   21584782.4624
      1475.8554
 04  9 10 15 33 15.0010000  0  6G 1G20G11G14G22G25
  -6120072.41048  -4758441.59445  21853365.9814   21853365.5174
      1599.6464
  -2536299.44546  -1973763.53542  23970691.4114   23970690.0954
      2565.0994
  -3958777.35949  -3077044.61745  21723007.4274   21723004.9814
       578.6774
   6850954.55149   5322263.55945  22105189.6224   22105188.2634
     -2738.4854
   7884198.63747   6123587.81643  24029513.4664   24029512.8024
     -2915.2814
  -6203749.10549  -4824635.27346  21580593.1534   21580591.8174
      1468.0944
 04  9 10 15 33 30.0010000  0  6G 1G20G11G14G22G25
  -6143986.66848  -4777076.07045  21848815.5994   21848814.6104
      1594.2844
  -2574766.19547  -2003737.60542  23963371.5444   23963369.9234
      2564.4504
  -3967325.05949  -3083705.16845  21721381.1614   21721378.3374
       569.8474
   6892079.64549   5354309.06345  22113015.5674   22113013.9854
     -2741.6734
   7927962.39547   6157689.40243  24037842.3174   24037841.3134
     -2917.5844
  -6225652.43749  -4841702.79346  21576425.2864   21576423.8644
      1460.2224
 04  9 10 15 33 45.0010000  0  6G 1G20G11G14G22G25
  -6167822.16448  -4795649.16045  21844279.4974   21844278.9234
      1589.0334
  -2613224.87146  -2033705.39842  23956053.1614   23956051.4384
      2563.9124
  -3975742.00448  -3090263.83645  21719779.4664   21719777.1304
       561.1304
   6933250.54749   5386390.26244  22120850.4894   22120848.9274
     -2744.7274
   7971758.94547   6191816.50042  24046176.2554   24046175.4384
     -2919.7704
  -6247439.30549  -4858679.56245  21572279.2864   21572277.7354
      1452.4584
 04  9 10 15 34  0.0010000  0  6G 1G20G11G14G22G25
  -6191577.82048  -4814160.05145  21839758.9194   21839758.6304
      1583.7104
  -2651674.27347  -2063665.96542  23948736.7474   23948734.8494
      2563.2934
  -3984026.94949  -3096719.64145  21718202.9974   21718200.2474
       552.3304
   6974468.09049   5418507.80545  22128693.6614   22128691.8414
     -2747.8364
   8015589.30947   6225969.98042  24054516.6224   24054515.3104
     -2922.0244
  -6269108.31649  -4875564.49246  21568155.8724   21568154.0874
      1444.6014
 04  9 10 15 34 15.0010000  0  6G 1G20G11G14G22G25
  -6215253.33648  -4832608.48845  21835253.6464   21835253.2514
      1578.3684
  -2690113.96946  -2093618.95742  23941421.5364   23941420.0324
      2562.6464
  -3992179.52049  -3103072.28945  21716651.7314   21716648.7554
       543.5054
   7015732.35249   5450661.75044  22136546.1924   22136544.2674
     -2750.9514
   8059453.83647   6260150.08242  24062864.2084   24062862.8414
     -2924.3024
  -6290658.84449  -4892357.10546  21564054.6384   21564053.4154
      1436.7024
 04  9 10 15 34 30.0010000  0  6G 1G20G11G14G22G25
  -6238851.57848  -4850996.71145  21830762.8804   21830762.2594
      1573.2164
  -2728546.75446  -2123566.57842  23934108.2714   23934107.0994
      2562.1864
  -4000202.41449  -3109323.90245  21715125.3644   21715122.2434
       534.8604
   7057040.28549   5482849.72745  22144406.5524   22144404.4034
     -2753.8624
   8103349.66047   6294354.55542  24071217.1774   24071216.1614
     -2926.3884
  -6312093.60249  -4909059.49646  21559975.7944   21559974.5754
      1428.9844
 04  9 10 15 34 45.0010000  0  6G 1G20G11G14G22G25
  -6262369.02048  -4869321.96945  21826288.0364   21826287.2434
      1567.8294
  -2766968.99646  -2153505.98042  23926796.7004   23926794.7944
      2561.4834
  -4008092.11749  -3115471.73445  21713623.5284   21713620.1694
       525.9804
   7098395.17249   5515074.28944  22152276.4744   22152273.8684
     -2756.9924
   8147280.12947   6328586.00842  24079576.7784   24079575.7354
     -2928.6984
  -6333408.97349  -4925668.86345  21555919.6924   21555918.2474
      1421.0254
 04  9 10 15 35  0.0010000  0  6G 1G20G11G14G22G25
  -6285808.25448  -4887586.28545  21821827.3104   21821826.6964
      1562.6164
  -2805383.22346  -2183439.15642  23919487.1694   23919484.4584
      2560.9484
  -4015851.00848  -3121517.62145  21712147.0444   21712144.3724
       517.2594
   7139794.10549   5547333.17244  22160154.5604   22160152.1464
     -2759.9294
   8191242.70747   6362842.48842  24087943.1144   24087942.0874
     -2930.8394
  -6354607.40649  -4942187.10946  21551885.7714   21551884.3924
      1413.2294
 04  9 10 15 35 15.0010000  0  6G 1G20G11G14G22G25
  -6309167.71549  -4905788.43445  21817382.3104   21817381.6654
      1557.2974
  -2843787.64147  -2213364.64842  23912178.9274   23912176.5874
      2560.2954
  -4023477.45749  -3127460.32045  21710695.6384   21710693.0524
       508.4304
   7181238.43049   5579627.43445  22168041.0994   22168038.8684
     -2762.9554
   8235238.82048   6397125.11742  24096315.7634   24096313.9274
     -2933.0744
  -6375687.16049  -4958612.87946  21547874.7394   21547873.0404
      1405.3174
 04  9 10 15 35 30.0010000  0  6G 1G20G11G14G22G25
  -6332447.36348  -4923928.39845  21812952.7004   21812951.5484
      1551.9774
  -2882182.35947  -2243282.60542  23904872.1144   23904870.1264
      2559.6484
  -4030971.41049  -3133299.77345  21709269.6854   21709267.0674
       499.5974
   7222727.95349   5611956.91844  22175935.9354   22175934.4854
     -2765.9684
   8279268.45747   6431433.89143  24104693.5214   24104693.0174
     -2935.3094
  -6396648.01649  -4974946.00046  21543885.8804   21543884.4624
      1397.3904
 04  9 10 15 35 45.0010000  0  6G 1G20G11G14G22G25
  -6355646.47749  -4942005.60945  21808537.6694   21808536.6304
      1546.6084
  -2920566.44147  -2273192.27042  23897568.1924   23897566.2824
      2558.9394
  -4038331.96949  -3139035.27745  21707868.8564   21707866.2044
       490.7044
   7264263.17249   5644321.98444  22183839.7864   22183838.3534
     -2769.0154
   8323332.35547   6465769.33642  24113078.7244   24113077.5014
     -2937.5934
  -6417489.00049  -4991185.72346  21539919.7474   21539918.2284
      1389.3994
 04  9 10 15 36  0.0010000  0  6G 1G20G11G14G22G25
  -6378766.25848  -4960021.00845  21804138.0674   21804137.3334
      1541.3194
  -2958941.00447  -2303094.54342  23890266.1694   23890263.9664
      2558.3044
  -4045560.10249  -3144667.59045  21706493.3804   21706490.6494
       481.8764
   7305842.67249   5676721.57844  22191752.4974   22191750.7434
     -2771.9674
   8367429.22348   6500130.48842  24121470.7944   24121468.3534
     -2939.7914
  -6438211.32849  -5007332.96946  21535976.1304   21535974.3804
      1381.4894
 04  9 10 15 36 15.0010000  0  6G 1G20G11G14G22G25
  -6401806.77349  -4977974.63745  21799753.7394   21799752.9744
      1536.0344
  -2997305.98847  -2332989.31642  23882965.0444   23882963.4234
      2557.6664
  -4052655.91049  -3150196.80945  21705143.0054   21705140.5014
       473.0544
   7347466.13749   5709155.41445  22199673.4664   22199671.5054
     -2774.8984
   8411558.97748   6534517.27342  24129868.4584   24129866.8724
     -2941.9844
  -6458814.69949  -5023387.53546  21532055.7084   21532054.4664
      1373.5584
 04  9 10 15 36 30.0010000  0  6G 1G20G11G14G22G25
  -6424768.02049  -4995866.49645  21795384.0444   21795383.7514
      1530.7504
  -3035661.28947  -2362876.55542  23875666.0364   23875664.7394
      2557.0204
  -4059619.27749  -3155622.81645  21703818.3024   21703815.4934
       464.2244
   7389133.32049   5741623.33244  22207601.9194   22207600.4504
     -2777.8124
   8455721.57047   6568929.62542  24138272.1854   24138270.7594
     -2944.1734
  -6479299.00049  -5039349.31246  21528157.5604   21528155.8884
      1365.6204
 04  9 10 15 36 45.0010000  0  6G 1G20G11G14G22G25
  -6447649.62949  -5013696.30545  21791029.9974   21791029.1304
      1525.4414
  -3074006.49647  -2392755.92242  23868369.6534   23868367.8764
      2556.3474
  -4066449.78949  -3160945.30145  21702518.4274   21702515.5994
       455.3674
   7430844.37949   5774125.43444  22215539.4114   22215538.1814
     -2780.7374
   8499917.25847   6603367.76642  24146682.2714   24146680.5284
     -2946.3794
  -6499663.69149  -5055217.89146  21524282.7084   21524281.0914
      1357.6464
 04  9 10 15 37  0.0010000  0  6G 1G20G11G14G22G25
  -6470450.79349  -5031463.43445  21786691.2784   21786690.0954
      1520.0784
  -3112340.61747  -2422626.68442  23861074.6694   23861072.9704
      2555.6084
  -4073146.51649  -3166163.53945  21701243.8334   21701241.2284
       446.4484
   7472599.84049   5806662.12945  22223485.3724   22223483.4354
     -2783.6974
   8544146.84847   6637832.32442  24155098.7474   24155097.7514
     -2948.6394
  -6519907.78949  -5070992.49646  21520430.0914   21520428.7044
      1349.6074
 04  9 10 15 37 15.0010000  0  6G 1G20G11G14G22G25
  -6493171.74249  -5049168.05145  21782367.4424   21782366.5754
      1514.7304
  -3150663.85247  -2452488.93442  23853782.0834   23853780.5444
      2554.8824
  -4079709.62549  -3171277.66045  21699994.9034   21699992.5174
       437.5414
   7514399.27049   5839233.09844  22231439.4744   22231437.8644
     -2786.6294
   8588410.19948   6672323.17642  24163521.8174   24163520.9584
     -2950.8904
  -6540031.28949  -5086673.13346  21516600.7004   21516599.5954
      1341.5674
 04  9 10 15 37 30.0010000  0  6G 1G20G11G14G22G25
  -6515813.28149  -5066810.78945  21778058.7864   21778057.8604
      1509.4364
  -3188976.99647  -2482343.34442  23846491.2084   23846489.6064
      2554.2104
  -4086139.77349  -3176288.17645  21698771.2394   21698768.7594
       428.6774
   7556241.62949   5871837.50845  22239401.8254   22239400.1854
     -2789.4914
   8632706.26247   6706839.54742  24171951.2004   24171949.4034
     -2953.0714
  -6560035.02749  -5102260.44946  21512793.9114   21512792.8334
      1333.5834
 04  9 10 15 37 45.0010000  0  6G 1G20G11G14G22G25
  -6538374.84449  -5084391.21945  21773765.2634   21773764.1344
      1504.1044
  -3227279.36347  -2512189.32442  23839202.7864   23839200.4624
      2553.4914
  -4092436.37549  -3181194.62545  21697573.1854   21697570.5174
       419.7734
   7598127.23849   5904475.62144  22247372.6224   22247370.9974
     -2792.3744
   8677035.47748   6741381.74242  24180386.4894   24180385.1814
     -2955.2814
  -6579918.18749  -5117753.80946  21509010.2084   21509009.0564
      1325.5444
 04  9 10 15 38  0.0010000  0  6G 1G20G11G14G22G25
  -6560855.41849  -5101908.53945  21769487.3724   21769486.1774
      1498.7054
  -3265569.77047  -2542026.00042  23831916.1144   23831914.2714
      2552.6944
  -4098598.27049  -3185996.11345  21696400.4034   21696397.6924
       410.7934
   7640056.75849   5937147.94944  22255351.4584   22255349.5914
     -2795.3014
   8721398.86747   6775950.58242  24188828.0364   24188827.6344
     -2957.5594
  -6599679.50049  -5133152.22746  21505249.9814   21505248.5524
      1317.4214
 04  9 10 15 38 15.0010000  0  6G 1G20G11G14G22G25
  -6583257.25049  -5119364.50445  21765224.6774   21765223.3494
      1493.4554
  -3303850.32847  -2571855.00842  23824631.4814   23824629.4234
      2552.0374
  -4104627.57449  -3190694.28145  21695253.1064   21695250.6964
       401.9544
   7682027.85249   5969852.67644  22263338.4034   22263336.3804
     -2798.0734
   8765794.22748   6810544.31642  24197276.6614   24197275.5874
     -2959.6914
  -6619321.14849  -5148457.39146  21501512.2634   21501510.7904
      1309.4434
 04  9 10 15 38 30.0010000  0  6G 1G20G11G14G22G25
  -6605581.09449  -5136759.68445  21760976.3024   21760976.0794
      1488.2564
  -3342121.68047  -2601676.84842  23817348.8724   23817346.2674
      2551.4234
  -4110525.09849  -3195289.77045  21694131.3564   21694128.4584
       393.1684
   7724039.48048   6002588.98844  22271332.7554   22271330.9314
     -2800.7754
   8810220.77347   6845162.37142  24205731.1694   24205730.0674
     -2961.7704
  -6638843.65649  -5163669.72346  21497797.3024   21497795.9194
      1301.5014
 04  9 10 15 38 45.0010000  0  6G 1G20G11G14G22G25
  -6627824.63349  -5154092.30145  21756743.5674   21756743.0874
      1482.9034
  -3380381.45748  -2631489.66042  23810068.1384   23810066.1224
      2550.6524
  -4116288.34049  -3199780.61745  21693034.6304   21693031.7634
       384.2164
   7766093.87949   6035358.62544  22279335.5604   22279333.8604
     -2803.6274
   8854680.72747   6879806.41842  24214191.8024   24214191.7004
     -2963.9974
  -6658244.47749  -5178787.23446  21494105.3254   21494104.0994
      1293.3884
 04  9 10 15 39  0.0010000  0  6G 1G20G11G14G22G25
  -6649988.19149  -5171362.58645  21752525.9744   21752525.3134
      1477.5714
  -3418629.82848  -2661293.59442  23802789.9664   23802787.6224
      2549.8914
  -4121917.55149  -3204167.02045  21691963.3804   21691960.7084
       375.2814
   7808190.41848   6068161.08244  22287346.1614   22287344.8104
     -2806.4364
   8899173.84848   6914476.33642  24222658.5604   24222659.1964
     -2966.2084
  -6677523.77049  -5193810.05546  21490436.8964   21490435.4114
      1285.2864
 04  9 10 15 39 15.0010000  0  6G 1G20G11G14G22G25
  -6672071.27049  -5188570.15245  21748323.5914   21748322.9354
      1472.2054
  -3456866.23447  -2691088.18442  23795513.5604   23795511.5284
      2549.0944
  -4127412.12549  -3208448.51245  21690917.8494   21690915.2634
       366.3054
   7850329.37949   6100996.61744  22295365.4974   22295363.8134
     -2809.2644
   8943700.46547   6949172.36342  24231131.6464   24231130.2004
     -2968.4414
  -6696680.92649  -5208737.69546  21486791.1614   21486789.7904
      1277.1444
 04  9 10 15 39 30.0010000  0  6G 1G20G11G14G22G25
  -6694075.72749  -5205716.46145  21744136.6384   21744135.6184
      1466.9644
  -3495092.41047  -2720874.81242  23788239.1774   23788237.3684
      2548.4124
  -4132773.75049  -3212626.41045  21689897.5054   21689895.2284
       357.4424
   7892508.60548   6133863.53145  22303391.7394   22303389.5714
     -2811.9484
   8988258.77048   6983893.05542  24239610.5754   24239609.9274
     -2970.5544
  -6715717.63349  -5223571.48446  21483168.5604   21483167.1494
      1269.1144
 04  9 10 15 39 45.0010000  0  6G 1G20G11G14G22G25
  -6715998.37149  -5222799.00445  21739964.6924   21739963.9034
      1461.5104
  -3533305.09847  -2750650.91042  23780967.1224   23780965.2634
      2547.5124
  -4137999.09449  -3216698.11345  21688902.9974   21688900.4194
       348.3564
   7934731.04749   6166764.09444  22311426.1224   22311424.5604
     -2814.8294
   9032851.67248   7018640.71942  24248096.6144   24248095.7354
     -2972.8604
  -6734630.48849  -5238308.76246  21479569.2084   21479568.4854
      1260.8574
 04  9 10 15 40  0.0010000  0  6G 1G20G11G14G22G25
  -6737840.86349  -5239819.10245  21735808.3104   21735807.5914
      1456.1664
  -3571505.67247  -2780417.58242  23773698.2394   23773696.1774
      2546.7054
  -4143089.93749  -3220665.01245  21687934.1924   21687931.7244
       339.3904
   7976994.96948   6199697.00044  22319468.5054   22319466.7904
     -2817.5954
   9077477.66048   7053414.18442  24256589.2084   24256588.3564
     -2975.0664
  -6753420.86349  -5252950.60545  21475993.9814   21475992.2784
      1252.6924
 04  9 10 15 40 15.0010000  0  6G 1G20G11G14G22G25
  -6759604.00449  -5256777.37145  21731667.0834   21731665.8254
      1450.8764
  -3609694.88347  -2810175.39842  23766430.8884   23766428.9354
      2545.9474
  -4148047.02749  -3224527.69145  21686991.0444   21686988.3964
       330.4734
   8019299.34448   6232661.42244  22327518.9814   22327516.7904
     -2820.2924
   9122135.98048   7088212.79742  24265086.9814   24265086.4194
     -2977.2214
  -6772089.58649  -5267497.66046  21472441.7004   21472439.9314
      1244.5824
 04  9 10 15 40 30.0010000  0  6G 1G20G11G14G22G25
  -6781286.67249  -5273672.93445  21727540.5754   21727539.8374
      1445.5114
  -3647871.53947  -2839923.42242  23759166.2084   23759164.5714
      2545.1104
  -4152868.94149  -3228285.03545  21686073.1614   21686070.8494
       321.4614
   8061645.10948   6265658.09844  22335577.0134   22335575.3454
     -2823.0514
   9166827.59448   7123037.39842  24273591.7164   24273591.6064
     -2979.4414
  -6790635.37149  -5281948.91446  21468912.1694   21468910.5134
      1236.3864
 04  9 10 15 40 45.0010000  0  6G 1G20G11G14G22G25
  -6802888.87949  -5290505.81245  21723429.7164   21723429.1264
      1440.1474
  -3686035.55547  -2869661.60542  23751903.7164   23751902.5834
      2544.2684
  -4157555.71149  -3231937.06645  21685181.4354   21685179.1224
       312.4514
   8104031.93848   6298686.76244  22343642.8964   22343640.8644
     -2825.7894
   9211552.43448   7157887.88742  24282102.6064   24282100.9234
     -2981.6564
  -6809058.09849  -5296304.27746  21465406.5054   21465405.0954
      1228.1824
 04  9 10 15 41  0.0010000  0  6G 1G20G11G14G22G25
  -6824410.52749  -5307275.91045  21719334.9664   21719333.7984
      1434.7774
  -3724186.73847  -2899389.80542  23744644.5524   23744641.7354
      2543.4124
  -4162107.19149  -3235483.67245  21684315.1224   21684313.0564
       303.4324
   8146459.68448   6331747.30544  22351716.8334   22351715.1694
     -2828.5164
   9256310.60248   7192764.33642  24290620.2004   24290617.7354
     -2983.8784
  -6827357.44949  -5310563.50846  21461924.2944   21461922.9464
      1219.9574
 04  9 10 15 41 15.0010000  0  6G 1G20G11G14G22G25
  -6845851.24249  -5323982.93745  21715254.4664   21715253.5444
      1429.3814
  -3762324.65247  -2929107.64842  23737386.1224   23737384.5324
      2542.5284
  -4166522.90249  -3238924.49245  21683474.9894   21683472.6184
       294.3814
   8188928.45348   6364839.83244  22359798.4354   22359796.4274
     -2831.2514
   9301102.46148   7227667.02742  24299143.2084   24299142.0674
     -2986.1244
  -6845532.94149  -5324726.21946  21458465.4814   21458464.1034
      1211.6994
 04  9 10 15 41 30.0010000  0  6G 1G20G11G14G22G25
  -6867212.58249  -5340628.12545  21711189.8494   21711188.8104
      1424.0894
  -3800450.63747  -2958816.18442  23730130.7004   23730129.3064
      2541.7324
  -4170804.35249  -3242260.69145  21682660.2554   21682657.8844
       285.4304
   8231436.52048   6397962.97344  22367887.5214   22367885.4274
     -2833.8714
   9345926.30148   7262594.65642  24307673.5214   24307672.2674
     -2988.2564
  -6863585.91449  -5338793.46946  21455030.4664   21455028.3724
      1203.5324
 04  9 10 15 41 45.0010000  0  6G 1G20G11G14G22G25
  -6888494.38749  -5357211.34045  21707139.7634   21707138.9274
      1418.7874
  -3838564.37947  -2988515.21142  23722877.9114   23722876.4384
      2540.9164
  -4174951.15249  -3245491.97345  21681871.3414   21681868.6734
       276.4534
   8273983.91848   6431116.78944  22375983.6384   22375982.0914
     -2836.4934
   9390782.32848   7297547.34043  24316209.2244   24316208.1574
     -2990.4024
  -6881516.03149  -5352764.98046  21451618.7474   21451616.8924
      1195.3414
 04  9 10 15 42  0.0010000  0  6G 1G20G11G14G22G25
  -6909696.08649  -5373732.12545  21703105.0444   21703104.4274
      1413.4474
  -3876665.21147  -3018204.16842  23715627.6224   23715626.5484
      2540.0554
  -4178962.83249  -3248617.96945  21681107.8964   21681105.5444
       267.4454
   8316571.01248   6464301.50844  22384087.7784   22384086.4784
     -2839.1404
   9435671.03948   7332525.50043  24324750.9034   24324750.8684
     -2992.5814
  -6899322.50449  -5366640.14846  21448229.8174   21448227.9814
      1187.0984
 04  9 10 15 42 15.0010000  0  6G 1G20G11G14G22G25
  -6930820.14849  -5390192.40645  21699085.0914   21699084.4544
      1408.2714
  -3914755.63347  -3047885.01242  23708379.5364   23708378.2244
      2539.3614
  -4182841.65649  -3251640.43445  21680369.5674   21680367.5484
       258.5884
   8359195.04348   6497515.00044  22392198.6854   22392197.7164
     -2841.6024
   9480590.02747   7367527.26642  24333299.1534   24333298.7674
     -2994.5994
  -6917007.62949  -5380420.75846  21444864.2164   21444862.7084
      1179.0084
 04  9 10 15 42 30.0010000  0  6G 1G20G11G14G22G25
  -6951864.12149  -5406590.30145  21695080.8024   21695079.9194
      1402.9324
  -3952832.86747  -3077555.58642  23701133.8254   23701132.3604
      2538.4824
  -4186584.93049  -3254557.27745  21679657.4194   21679655.2944
       249.5524
   8401858.30548   6530759.07444  22400317.4814   22400316.2314
     -2844.2174
   9525541.58647   7402554.38342  24341853.0364   24341853.0674
     -2996.7714
  -6934568.94549  -5394104.89846  21441522.3254   21441521.0404
      1170.7544
 04  9 10 15 42 45.0010000  0  6G 1G20G11G14G22G25
  -6972827.87149  -5422925.67245  21691091.2394   21691090.6494
      1397.5834
  -3990896.62947  -3107215.65242  23693891.1224   23693889.3024
      2537.5844
  -4190192.68449  -3257368.52345  21678970.9664   21678968.4114
       240.5174
   8444560.66448   6564033.61744  22408443.5364   22408441.9384
     -2846.8244
   9570525.85547   7437607.02042  24350413.5284   24350412.7714
     -2998.9514
  -6952006.16849  -5407692.34046  21438204.3644   21438203.2204
      1162.4824
 04  9 10 15 43  0.0010000  0  6G 1G20G11G14G22G25
  -6993712.10549  -5439199.08245  21687117.2314   21687116.6344
      1392.2824
  -4028947.65247  -3136865.76642  23686649.5754   23686647.8104
      2536.7354
  -4193665.69149  -3260074.77045  21678310.0834   21678307.8724
       231.5344
   8487301.18848   6597337.89144  22416577.3414   22416574.8174
     -2849.3684
   9615542.06647   7472684.55542  24358979.4664   24358978.6614
     -3001.0814
  -6969319.75049  -5421183.43746  21434909.8414   21434908.3494
      1154.2394
 04  9 10 15 43 15.0010000  0  6G 1G20G11G14G22G25
  -7014516.95349  -5455410.64145  21683158.4584   21683157.7944
      1386.9904
  -4066986.00447  -3166506.01242  23679411.4974   23679409.7824
      2535.8904
  -4197003.83649  -3262675.93445  21677674.9114   21677672.2434
       222.5434
   8530079.57848   6630671.67244  22424717.3104   22424715.3724
     -2851.8934
   9660590.05547   7507786.85942  24367551.7244   24367550.8494
     -3003.1994
  -6986509.56649  -5434578.09846  21431638.6384   21431637.1884
      1145.9884
 04  9 10 15 43 30.0010000  0  6G 1G20G11G14G22G25
  -7035241.97349  -5471559.97745  21679214.2474   21679213.6924
      1381.6684
  -4105010.96948  -3196135.82842  23672175.7944   23672173.9584
      2534.9984
  -4200206.52349  -3265171.54345  21677065.2784   21677062.8604
       213.5124
   8572896.09848   6664035.16844  22432865.4894   22432863.0214
     -2854.4354
   9705670.29347   7542914.26642  24376130.0134   24376129.7554
     -3005.3494
  -7003575.16049  -5447875.95746  21428391.1144   21428389.5134
      1137.7064
 04  9 10 15 43 45.0010000  0  6G 1G20G11G14G22G25
  -7055887.24649  -5487647.19145  21675285.8804   21675285.0014
      1376.3524
  -4143022.50848  -3225755.23042  23664942.2084   23664940.3334
      2534.1034
  -4203273.86349  -3267561.68445  21676481.7864   21676479.3104
       204.4894
   8615750.39848   6697428.10944  22441019.8804   22441018.5634
     -2856.9534
   9750782.52047   7578066.59842  24384714.9664   24384714.6304
     -3007.4824
  -7020516.45349  -5461076.96546  21425167.5444   21425165.4784
      1129.4204
 04  9 10 15 44  0.0010000  0  6G 1G20G11G14G22G25
  -7076452.73449  -5503672.22745  21671372.3334   21671371.7474
      1371.0334
  -4181020.46148  -3255364.02342  23657711.0364   23657709.4274
      2533.1974
  -4206205.75449  -3269846.27745  21675923.6614   21675921.0634
       195.4594
   8658642.37548   6730850.39544  22449182.0054   22449180.2004
     -2859.4654
   9795926.85547   7613243.93442  24393306.1614   24393305.1614
     -3009.6224
  -7037333.21549  -5474180.92246  21421967.1384   21421965.5484
      1121.1174
 04  9 10 15 44 15.0010000  0  6G 1G20G11G14G22G25
  -7096936.73049  -5519633.78145  21667474.1694   21667473.3174
      1365.6004
  -4219003.09848  -3284960.87142  23650483.7554   23650481.5874
      2532.1764
  -4209000.47749  -3272024.00445  21675391.7554   21675389.1964
       186.3154
   8701573.53148   6764303.21144  22457351.6384   22457350.5794
     -2862.0774
   9841104.89547   7648447.55542  24401903.2554   24401902.1064
     -3011.8694
  -7054023.71549  -5487186.50046  21418790.7944   21418789.9034
      1112.7004
 04  9 10 15 44 30.0010000  0  6G 1G20G11G14G22G25
  -7117342.73049  -5535534.54345  21663590.8414   21663590.2744
      1360.4004
  -4256973.75848  -3314548.41043  23643258.0754   23643256.3064
      2531.3774
  -4211661.25449  -3274097.33645  21674885.5834   21674883.4624
       177.3854
   8744540.12147   6797783.64844  22465528.0754   22465526.5834
     -2864.4394
   9886313.14547   7683674.70342  24410504.8414   24410504.2124
     -3013.8834
  -7070591.21549  -5500096.24246  21415638.3414   21415637.0244
      1104.5004
 04  9 10 15 44 45.0010000  0  6G 1G20G11G14G22G25
  -7137665.98849  -5551370.83645  21659723.8884   21659723.2944
      1354.8844
  -4294927.44548  -3344122.69543  23636035.6774   23636034.5364
      2530.2464
  -4214183.28548  -3276062.57045  21674405.8024   21674403.1224
       168.1354
   8787546.68447   6831295.22344  22473711.7634   22473710.4814
     -2867.1044
   9931556.40247   7718929.13342  24419114.7554   24419114.0754
     -3016.2174
  -7087030.84448  -5512906.33246  21412509.9744   21412508.9114
      1095.9754
 04  9 10 15 45  0.0010000  0  6G 1G20G11G14G22G25
  -7157909.66049  -5567145.11745  21655871.4504   21655870.8764
      1349.5784
  -4332867.18448  -3373686.12542  23628816.1224   23628814.1104
      2529.3164
  -4216569.68749  -3277922.10945  21673951.7164   21673948.9114
       159.0934
   8830589.93848   6864835.39144  22481903.2164   22481901.3684
     -2869.5504
   9976831.43847   7754208.33242  24427730.4274   24427729.6494
     -3018.3364
  -7103345.52349  -5525619.05946  21409405.1924   21409404.1224
      1087.6454
 04  9 10 15 45 15.0010000  0  6G 1G20G11G14G22G25
  -7178073.87949  -5582857.47745  21652034.3174   21652034.1104
      1344.2814
  -4370793.11348  -3403238.80542  23621599.2554   23621596.6384
      2528.3954
  -4218820.65249  -3279676.11745  21673522.9584   21673520.8604
       150.0644
   8873669.51248   6898403.87544  22490101.1614   22490099.3964
     -2871.9724
  10022137.93447   7789512.03942  24436352.5134   24436350.7744
     -3020.4334
  -7119535.22749  -5538234.41446  21406324.7714   21406323.2434
      1079.3144
 04  9 10 15 45 30.0010000  0  6G 1G20G11G14G22G25
  -7198158.84049  -5598508.07845  21648212.5364   21648212.1774
      1338.9974
  -4408705.22748  -3432780.70742  23614384.3334   23614382.3964
      2527.4744
  -4220936.31249  -3281324.69545  21673120.6534   21673118.6464
       141.0444
   8916784.88748   6932000.24244  22498305.5444   22498303.8334
     -2874.3584
  10067475.73447   7824840.16442  24444979.7714   24444979.0094
     -3022.5204
  -7135599.96149  -5550752.37546  21403267.4114   21403266.0054
      1070.9824
 04  9 10 15 45 45.0010000  0  6G 1G20G11G14G22G25
  -7218163.10549  -5614095.80545  21644405.6924   21644404.9664
      1333.6184
  -4446602.03548  -3462310.69142  23607173.1854   23607171.1384
      2526.4544
  -4222914.97749  -3282866.51245  21672744.0444   21672741.4624
       131.9114
   8959937.38348   6965625.53144  22506516.9974   22506515.0794
     -2876.8334
  10112846.25447   7860193.75842  24453613.8494   24453612.6424
     -3024.7014
  -7151538.28149  -5563171.84846  21400234.6694   21400233.0604
      1062.5554
 04  9 10 15 46  0.0010000  0  6G 1G20G11G14G22G25
  -7238087.25049  -5629621.09845  21640614.3804   21640613.2084
      1328.2764
  -4484483.82448  -3491828.95342  23599964.6144   23599962.3134
      2525.4534
  -4224757.14849  -3284301.98045  21672393.5914   21672390.8064
       122.8114
   9003126.30948   6999279.21544  22514735.7554   22514734.1964
     -2879.2624
  10158248.93047   7895572.43042  24462253.3174   24462252.5834
     -3026.8454
  -7167350.53149  -5575493.07446  21397225.4974   21397223.9424
      1054.1504
 04  9 10 15 46 15.0010000  0  6G 1G20G11G14G22G25
  -7257931.62149  -5645084.24245  21636837.7314   21636837.1104
      1322.9584
  -4522350.94948  -3521335.81642  23592758.4194   23592756.4194
      2524.4754
  -4226463.16449  -3285631.34445  21672069.2314   21672066.5564
       113.7344
   9046351.12148   7032960.85944  22522961.0134   22522958.9314
     -2881.6544
  10203683.41447   7930975.86342  24470899.4584   24470898.3334
     -3028.9664
  -7183036.82049  -5587716.14146  21394240.3964   21394239.4034
      1045.7534
 04  9 10 15 46 30.0010000  0  6G 1G20G11G14G22G25
  -7277697.42249  -5660486.16445  21633076.7474   21633075.8214
      1317.7204
  -4560204.44148  -3550832.05542  23585555.2864   23585552.9384
      2523.5664
  -4228034.30148  -3286855.61745  21671770.1854   21671767.6494
       104.7424
   9089610.36748   7066669.34044  22531193.1464   22531191.2204
     -2883.9504
  10249148.33247   7966403.01642  24479550.7474   24479550.4234
     -3030.9954
  -7198598.35549  -5599842.01246  21391279.4744   21391278.3064
      1037.4364
 04  9 10 15 46 45.0010000  0  6G 1G20G11G14G22G25
  -7297383.29349  -5675825.78945  21629330.4504   21629329.5994
      1312.3914
  -4598042.75847  -3580316.45742  23578354.7164   23578353.1064
      2522.5544
  -4229468.97349  -3287973.54745  21671497.2634   21671494.9424
        95.6454
   9132905.14148   7100405.50444  22539431.3494   22539430.5754
     -2886.3184
  10294645.09847   8001854.96942  24488208.8564   24488208.3964
     -3033.1184
  -7214033.53149  -5611869.42246  21388342.0994   21388340.5364
      1029.0124
 04  9 10 15 47  0.0010000  0  6G 1G20G11G14G22G25
  -7316989.23049  -5691103.12945  21625600.0284   21625598.9544
      1307.0634
  -4635865.69948  -3609788.88742  23571157.4584   23571155.2824
      2521.5294
  -4230767.35548  -3288985.28545  21671249.9504   21671247.8214
        86.5594
   9176235.32848   7134169.25444  22547677.2714   22547675.5134
     -2888.6794
  10340173.64546   8037331.70742  24496872.2554   24496872.8564
     -3035.2364
  -7229342.18749  -5623798.24246  21385428.9034   21385427.8414
      1020.5774
 04  9 10 15 47 15.0010000  0  6G 1G20G11G14G22G25
  -7336515.52749  -5706318.43045  21621884.1614   21621883.0134
      1301.7534
  -4673673.47348  -3639249.48842  23563962.2244   23563960.4854
      2520.5184
  -4231929.45748  -3289890.81645  21671029.0834   21671026.3684
        77.4734
   9219600.46148   7167960.24644  22555929.0994   22555927.2634
     -2891.0094
  10385733.73046   8072832.99642  24505542.9424   24505542.1304
     -3037.3394
  -7244524.66049  -5635628.72746  21382540.1534   21382538.4234
      1012.1654
 04  9 10 15 47 30.0010000  0  6G 1G20G11G14G22G25
  -7355961.55149  -5721471.17245  21618183.5524   21618182.7004
      1296.4024
  -4711465.23048  -3668697.60542  23556770.8494   23556768.8214
      2519.4514
  -4232954.58648  -3290689.63345  21670833.9034   21670830.8764
        68.3424
   9263000.96548   7201778.79344  22564188.4114   22564186.7434
     -2893.3674
  10431325.86746   8108359.29342  24514218.6224   24514218.4464
     -3039.4764
  -7259580.06649  -5647360.19946  21379674.8724   21379673.1734
      1003.6944
 04  9 10 15 47 45.0010000  0  6G 1G20G11G14G22G25
  -7375329.01649  -5736562.69545  21614498.2864   21614497.1964
      1291.1644
  -4749242.62948  -3698134.53942  23549581.8644   23549580.3064
      2518.4934
  -4233844.39149  -3291382.98445  21670664.5524   21670661.7944
        59.3204
   9306434.91848   7235623.39844  22572453.5214   22572452.0094
     -2895.5974
  10476948.48846   8143909.34842  24522900.1304   24522899.7124
     -3041.5084
  -7274509.94149  -5658993.85546  21376833.3964   21376832.5014
       995.3254
 04  9 10 15 48  0.0010000  0  6G 1G20G11G14G22G25
  -7394615.52349  -5751591.12145  21610827.7714   21610826.8764
      1285.7674
  -4787003.14847  -3727558.28942  23542396.2084   23542394.5014
      2517.3684
  -4234596.39548  -3291968.96545  21670521.3334   21670518.9034
        50.1344
   9349904.48048   7269495.75444  22580725.1384   22580724.0284
     -2897.9714
  10522603.70746   8179484.76642  24531588.7244   24531587.9854
     -3043.6814
  -7289311.72749  -5670527.70746  21374016.9114   21374015.5094
       986.7864
 04  9 10 15 48 15.0010000  0  6G 1G20G11G14G22G25
  -7413821.91449  -5766557.13345  21607172.8964   21607171.6464
      1280.4264
  -4824747.52048  -3756969.48442  23535214.1384   23535211.9074
      2516.2914
  -4235211.36749  -3292448.17645  21670404.4894   21670402.1224
        40.9984
   9393408.73848   7303395.14844  22589003.7634   22589002.6814
     -2900.2844
  10568290.71947   8215084.98442  24540282.4814   24540282.0364
     -3045.8014
  -7303986.14549  -5681962.30946  21371224.4584   21371223.2744
       978.2954
 04  9 10 15 48 30.0010000  0  6G 1G20G11G14G22G25
  -7432949.23849  -5781461.53545  21603532.9584   21603532.2314
      1275.1554
  -4862476.60947  -3786368.77742  23528033.9894   23528032.4504
      2515.2734
  -4235690.39849  -3292821.46545  21670313.1064   21670310.9854
        31.9354
   9436946.34848   7337320.52344  22597288.6614   22597288.1534
     -2902.5074
  10614008.39847   8250709.09842  24548982.3174   24548981.8534
     -3047.8454
  -7318534.09849  -5693298.36746  21368456.4274   21368454.9424
       969.8644
 04  9 10 15 48 45.0010000  0  6G 1G20G11G14G22G25
  -7451996.04349  -5796303.19945  21599908.9744   21599907.7394
      1269.7874
  -4900188.68047  -3815754.79342  23520858.3254   23520856.4624
      2514.1384
  -4236031.98048  -3293087.63746  21670248.4274   21670245.7354
        22.7724
   9480518.58248   7371272.88344  22605580.3564   22605579.5244
     -2904.8164
  10659758.19546   8286358.25842  24557687.8494   24557687.5174
     -3049.9864
  -7332954.01249  -5704534.65646  21365712.2004   21365710.7864
       961.3284
 04  9 10 15 49  0.0010000  0  6G 1G20G11G14G22G25
  -7470962.75449  -5811082.43745  21596299.3494   21596298.1064
      1264.4474
  -4937884.17247  -3845127.87542  23513684.5214   23513683.4814
      2513.0334
  -4236236.40649  -3293246.93746  21670209.3494   21670207.1924
        13.6284
   9524124.99648   7405251.88344  22613878.1774   22613876.8724
     -2907.0944
  10705539.75046   8322032.16842  24566400.5134   24566399.0954
     -3052.1044
  -7347246.10249  -5715671.33646  21362992.6064   21362991.2434
       952.8064
 04  9 10 15 49 15.0010000  0  6G 1G20G11G14G22G25
  -7489850.88749  -5825800.44945  21592705.1384   21592704.0714
      1259.2094
  -4975564.46548  -3874489.12543  23506515.0054   23506513.1574
      2512.0204
  -4236305.28149  -3293300.61345  21670196.2394   21670194.2044
         4.5924
   9567763.70348   7439256.03944  22622182.6464   22622181.5834
     -2909.2474
  10751351.53547   8357729.60942  24575117.8414   24575117.3174
     -3054.1194
  -7361411.86349  -5726709.58246  21360297.1534   21360295.4704
       944.3844
 04  9 10 15 49 30.0010000  0  6G 1G20G11G14G22G25
  -7508657.79349  -5840455.17645  21589126.1144   21589125.5524
      1253.7944
  -5013226.65248  -3903836.27342  23499347.4744   23499346.2984
      2510.8134
  -4236235.83249  -3293246.50445  21670209.3564   21670207.1064
        -4.6304
   9611437.20348   7473287.30944  22630493.4664   22630492.6384
     -2911.5674
  10797196.03146   8393452.55142  24583841.8724   24583841.1424
     -3056.3004
  -7375448.37549  -5737647.11746  21357625.6774   21357624.2744
       935.7674
 04  9 10 15 49 45.0010000  0  6G 1G20G11G14G22G25
  -7527385.80949  -5855048.42245  21585562.2864   21585561.7044
      1248.5344
  -5050872.98848  -3933171.07843  23492184.0284   23492182.0564
      2509.7564
  -4236030.24249  -3293086.30145  21670248.6924   21670245.5834
       -13.7064
   9655142.94148   7507343.69544  22638810.2784   22638808.8604
     -2913.7164
  10843070.96546   8429199.20342  24592571.5054   24592570.5284
     -3058.3294
  -7389357.97749  -5748485.75846  21354979.0054   21354977.5094
       927.3074
 04  9 10 15 50  0.0010000  0  6G 1G20G11G14G22G25
  -7546033.76649  -5869579.28945  21582013.8644   21582013.3024
      1243.1974
  -5088502.15648  -3962492.50042  23485023.3174   23485021.4194
      2508.6114
  -4235687.43749  -3292819.19145  21670313.5914   21670311.2904
       -22.8544
   9698882.02048   7541426.06344  22647133.7164   22647132.1184
     -2915.9394
  10888977.38347   8464970.40242  24601307.4504   24601306.2554
     -3060.4284
  -7403139.34449  -5759224.48446  21352356.3724   21352354.9584
       918.7584
 04  9 10 15 50 15.0010000  0  6G 1G20G11G14G22G25
  -7564601.45349  -5884047.61746  21578480.4504   21578479.6694
      1237.8464
  -5126113.77348  -3991800.25443  23477866.2554   23477864.9744
      2507.4414
  -4235207.00448  -3292444.84045  21670405.6144   21670402.8994
       -32.0294
   9742654.41448   7575534.39144  22655463.1384   22655462.2474
     -2918.1604
  10934915.55546   8500766.32842  24610049.0754   24610048.5604
     -3062.5454
  -7416792.05949  -5769862.95346  21349758.3174   21349756.7634
       910.1814
 04  9 10 15 50 30.0010000  0  6G 1G20G11G14G22G25
  -7583089.65249  -5898453.99246  21574962.4504   21574961.5794
      1232.5474
  -5163708.37948  -4021094.73043  23470712.5364   23470710.8994
      2506.3074
  -4234589.66048  -3291963.79345  21670522.9664   21670520.1774
       -41.1564
   9786459.14148   7609667.91044  22663798.9664   22663797.8844
     -2920.3154
  10980884.67646   8536586.38342  24618796.4584   24618796.8064
     -3064.6084
  -7430316.81248  -5780401.71146  21347184.3804   21347183.4974
       901.6504
 04  9 10 15 50 45.0010000  0  6G 1G20G11G14G22G25
  -7601499.18749  -5912799.08245  21571459.1774   21571458.3134
      1227.3024
  -5201286.62148  -4050376.48043  23463561.6854   23463559.6424
      2505.2164
  -4233836.29748  -3291376.77745  21670666.0754   21670663.3884
       -50.2244
   9830295.21148   7643825.85944  22672140.5754   22672139.7944
     -2922.4054
  11026883.91846   8572429.91442  24627549.8104   24627549.9114
     -3066.6164
  -7443714.28948  -5790841.30146  21344635.0834   21344633.8374
       893.1654
 04  9 10 15 51  0.0010000  0  5G 1G20G11G14G25
  -7619828.93449  -5927081.98846  21567971.1064   21567970.3564
      1221.9834
  -5238847.41048  -4079644.60543  23456413.5134   23456412.5834
      2504.0534
  -4232945.73048  -3290682.84045  21670835.8884   21670833.1034
       -59.3714
   9874163.61748   7678008.99644  22680488.5364   22680487.5794
     -2924.5604
  -7456983.08249  -5801180.60546  21342110.4274   21342108.8494
       884.5864
 04  9 10 15 51 15.0010000  0  5G 1G20G11G14G25
  -7638079.85249  -5941303.48446  21564498.3564   21564497.3214
      1216.7284
  -5276391.48448  -4108899.70343  23449269.2784   23449267.7394
      2502.9384
  -4231918.80149  -3289882.64845  21671031.1464   21671028.7984
       -68.4624
   9918063.15648   7712216.39544  22688842.6304   22688841.4234
     -2926.6364
  -7470124.13349  -5811420.37146  21339609.3724   21339608.2714
       876.0704
 04  9 10 15 51 30.0010000  0  5G 1G20G11G14G25
  -7656249.52349  -5955461.65245  21561040.1534   21561039.5054
      1211.3114
  -5313916.09848  -4138139.65243  23442128.2474   23442126.8494
      2501.6414
  -4230752.98048  -3288974.22745  21671252.8644   21671250.6494
       -77.7214
   9961996.11748   7746449.84444  22697202.9894   22697201.2714
     -2928.8644
  -7483134.82849  -5821558.57846  21337133.7864   21337132.6144
       867.3804
 04  9 10 15 51 45.0010000  0  5G 1G20G11G14G25
  -7674338.19949  -5969556.71946  21557598.2944   21557598.0284
      1205.9124
  -5351421.50048  -4167364.64143  23434991.4664   23434989.9354
      2500.3604
  -4229448.49649  -3287957.75845  21671500.7004   21671498.4034
       -86.9664
  10005962.10248   7780709.02044  22705569.5524   22705568.1344
     -2931.0664
  -7496015.35549  -5831595.33646  21334682.6854   21334681.5994
       858.7024
 04  9 10 15 52  0.0010000  0  5G 1G20G11G14G25
  -7692345.77749  -5983588.58646  21554171.3884   21554170.7284
      1200.5054
  -5388907.41448  -4196574.44543  23427858.0054   23427856.3494
      2499.0614
  -4228005.31649  -3286833.20745  21671775.5674   21671773.5364
       -96.2124
  10049960.97748   7814993.80944  22713942.2394   22713940.8994
     -2933.2584
  -7508765.50449  -5841530.50846  21332256.2944   21332255.0134
       850.0104
 04  9 10 15 52 15.0010000  0  5G 1G20G11G14G25
  -7710270.61349  -5997555.98045  21550760.6384   21550759.4384
      1194.9894
  -5426372.09048  -4225767.69543  23420728.8254   23420727.2204
      2497.6454
  -4226421.68448  -3285599.21145  21672076.9974   21672074.8414
      -105.5764
  10093994.23848   7849305.42244  22722321.2474   22722320.0444
     -2935.5514
  -7521383.53548  -5851362.72746  21329855.1924   21329853.9854
       841.2024
 04  9 10 15 52 30.0010000  0  5G 1G20G11G14G25
  -7728112.96149  -6011459.10246  21547365.2394   21547364.5714
      1189.4904
  -5463815.59848  -4254944.46543  23413603.7244   23413601.7434
      2496.2344
  -4224697.80149  -3284255.92645  21672405.0134   21672402.5324
      -114.9264
  10138061.54348   7883643.54344  22730707.1224   22730705.9664
     -2937.8204
  -7533869.53949  -5861092.07446  21327479.1694   21327477.8994
       832.4004
 04  9 10 15 52 45.0010000  0  5G 1G20G11G14G25
  -7745873.80949  -6025298.71945  21543985.4034   21543984.7244
      1184.0574
  -5501238.81648  -4284105.38343  23406481.8724   23406480.8604
      2494.8814
  -4222834.69948  -3282804.16046  21672759.4274   21672757.1814
      -124.2074
  10182161.49248   7918007.11744  22739098.8334   22739097.8104
     -2939.9974
  -7546224.48049  -5870719.29346  21325127.9584   21325126.6854
       823.6634
 04  9 10 15 53  0.0010000  0  5G 1G20G11G14G25
  -7763555.31249  -6039076.50446  21540620.9194   21540620.0134
      1178.7674
  -5538643.57448  -4313251.93443  23399364.5364   23399362.6494
      2493.6514
  -4220834.40649  -3281245.49245  21673140.0284   21673137.7864
      -133.3534
  10226291.91448   7952394.43444  22747496.7784   22747495.2394
     -2942.0284
  -7558450.22749  -5880245.84046  21322801.7714   21322800.4234
       815.0504
 04  9 10 15 53 15.0010000  0  5G 1G20G11G14G25
  -7781157.09849  -6052792.17646  21537271.3414   21537270.3374
      1173.4524
  -5576029.37548  -4342383.71943  23392250.2784   23392248.7744
      2492.3874
  -4218696.56249  -3279579.64145  21673547.1534   21673544.7284
      -142.5234
  10270453.05548   7986805.66444  22755900.3174   22755899.3804
     -2944.0764
  -7570546.47349  -5889671.48046  21320500.0524   21320498.6304
       806.4164
 04  9 10 15 53 30.0010000  0  5G 1G20G11G14G25
  -7798678.21949  -6066444.98846  21533937.0834   21533935.8994
      1168.0754
  -5613395.18748  -4371499.93743  23385139.5994   23385137.7864
      2491.0544
  -4216420.19149  -3277805.83245  21673980.0524   21673977.7864
      -151.7584
  10314645.58648   8021241.37544  22764309.7714   22764308.4894
     -2946.1694
  -7582511.96549  -5898995.23446  21318223.0054   21318221.2984
       797.6994
 04  9 10 15 53 45.0010000  0  5G 1G20G11G14G25
  -7816119.09449  -6080035.27346  21530618.1464   21530617.2744
      1162.7254
  -5650741.26248  -4400600.77043  23378032.8024   23378030.7634
      2489.7384
  -4214005.58648  -3275924.34045  21674439.8174   21674437.5634
      -160.9744
  10358868.94548   8055701.09444  22772725.4424   22772723.9504
     -2948.2244
  -7594346.91448  -5908217.26646  21315971.0054   21315969.2124
       788.9974
 04  9 10 15 54  0.0010000  0  5G 1G20G11G14G25
  -7833481.25849  -6093564.22746  21527314.2714   21527313.5324
      1157.4784
  -5688068.94948  -4429687.25443  23370929.0754   23370927.8374
      2488.5124
  -4211454.11749  -3273936.17645  21674925.4974   21674922.7744
      -170.0984
  10403121.44548   8090183.52744  22781146.6924   22781145.2354
     -2950.1674
  -7606052.81649  -5917338.74246  21313743.3174   21313741.6814
       780.3934
 04  9 10 15 54 15.0010000  0  5G 1G20G11G14G25
  -7850763.33249  -6107030.76245  21524025.4274   21524024.8764
      1152.1384
  -5725376.60548  -4458758.14543  23363829.7944   23363828.4464
      2487.1774
  -4208764.41448  -3271840.31245  21675437.1064   21675434.8534
      -179.3144
  10447404.35948   8124689.68444  22789573.0834   22789572.2124
     -2952.1944
  -7617628.05949  -5926358.41046  21311540.6064   21311538.8494
       771.6834
 04  9 10 15 54 30.0010000  0  5G 1G20G11G14G25
  -7867967.08649  -6120436.27045  21520751.8104   21520750.9744
      1146.9174
  -5762665.91848  -4487814.73043  23356734.3254   23356732.7514
      2485.9544
  -4205938.33249  -3269638.17645  21675975.1384   21675972.5404
      -188.4054
  10491715.77748   8159218.02744  22798005.5284   22798004.4814
     -2954.0954
  -7629074.43749  -5935277.65646  21309362.0994   21309360.7124
       763.0924
 04  9 10 15 54 45.0010000  0  5G 1G20G11G14G25
  -7885089.69949  -6133778.55546  21517493.4894   21517492.3644
      1141.5084
  -5799933.89548  -4516854.70343  23349642.4584   23349640.7984
      2484.5324
  -4202973.07049  -3267327.60945  21676539.2244   21676536.4194
      -197.6844
  10536058.25048   8193770.55943  22806443.9274   22806442.9784
     -2956.1654
  -7640389.09849  -5944094.27046  21307209.0284   21307207.4854
       754.3114
 04  9 10 15 55  0.0010000  0  5G 1G20G11G14G25
  -7902131.46149  -6147057.83646  21514250.5284   21514249.6224
      1136.1174
  -5837180.52348  -4545878.04343  23342554.6774   23342553.6384
      2483.1094
  -4199868.87949  -3264908.76645  21677129.7634   21677127.9704
      -206.9464
  10580431.41448   8228347.01244  22814887.9034   22814886.6884
     -2958.2114
  -7651572.16449  -5952808.34446  21305081.1464   21305079.5604
       745.5384
 04  9 10 15 55 15.0010000  0  5G 1G20G11G14G25
  -7919094.62149  -6160275.87546  21511022.6384   21511021.2354
      1130.8774
  -5874408.04348  -4574886.49643  23335470.1224   23335468.9314
      2481.8354
  -4196627.93449  -3262383.36345  21677746.3644   21677744.2554
      -216.0634
  10624832.73848   8262945.43444  22823336.4504   22823335.6734
     -2960.0884
  -7662625.82849  -5961421.58646  21302977.6774   21302976.0994
       736.9114
 04  9 10 15 55 30.0010000  0  5G 1G20G11G14G25
  -7935979.35249  -6173432.80945  21507809.4664   21507808.5994
      1125.6494
  -5911616.52048  -4603880.10943  23328390.0284   23328387.3454
      2480.5654
  -4193250.32849  -3259751.47745  21678389.1224   21678386.8604
      -225.1744
  10669261.92648   8297565.54744  22831791.6384   22831790.0714
     -2961.9464
  -7673550.02049  -5969933.94146  21300898.7554   21300897.4854
       728.2794
 04  9 10 15 55 45.0010000  0  5G 1G20G11G14G25
  -7952785.01249  -6186528.12946  21504611.3104   21504609.9814
      1120.3774
  -5948805.06648  -4632858.21543  23321313.3414   23321310.8534
      2479.2364
  -4189735.37548  -3257012.57045  21679057.9274   21679055.4664
      -234.3304
  10713719.44948   8332207.74244  22840251.4194   22840250.3214
     -2963.8354
  -7684344.03148  -5978344.84046  21298844.6694   21298843.1884
       719.6014
 04  9 10 15 56  0.0010000  0  6G 1G20G11G14G23G25
  -7969511.87149  -6199562.02346  21501428.5994   21501426.7474
      1115.1244
  -5985973.74248  -4661820.81643  23314239.9744   23314238.3884
      2477.9124
  -4186083.31248  -3254166.81645  21679753.2164   21679751.1344
      -243.4714
  10758204.91848   8366871.69544  22848716.9194   22848715.5954
     -2965.6984
    -99727.11756    -69988.29352  24578875.9424   24578873.7474

  -7695008.04748  -5986654.45746  21296815.6694   21296813.9704
       710.9344
 04  9 10 15 56 15.0010000  0  6G 1G20G11G14G23G25
  -7986159.39549  -6212534.10546  21498260.5524   21498259.2314
      1109.8354
  -6023121.71148  -4690767.28143  23307171.1224   23307169.3134
      2476.5314
  -4182293.53549  -3251213.75845  21680474.1304   21680472.2554
      -252.6524
  10802718.83248   8401557.82044  22857187.7474   22857186.3564
     -2967.5944
   -139578.84446   -101041.60542  24571292.3104   24571289.6104
      2656.7824
  -7705541.11749  -5994862.04746  21294810.9034   21294809.7554
       702.2054
 04  9 10 15 56 30.0010000  0  6G 1G20G11G14G23G25
  -8002729.54349  -6225445.90646  21495107.0914   21495106.0874
      1104.6774
  -6060250.87548  -4719699.09443  23300105.2714   23300103.4664
      2475.2784
  -4178368.01248  -3248154.91845  21681221.5524   21681219.1694
      -261.7024
  10847258.94548   8436264.36744  22865663.2314   22865661.7554
     -2969.3414
   -179398.97746   -132070.26642  24563714.8494   24563712.3644
      2654.6764
  -7715945.41848  -6002969.29346  21292831.3884   21292829.7824
       693.6204
 04  9 10 15 56 45.0010000  0  6G 1G20G11G14G23G25
  -8019223.74249  -6238298.53146  21491968.4974   21491967.2244
      1099.6134
  -6097362.54348  -4748617.25843  23293042.9974   23293041.0364
      2474.1114
  -4174308.28948  -3244991.50445  21681993.5364   21681991.5834
      -270.6484
  10891823.58648   8470990.02344  22874143.6064   22874141.9274
     -2970.9764
   -219188.82846   -163075.34442  24556143.4354   24556140.8064
      2652.6574
  -7726222.22749  -6010977.18446  21290875.5754   21290874.0174
       685.1214
 04  9 10 15 57  0.0010000  0  6G 1G20G11G14G23G25
  -8035641.62149  -6251091.67645  21488844.4194   21488843.3134
      1094.5254
  -6134456.08648  -4777521.30943  23285984.7084   23285982.1884
      2472.9034
  -4170113.78149  -3241723.06246  21682792.3804   21682789.6064
      -279.6344
  10936413.05548   8505735.02744  22882628.8254   22882627.4354
     -2972.6314
   -258947.87946   -194056.44142  24548578.3104   24548574.5094
      2650.6034
  -7736370.94149  -6018885.27346  21288944.2164   21288942.6144
       676.5814
 04  9 10 15 57 15.0010000  0  6G 1G20G11G14G23G25
  -8051980.45349  -6263823.22746  21485735.0054   21485733.9584
      1089.2554
  -6171528.61348  -4806409.00443  23278930.3804   23278927.7944
      2471.5024
  -4165781.78548  -3238347.49245  21683616.4584   21683614.0404
      -288.8004
  10981030.02348   8540501.44943  22891118.9034   22891117.7824
     -2974.4654
   -298673.38346   -225011.34842  24541018.2944   24541014.7514
      2648.3674
  -7746388.76249  -6026691.35546  21287038.0754   21287036.4744
       667.8554
 04  9 10 15 57 30.0010000  0  6G 1G20G11G14G23G25
  -8068241.41049  -6276494.10246  21482640.7004   21482639.4934
      1084.0644
  -6208581.11348  -4835281.08243  23271879.6304   23271878.1734
      2470.1674
  -4161313.47748  -3234865.71145  21684466.6614   21684464.1384
      -297.8874
  11025673.07448   8575288.20743  22899614.3334   22899613.1614
     -2976.2034
   -338366.20746   -255940.81242  24533465.1144   24533461.8534
      2646.1884
  -7756276.83648  -6034396.34446  21285156.5364   21285155.0324
       659.2054
 04  9 10 15 57 45.0010000  0  6G 1G20G11G14G23G25
  -8084423.80149  -6289103.74646  21479561.4814   21479560.4504
      1078.8264
  -6245612.77748  -4864136.89843  23264832.2634   23264831.2904
      2468.7784
  -4156708.19948  -3231277.19945  21685343.1774   21685340.5914
      -307.0184
  11070342.69948   8610095.66043  22908114.6464   22908114.1814
     -2977.9754
   -378025.74645   -286844.33642  24525917.7634   24525915.1344
      2643.9694
  -7766034.28548  -6041999.55146  21283299.7474   21283297.9114
       650.4974
 04  9 10 15 58  0.0010000  0  6G 1G20G11G14G23G25
  -8100528.79749  -6301653.08646  21476496.9744   21476495.8104
      1073.6664
  -6282624.46148  -4892977.16843  23257789.4194   23257787.5014
      2467.4464
  -4151966.98848  -3227582.76245  21686245.3414   21686243.3764
      -316.0814
  11115037.53948   8644922.78543  22916619.5054   22916618.9664
     -2979.6564
   -417652.99245   -317722.70342  24518376.7554   24518374.4664
      2641.8164
  -7775662.13348  -6049501.76246  21281467.4974   21281465.8254
       641.8574
 04  9 10 15 58 15.0010000  0  6G 1G20G11G14G23G25
  -8116555.58249  -6314141.48046  21473447.0914   21473446.0094
      1068.4524
  -6319615.20748  -4921801.12143  23250750.3104   23250747.9384
      2466.0504
  -4147088.86749  -3223781.64145  21687173.7554   21687171.3604
      -325.2084
  11159758.46148   8679770.20743  22925130.2864   22925128.8804
     -2981.3954
   -457246.91445   -348575.11342  24510842.5834   24510839.9934
      2639.5954
  -7785159.48849  -6056902.29746  21279660.4894   21279658.5914
       633.1574
 04  9 10 15 58 30.0010000  0  6G 1G20G11G14G23G25
  -8132502.30949  -6326567.49646  21470412.5754   21470411.3174
      1063.1154
  -6356583.08648  -4950607.25843  23243715.0604   23243712.9314
      2464.5254
  -4142072.28948  -3219872.63745  21688128.4114   21688125.7674
      -334.4394
  11204506.99248   8714639.16043  22933645.3414   22933644.4274
     -2983.2354
   -496805.59846   -379400.05942  24503314.5834   24503311.9664
      2637.2464
  -7794524.43448  -6064199.64846  21277878.1144   21277876.3884
       624.3304
 04  9 10 15 58 45.0010000  0  6G 1G20G11G14G23G25
  -8148370.07049  -6338931.98046  21467392.8724   21467391.9384
      1057.8514
  -6393528.97348  -4979396.27043  23236684.9424   23236683.2434
      2463.0594
  -4136918.17648  -3215856.46945  21689108.8334   21689106.9274
      -343.6084
  11249281.85947   8749528.64143  22942166.4664   22942164.4424
     -2984.9914
   -536330.17245   -410198.41042  24495794.2164   24495790.9464
      2634.9724
  -7803757.97749  -6071394.62146  21276121.0914   21276118.8534
       615.5704
 04  9 10 15 59  0.0010000  0  6G 1G20G11G14G23G25
  -8164158.74249  -6351234.84046  21464388.4504   21464387.3064
      1052.5784
  -6430452.60248  -5008167.92643  23229658.1534   23229656.7434
      2461.5754
  -4131626.37548  -3211732.99245  21690116.3564   21690114.1184
      -352.7874
  11294083.11348   8784438.68443  22950691.1464   22950689.6424
     -2986.7504
   -575820.41446   -440970.01242  24488278.9194   24488275.7434
      2632.6834
  -7812859.86348  -6078486.99246  21274388.7944   21274387.0364
       606.7924
 04  9 10 15 59 15.0010000  0  6G 1G20G11G14G23G25
  -8179868.82849  -6363476.45746  21461398.9194   21461397.6064
      1047.3394
  -6467354.23048  -5036922.43043  23222636.1224   23222634.4814
      2460.1094
  -4126197.28148  -3207502.55545  21691149.0214   21691146.8724
      -361.9404
  11338910.14848   8819368.81343  22959221.7634   22959220.3534
     -2988.4694
   -615276.76646   -471715.19942  24480769.8104   24480766.9034
      2630.4234
  -7821830.43449  -6085477.04346  21272681.4744   21272680.1774
       598.0384
 04  9 10 15 59 30.0010000  0  6G 1G20G11G14G23G25
  -8195500.16449  -6375656.71146  21458424.1384   21458423.3884
      1042.0894
  -6504233.39148  -5065659.42643  23215618.4504   23215616.8924
      2458.6114
  -4120630.95748  -3203165.16445  21692208.5214   21692205.9974
      -371.0884
  11383762.93048   8854319.00443  22967756.3964   22967755.8064
     -2990.1854
   -654698.82845   -502433.68042  24473268.3494   24473265.3684
      2628.1374
  -7830669.50449  -6092364.62146  21270999.8174   21270998.2514
       589.2714
 04  9 10 15 59 45.0010000  0  6G 1G20G11G14G23G25
  -8211052.59449  -6387775.47346  21455464.5444   21455463.7394
      1036.8294
  -6541089.93448  -5094378.80943  23208605.7944   23208603.2474
      2457.1034
  -4114927.12548  -3198720.64845  21693293.8254   21693291.6774
      -380.2554
  11428641.44948   8889289.24243  22976296.9354   22976296.1224
     -2991.9014
   -694086.44545   -533125.29742  24465772.5364   24465769.8964
      2625.8414
  -7839376.85949  -6099149.57046  21269342.8414   21269341.1034
       580.4904
 04  9 10 16  0  0.0010000  0  6G 1G20G11G14G23G25
  -8226526.55549  -6399833.09846  21452520.0834   21452519.0674
      1031.5974
  -6577924.00048  -5123080.67643  23201595.4034   23201593.3764
      2455.6044
  -4109086.08249  -3194169.21145  21694405.5754   21694403.0564
      -389.4034
  11473545.19948   8924279.14543  22984842.0364   22984841.1224
     -2993.5834
   -733439.85945   -563790.30542  24458285.0214   24458282.2394
      2623.5614
  -7847952.69149  -6105832.03546  21267711.1774   21267709.1734
       571.7224
 04  9 10 16  0 15.0010000  0  6G 1G20G11G14G23G25
  -8241923.45349  -6411830.66046  21449589.9664   21449589.1924
      1026.4604
  -6614736.77748  -5151765.98043  23194590.2474   23194588.3104
      2454.1854
  -4103109.18448  -3189511.91445  21695542.7244   21695540.7434
      -398.4604
  11518472.57048   8959287.46144  22993391.3414   22993390.6574
     -2995.1584
   -772760.39145   -594429.68042  24450801.7164   24450799.7244
      2621.3694
  -7856398.31248  -6112413.03546  21266103.8804   21266102.2714
       563.0414
 04  9 10 16  0 30.0010000  0  6G 1G20G11G14G23G25
  -8257242.96149  -6423767.93446  21446674.9744   21446673.8844
      1021.3014
  -6651527.75048  -5180434.27343  23187589.6614   23187587.6494
      2452.7324
  -4096996.11348  -3184748.49245  21696706.0364   21696704.2004
      -407.5384
  11563423.82048   8994314.36743  23001945.1614   23001944.9154
     -2996.7504
   -812047.61345   -625043.07442  24443325.8174   24443323.8534
      2619.1484
  -7864713.28548  -6118892.22346  21264521.4274   21264519.9744
       554.3324
 04  9 10 16  0 45.0010000  0  6G 1G20G11G14G23G25
  -8272483.57449  -6435643.72746  21443774.8494   21443773.6424
      1016.0414
  -6688295.17248  -5209084.20343  23180592.8024   23180591.1424
      2451.1614
  -4090745.60948  -3179877.98846  21697895.4354   21697893.2434
      -416.7004
  11608400.25048   9029360.89843  23010503.5834   23010503.1144
     -2998.4294
   -851299.84845   -655629.20742  24435855.8494   24435854.6924
      2616.8164
  -7872896.10549  -6125268.44146  21262964.2164   21262962.4544
       545.5214
 04  9 10 16  1  0.0010000  0  6G 1G20G11G14G23G25
  -8287645.10249  -6447457.89546  21440889.5284   21440888.5914
      1010.7684
  -6725038.79748  -5237715.58243  23173600.6774   23173598.5874
      2449.5754
  -4084357.30148  -3174900.10245  21699110.9744   21699108.9504
      -425.8874
  11653401.90648   9064427.10543  23019067.5054   23019065.6464
     -3000.1104
   -890516.90645   -686187.93042  24428392.8964   24428390.9854
      2614.4714
  -7880946.46148  -6131541.43446  21261432.7474   21261431.0244
       536.6904
 04  9 10 16  1 15.0010000  0  6G 1G20G11G14G23G25
  -8302728.27749  -6459211.00446  21438019.3104   21438018.3724
      1005.5454
  -6761759.12148  -5266328.82843  23166612.7784   23166610.6224
      2448.0224
  -4077831.87548  -3169815.37545  21700352.6924   21700350.6614
      -435.0284
  11698427.96148   9099512.30543  23027636.3174   23027634.6224
     -3001.7374
   -929699.43745   -716719.76242  24420936.7784   24420935.1694
      2612.1694
  -7888864.92249  -6137711.65646  21259925.5754   21259924.4274
       527.8974
 04  9 10 16  1 30.0010000  0  6G 1G20G11G14G23G25
  -8317732.85249  -6470902.87546  21435163.9354   21435163.0364
      1000.3054
  -6798455.69947  -5294923.55143  23159629.7314   23159627.8064
      2446.4394
  -4071169.29748  -3164623.77345  21701620.8174   21701618.7244
      -444.1724
  11743478.41448   9134616.52743  23036208.8254   23036207.4504
     -3003.3644
   -968847.00446   -747224.32442  24413488.0914   24413485.4584
      2609.8384
  -7896651.15648  -6143778.84846  21258443.9504   21258442.4464
       519.0824
 04  9 10 16  1 45.0010000  0  6G 1G20G11G14G23G25
  -8332659.78149  -6482534.24246  21432323.1854   21432322.2744
       995.1294
  -6835129.23047  -5323500.32043  23152650.6144   23152649.4664
      2444.9024
  -4064370.25048  -3159325.82445  21702914.6854   21702912.2044
      -453.2704
  11788552.28948   9169738.99643  23044786.1694   23044785.0994
     -3004.9254
  -1007960.60246   -777702.43742  24406044.5604   24406041.9814
      2607.5734
  -7904306.16449  -6149743.78146  21256987.0524   21256985.9034
       510.3344
 04  9 10 16  2  0.0010000  0  6G 1G20G11G14G23G25
  -8347508.01249  -6494104.28546  21429498.0914   21429496.4544
       989.8824
  -6871778.57048  -5352058.24243  23145676.8104   23145675.4114
      2443.2894
  -4057433.65248  -3153920.69145  21704234.6534   21704232.2394
      -462.4404
  11833650.44148   9204880.39843  23053367.9034   23053366.9234
     -3006.5434
  -1047039.05546   -808153.14542  24398608.4744   24398605.6814
      2605.2304
  -7911828.78948  -6155605.56246  21255555.9274   21255553.9234
       501.5084
 04  9 10 16  2 15.0020000  0  6G 1G20G11G14G23G25
  -8362279.19949  -6505614.29746  21426687.1114   21426685.7644
       984.7464
  -6908406.69147  -5380599.65243  23138707.1894   23138704.6894
      2441.8754
  -4050359.72348  -3148408.54745  21705580.9164   21705578.5144
      -471.5954
  11878774.94548   9240042.30543  23061954.5884   23061954.6894
     -3008.3004
  -1086085.49246   -838578.90242  24391178.0334   24391175.4514
      2603.0964
  -7919220.10949  -6161365.03146  21254149.3074   21254147.6234
       492.7554
 04  9 10 16  2 30.0020000  0  6G 1G20G11G14G23G25
  -8376971.47749  -6517062.81246  21423891.3614   21423889.9754
       979.4854
  -6945008.44147  -5409120.47743  23131741.5804   23131740.0374
      2440.1174
  -4043149.55548  -3142790.24646  21706952.7754   21706950.4794
      -480.6784
  11923919.74248   9275220.03543  23070545.4164   23070544.8934
     -3009.6534
  -1125094.59047   -868975.58642  24383755.0494   24383752.8734
      2600.6074
  -7926478.86349  -6167021.19946  21252768.0334   21252766.3544
       483.9174
 04  9 10 16  2 45.0020000  0  6G 1G20G11G14G23G25
  -8391584.85949  -6528449.85946  21421110.3464   21421109.4004
       974.2264
  -6981585.09847  -5437621.75843  23124781.1114   23124779.5684
      2438.4444
  -4035801.74248  -3137064.69146  21708351.2524   21708349.1704
      -489.8544
  11969088.71148   9310416.59443  23079140.6974   23079139.9164
     -3011.2654
  -1164067.81647   -899344.31642  24376338.8464   24376336.5534
      2598.2154
  -7933604.59449  -6172573.70346  21251411.9864   21251410.2484
       475.0494
 04  9 10 16  3  0.0020000  0  6G 1G20G11G14G23G25
  -8406120.02349  -6539775.95746  21418344.5334   21418343.5374
       969.0114
  -7018137.17248  -5466103.89843  23117825.6354   23117824.0684
      2436.8054
  -4028316.82448  -3131232.30145  21709775.5254   21709773.6504
      -498.9954
  12014281.00448   9345631.35944  23087740.8614   23087740.6004
     -3012.8204
  -1203005.90647   -929685.66842  24368928.2684   24368926.7874
      2595.8734
  -7940597.99648  -6178023.10946  21250081.4244   21250079.4944
       466.2274
 04  9 10 16  3 15.0020000  0  6G 1G20G11G14G23G25
  -8420577.73449  -6551041.69946  21415593.4244   21415592.2134
       963.8474
  -7054665.29347  -5494567.35243  23110874.7214   23110873.0534
      2435.2084
  -4020695.72348  -3125293.80145  21711225.8224   21711223.6004
      -508.0734
  12059495.68448   9380863.53943  23096344.6824   23096344.1114
     -3014.3124
  -1241909.59447   -960000.22743  24361526.2444   24361523.3504
      2593.5794
  -7947459.71548  -6183369.89146  21248775.2444   21248773.5924
       457.4484
 04  9 10 16  3 30.0020000  0  6G 1G20G11G14G23G25
  -8434956.78549  -6562246.15246  21412857.2834   21412855.8574
       958.6034
  -7091167.96548  -5523010.98443  23103928.1504   23103927.2994
      2433.5114
  -4012937.22748  -3119248.22345  21712702.0334   21712700.1864
      -517.2334
  12104733.72348   9416113.93843  23104953.5574   23104952.2054
     -3015.8694
  -1280777.51247   -990286.87543  24354129.5574   24354127.4434
      2591.1954
  -7954188.40649  -6188613.02346  21247494.8544   21247493.3614
       448.5794
 04  9 10 16  3 45.0020000  0  6G 1G20G11G14G23G25
  -8449258.61749  -6573390.42646  21410135.5414   21410134.3894
       953.4554
  -7127646.41447  -5551435.75043  23096987.2994   23096985.2404
      2431.8974
  -4005042.60949  -3113096.59045  21714204.3304   21714202.0614
      -526.3084
  12149993.68448   9451381.40243  23113566.0724   23113564.7794
     -3017.3314
  -1319610.94547  -1020546.69542  24346740.1504   24346737.6584
      2588.8964
  -7960785.34049  -6193753.48046  21246239.4004   21246237.9674
       439.7964
 04  9 10 16  4  0.0020000  0  6G 1G20G11G14G23G25
  -8463482.05549  -6584473.62946  21407428.8224   21407427.8894
       948.2294
  -7164099.25447  -5579840.55543  23090049.8854   23090048.2444
      2430.1894
  -3997010.85248  -3106838.07445  21715732.9084   21715730.6784
      -535.4514
  12195276.56347   9486666.73443  23122183.5184   23122182.1624
     -3018.8594
  -1358408.55547  -1050778.59842  24339357.0494   24339354.9204
      2586.5074
  -7967249.39848  -6198790.41046  21245009.5644   21245008.1194
       430.9374
 04  9 10 16  4 15.0020000  0  6G 1G20G11G14G23G25
  -8477627.39849  -6595495.96946  21404737.1664   21404736.0144
       943.0234
  -7200526.65248  -5608225.52743  23083118.1044   23083116.2754
      2428.4934
  -3988842.04348  -3100472.78545  21717287.2364   21717285.5534
      -544.5874
  12240582.03948   9521969.66843  23130804.4244   23130803.1004
     -3020.3654
  -1397170.63747  -1080982.81242  24331980.4714   24331977.9514
      2584.1394
  -7973580.86348  -6203724.01246  21243804.5644   21243803.0884
       422.0984
 04  9 10 16  4 30.0020000  0  6G 1G20G11G14G23G25
  -8491693.01649  -6606456.18446  21402060.7604   21402059.6744
       937.7084
  -7236926.80948  -5636589.27743  23076191.2444   23076189.3544
      2426.6774
  -3980534.76248  -3093999.57445  21718868.2684   21718865.8814
      -553.8194
  12285911.39548   9557291.21543  23139430.5724   23139429.6744
     -3021.9574
  -1435895.44947  -1111158.00042  24324612.1194   24324608.7484
      2581.6544
  -7979777.84848  -6208552.82846  21242625.2994   21242623.7014
       413.1324
 04  9 10 16  4 45.0020000  0  6G 1G20G11G14G23G25
  -8505680.34849  -6617355.40246  21399398.6434   21399397.8694
       932.4894
  -7273300.87148  -5664932.71143  23069269.3854   23069267.9364
      2424.9384
  -3972090.42648  -3087419.59045  21720474.9394   21720472.7294
      -562.9564
  12331263.25848   9592630.28943  23148061.0334   23148059.6394
     -3023.4584
  -1474584.28947  -1141305.12142  24317249.8144   24317246.6154
      2579.2564
  -7985841.78148  -6213277.96946  21241471.5804   21241469.7134
       404.2624
 04  9 10 16  5  0.0020000  0  6G 1G20G11G14G23G25
  -8519589.82049  -6628193.94946  21396752.0494   21396750.8464
       927.2984
  -7309648.97748  -5693255.90643  23062353.1664   23062351.3424
      2423.2074
  -3963509.40248  -3080733.09845  21722108.0414   21722105.7914
      -572.0684
  12376637.00847   9627986.41043  23156695.9244   23156693.7094
     -3024.9174
  -1513237.42248  -1171424.45342  24309894.0254   24309891.2254
      2576.8764
  -7991772.93748  -6217899.64146  21240342.8854   21240341.3184
       395.4104
 04  9 10 16  5 15.0020000  0  6G 1G20G11G14G23G25
  -8533421.30949  -6638971.72346  21394119.9794   21394119.1784
       922.0994
  -7345970.91048  -5721558.68743  23055440.5724   23055439.4044
      2421.4624
  -3954791.53149  -3073939.98445  21723767.0574   21723765.1274
      -581.1914
  12422032.74648   9663359.70743  23165333.7294   23165332.0414
     -3026.3834
  -1551854.77747  -1201515.89142  24302544.8224   24302542.2404
      2574.4904
  -7997571.22349  -6222417.78146  21239239.3934   21239237.6504
       386.5524
 04  9 10 16  5 30.0020000  0  6G 1G20G11G14G23G25
  -8547174.59449  -6649688.57046  21391502.6824   21391501.6784
       916.8864
  -7382266.26647  -5749840.78943  23048534.1744   23048532.5254
      2419.6904
  -3945936.78948  -3067040.21946  21725451.9084   21725449.9674
      -590.3164
  12467450.46148   9698750.09843  23173976.3144   23173975.2294
     -3027.8484
  -1590435.97347  -1231579.17242  24295203.2604   24295200.3464
      2572.0804
  -8003236.34048  -6226832.15246  21238161.3144   21238159.7094
       377.6744
 04  9 10 16  5 45.0020000  0  6G 1G20G11G14G23G25
  -8560848.67249  -6660343.69946  21388900.4244   21388899.7054
       911.6054
  -7418533.78147  -5778101.17643  23041633.0024   23041631.6234
      2417.8344
  -3936944.06649  -3060032.93045  21727163.5024   21727161.2684
      -599.5154
  12512890.98448   9734158.26643  23182623.5184   23182622.2994
     -3029.3684
  -1628979.91847  -1261613.39542  24287869.2684   24287865.6274
      2569.5964
  -8008767.32049  -6231142.00046  21237108.8074   21237107.1704
       368.7324
 04  9 10 16  6  0.0020000  0  6G 1G20G11G14G23G25
  -8574444.48449  -6670937.83646  21386313.1274   21386312.1314
       906.3884
  -7454774.17647  -5806340.44944  23034736.5104   23034735.1154
      2416.0264
  -3927814.17249  -3052918.75846  21728900.8074   21728898.9124
      -608.6604
  12558353.32848   9769583.44943  23191275.1584   23191273.1394
     -3030.8234
  -1667487.34447  -1291619.17642  24280541.1974   24280537.8614
      2567.1624
  -8014164.80949  -6235347.82046  21236081.7914   21236080.1934
       359.8334
 04  9 10 16  6 15.0020000  0  6G 1G20G11G14G23G25
  -8587962.43049  -6681471.30546  21383740.8774   21383740.0844
       901.1964
  -7490987.72348  -5834558.79344  23027845.3694   23027843.6974
      2414.2364
  -3918547.59048  -3045698.05546  21730664.0414   21730662.1434
      -617.7724
  12603836.96547   9805025.20743  23199929.7524   23199928.9984
     -3032.2424
  -1705958.66447  -1321596.84042  24273221.0184   24273216.6434
      2564.7554
  -8019429.17648  -6239449.93046  21235079.9794   21235078.3854
       350.9584
 04  9 10 16  6 30.0020000  0  6G 1G20G11G14G23G25
  -8601402.39549  -6691943.99246  21381183.2524   21381182.4394
       895.9984
  -7527174.05548  -5862755.93443  23020959.2684   23020957.4434
      2412.4224
  -3909144.34448  -3038370.87546  21732453.2914   21732451.7644
      -626.8834
  12649341.85548   9840483.53543  23208589.4714   23208588.9004
     -3033.6594
  -1744393.57848  -1351546.11742  24265906.2914   24265902.6584
      2562.3284
  -8024560.27349  -6243448.18046  21234103.5334   21234101.8734
       342.0734
 04  9 10 16  6 45.0020000  0  6G 1G20G11G14G23G25
  -8614763.84849  -6702355.50846  21378641.1044   21378640.0884
       890.7644
  -7563332.43447  -5890931.28943  23014078.0254   23014076.8344
      2410.5594
  -3899603.95348  -3030936.82045  21734269.1194   21734266.9004
      -636.0264
  12694868.39148   9875958.70743  23217252.7444   23217251.8304
     -3035.1024
  -1782791.43048  -1381466.50842  24258599.2994   24258596.7364
      2559.8574
  -8029557.38749  -6247342.03146  21233152.6584   21233150.9864
       333.1414
 04  9 10 16  7  0.0020000  0  6G 1G20G11G14G23G25
  -8628048.68749  -6712707.32446  21376112.9084   21376111.7874
       885.6564
  -7599464.53948  -5919086.18443  23007202.9714   23007200.7174
      2408.8074
  -3889928.14148  -3023397.23845  21736110.2364   21736107.9864
      -645.0544
  12740414.59448   9911449.23443  23225920.1584   23225918.7914
     -3036.4144
  -1821154.05547  -1411359.44942  24251299.6194   24251296.0334
      2557.5084
  -8034422.40249  -6251132.94546  21232226.7604   21232225.1354
       324.3344
 04  9 10 16  7 15.0020000  0  6G 1G20G11G14G23G25
  -8641255.71949  -6722998.51646  21373599.4944   21373598.6894
       880.4694
  -7635568.89847  -5947219.44943  23000332.0104   23000329.9204
      2406.9574
  -3880115.76648  -3015751.25045  21737977.5494   21737975.4084
      -654.1584
  12785981.48448   9946955.87143  23234590.9714   23234589.9554
     -3037.7934
  -1859480.19547  -1441223.98442  24244006.0254   24244003.0724
      2555.0764
  -8039154.14549  -6254820.01246  21231326.3304   21231324.6704
       315.4494
 04  9 10 16  7 30.0020000  0  6G 1G20G11G14G23G25
  -8654385.90249  -6733229.82446  21371101.0024   21371099.7604
       875.3464
  -7671646.34848  -5975331.73443  22993466.3854   22993465.0294
      2405.1634
  -3870167.81249  -3007999.61345  21739870.5254   21739868.2564
      -663.1974
  12831567.98848   9982477.78143  23243265.4864   23243264.2324
     -3039.1004
  -1897770.75447  -1471060.78142  24236719.4714   24236716.4754
      2552.7044
  -8043753.47349  -6258403.89846  21230451.0334   21230449.6074
       306.6224
 04  9 10 16  7 45.0020000  0  6G 1G20G11G14G23G25
  -8667437.87549  -6743400.19546  21368617.4244   21368616.3614
       870.1324
  -7707695.25848  -6003421.78543  22986607.0884   22986605.6894
      2403.2614
  -3860083.01648  -3000141.34445  21741789.7214   21741787.7404
      -672.3204
  12877175.43048  10018016.03143  23251944.4324   23251943.2324
     -3040.4964
  -1936024.17647  -1500868.63342  24229439.9084   24229437.4794
      2550.2284
  -8048218.89849  -6261883.44946  21229601.4394   21229599.7134
       297.6954
 04  9 10 16  8  0.0020000  0  6G 1G20G11G14G23G25
  -8680410.57049  -6753508.78946  21366148.4554   21366147.6004
       864.8464
  -7743714.28548  -6031488.56644  22979753.1354   22979751.2364
      2401.2684
  -3849860.21149  -2992175.53545  21743734.8694   21743732.9394
      -681.5204
  12922804.72748  10053571.28543  23260627.9944   23260625.9284
     -3041.9534
  -1974239.23447  -1530646.60542  24222168.1894   24222165.3464
      2547.6714
  -8052549.22349  -6265257.72746  21228777.2524   21228775.7134
       288.6884
 04  9 10 16  8 15.0020000  0  6G 1G20G11G14G23G25
  -8693306.48849  -6763557.55146  21363694.7364   21363693.8654
       859.7284
  -7779705.77048  -6059533.88743  22972904.3074   22972901.9514
      2399.4324
  -3839502.03948  -2984104.24245  21745706.0184   21745704.4634
      -690.5454
  12968453.27348  10089141.55543  23269314.2364   23269313.4324
     -3043.2364
  -2012418.42247  -1560396.60242  24214902.9324   24214900.1544
      2545.2794
  -8056746.92649  -6268528.66446  21227978.5644   21227976.9944
       279.8474
 04  9 10 16  8 30.0020000  0  6G 1G20G11G14G23G25
  -8706123.10949  -6773544.52746  21361255.8464   21361254.5374
       854.4414
  -7815666.93748  -6087555.57444  22966061.2834   22966059.1624
      2397.4114
  -3829005.90249  -2975925.44545  21747703.4004   21747701.1354
      -699.7424
  13014123.51248  10124728.71143  23278005.3694   23278004.4204
     -3044.6834
  -2050559.09447  -1590116.59042  24207644.9394   24207643.0214
      2542.7114
  -8060809.39149  -6271694.21546  21227205.6354   21227203.7644
       270.8314
 04  9 10 16  8 45.0020000  0  6G 1G20G11G14G23G25
  -8718860.87549  -6783470.05946  21358831.9244   21358830.9004
       849.1844
  -7851598.09848  -6115553.87543  22959223.5494   22959221.3654
      2395.4114
  -3818372.37148  -2967639.59045  21749726.8384   21749724.8184
      -708.9024
  13059814.76248  10160332.25443  23286699.5884   23286699.0804
     -3046.0834
  -2088661.59047  -1619806.84042  24200394.8464   24200391.9244
      2540.1664
  -8064737.03948  -6274754.71946  21226458.1044   21226456.5064
       261.8434
 04  9 10 16  9  0.0020000  0  6G 1G20G11G14G23G25
  -8731521.74649  -6793335.66846  21356422.4474   21356421.4634
       844.0584
  -7887500.90248  -6143530.07444  22952391.1894   22952389.6584
      2393.5204
  -3807603.35549  -2959248.16445  21751776.1354   21751774.0844
      -717.9344
  13105525.10548  10195950.65643  23295398.4084   23295397.5144
     -3047.3564
  -2126727.51247  -1649468.58642  24193150.7834   24193148.0494
      2537.7284
  -8068531.84049  -6277711.70346  21225736.1824   21225734.6194
       252.9874
 04  9 10 16  9 15.0020000  0  6G 1G20G11G14G23G25
  -8744103.21549  -6803139.41446  21354028.5644   21354027.5414
       838.7654
  -7923372.59048  -6171482.03944  22945565.3854   22945563.5534
      2391.4464
  -3796696.29349  -2950749.16446  21753851.6114   21753849.5804
      -727.1374
  13151256.78148  10231585.71143  23304100.7834   23304099.6824
     -3048.7784
  -2164754.45747  -1679099.96543  24185914.1824   24185911.8964
      2535.1304
  -8072191.14149  -6280563.11346  21225039.8464   21225038.1394
       243.9534
 04  9 10 16  9 30.0020000  0  6G 1G20G11G14G23G25
  -8756606.65649  -6812882.35246  21351649.1584   21351648.0924
       833.5634
  -7959214.44548  -6199410.75443  22938745.1194   22938742.8894
      2389.4574
  -3785652.72348  -2942143.80545  21755953.0024   21755951.1354
      -736.2384
  13197008.40648  10267236.29343  23312807.1974   23312806.5214
     -3050.1084
  -2202743.85547  -1708702.08242  24178685.1504   24178682.4984
      2532.6274
  -8075716.14848  -6283309.86746  21224369.0494   21224367.1394
       235.0014
 04  9 10 16  9 45.0020000  0  6G 1G20G11G14G23G25
  -8769033.07849  -6822565.27746  21349284.6354   21349283.4824
       828.4284
  -7995027.07048  -6227316.68743  22931929.6824   22931927.4794
      2387.5084
  -3774473.47749  -2933432.71145  21758080.5724   21758078.8144
      -745.2834
  13242778.93448  10302901.60243  23321516.6744   23321515.7484
     -3051.3684
  -2240696.30547  -1738275.40242  24171463.0494   24171460.5254
      2530.1634
  -8079107.91849  -6285952.80146  21223723.4084   21223721.7714
       226.1184
 04  9 10 16 10  0.0020000  0  6G 1G20G11G14G23G25
  -8781381.09449  -6832187.10546  21346934.6974   21346933.6044
       823.2014
  -8030809.01248  -6255198.71943  22925120.7134   22925118.7324
      2385.4634
  -3763157.28549  -2924614.91445  21760233.7294   21760231.8774
      -754.4134
  13288569.60248  10338582.62543  23330230.7444   23330229.3464
     -3052.7114
  -2278610.44947  -1767818.89842  24164247.9554   24164245.3114
      2527.6104
  -8082365.03949  -6288490.81646  21223103.6664   21223101.9864
       217.1414
 04  9 10 16 10 15.0020000  0  6G 1G20G11G14G23G25
  -8793652.52049  -6841749.25846  21344599.6114   21344598.2214
       818.0954
  -8066561.77748  -6283058.02043  22918316.9554   22918315.0184
      2383.5184
  -3751706.00848  -2915691.86345  21762413.1664   21762410.7954
      -763.4184
  13334378.41848  10374277.75443  23338947.5334   23338946.8034
     -3053.9214
  -2316488.09847  -1797333.93442  24157039.9714   24157036.9754
      2525.1774
  -8085489.19549  -6290925.22746  21222509.0414   21222507.1624
       208.2774
 04  9 10 16 10 30.0020000  0  6G 1G20G11G14G23G25
  -8805847.29749  -6851251.69146  21342278.7444   21342277.8734
       812.9854
  -8102285.18048  -6310894.42643  22911518.8854   22911517.4364
      2381.5604
  -3740119.77049  -2906663.64845  21764617.7834   21764615.6394
      -772.4164
  13380205.18848  10409986.91043  23347668.2914   23347666.7794
     -3055.1184
  -2354329.05547  -1826820.37542  24149840.1354   24149836.3734
      2522.7304
  -8088480.41849  -6293256.05146  21221940.0964   21221938.2134
       199.4154
 04  9 10 16 10 45.0020000  0  6G 1G20G11G14G23G25
  -8817964.66049  -6860693.78946  21339972.9474   21339971.8344
       807.8244
  -8137978.18748  -6338707.15243  22904726.7524   22904725.4674
      2379.5344
  -3728397.68749  -2897529.59445  21766848.4634   21766846.5374
      -781.4724
  13426050.69948  10445710.65643  23356392.4794   23356391.1114
     -3056.3674
  -2392132.45748  -1856277.57442  24142646.0724   24142642.9474
      2520.2274
  -8091337.75849  -6295482.54346  21221395.8774   21221394.5614
       190.4894
 04  9 10 16 11  0.0020000  0  6G 1G20G11G14G23G25
  -8830004.80549  -6870075.71946  21337681.8614   21337680.7604
       802.6764
  -8173640.78548  -6366496.19144  22897940.6504   22897938.7714
      2377.5074
  -3716540.09049  -2888289.93445  21769105.2214   21769102.8464
      -790.5074
  13471914.69948  10481448.78943  23365119.7684   23365118.8854
     -3057.6004
  -2429898.35247  -1885705.52343  24135458.9004   24135456.1234
      2517.7264
  -8094061.28149  -6297604.77346  21220877.7214   21220876.3694
       181.5684
 04  9 10 16 11 15.0020000  0  6G 1G20G11G14G23G25
  -8841967.19949  -6879397.06646  21335405.3074   21335404.4754
       797.4934
  -8209272.18448  -6394260.92244  22891160.2444   22891158.5374
      2375.4274
  -3704546.57449  -2878944.36345  21771387.1824   21771385.3304
      -799.5684
  13517797.49648  10517201.59443  23373851.1824   23373849.8614
     -3058.8534
  -2467626.07047  -1915103.73443  24128279.1194   24128276.7564
      2515.1814
  -8096650.47349  -6299622.32846  21220385.2444   21220383.6274
       172.6134
 04  9 10 16 11 30.0020000  0  6G 1G20G11G14G23G25
  -8853851.57449  -6888657.61746  21333144.0104   21333142.7754
       792.2924
  -8244871.84448  -6422000.92244  22884385.8854   22884384.1894
      2373.3114
  -3692416.49649  -2869492.38345  21773695.5724   21773693.5214
      -808.6724
  13563699.46148  10552969.32043  23382585.9714   23382585.6074
     -3060.1314
  -2505315.16847  -1944471.84043  24121107.5104   24121104.7914
      2512.6074
  -8099104.90649  -6301534.86746  21219918.3384   21219916.3264
       163.6294
 04  9 10 16 11 45.0020000  0  6G 1G20G11G14G23G25
  -8865658.78949  -6897858.03946  21330897.0254   21330895.8344
       787.1484
  -8280440.38348  -6449716.66843  22877617.1974   22877615.4944
      2371.2364
  -3680150.94549  -2859934.83645  21776029.7524   21776027.6584
      -817.7034
  13609619.46148  10588751.09043  23391324.2834   23391324.1044
     -3061.3334
  -2542966.47747  -1973810.51243  24113942.5334   24113940.1894
      2510.0874
  -8101425.48849  -6303343.10946  21219476.5574   21219475.0374
       154.7054
 04  9 10 16 12  0.0020000  0  6G 1G20G11G14G23G25
  -8877387.96149  -6906997.66846  21328665.2834   21328663.9434
       781.9454
  -8315976.79748  -6477407.37544  22870855.0414   22870853.2644
      2369.0944
  -3667748.99648  -2850271.02045  21778389.5574   21778387.7794
      -826.7974
  13655558.32448  10624547.57043  23400066.3544   23400065.5644
     -3062.5914
  -2580578.94947  -2003118.91843  24106785.2134   24106782.2214
      2507.4984
  -8103611.26248  -6305046.30946  21219060.5104   21219058.7994
       145.7184
 04  9 10 16 12 15.0020000  0  6G 1G20G11G14G23G25
  -8889038.53549  -6916076.03946  21326448.2444   21326447.0884
       776.7054
  -8351480.16448  -6505072.33643  22864099.0184   22864096.8464
      2366.8914
  -3655210.15648  -2840500.51645  21780775.9554   21780773.5064
      -835.9234
  13701516.59448  10660359.18443  23408812.4634   23408810.6504
     -3063.8854
  -2618152.09848  -2032396.67643  24099635.6824   24099632.7014
      2504.8774
  -8105661.54349  -6306643.93446  21218670.5024   21218668.4904
       136.6854
 04  9 10 16 12 30.0020000  0  6G 1G20G11G14G23G25
  -8900611.55149  -6925093.96946  21324245.8304   21324244.8224
       771.5344
  -8386951.28148  -6532712.15643  22857348.8384   22857347.3734
      2364.7414
  -3642535.63749  -2830624.28545  21783187.2364   21783185.6354
      -844.9684
  13747493.13748  10696185.01643  23417561.5184   23417559.2644
     -3065.1034
  -2655686.68447  -2061644.38742  24092493.0574   24092490.1434
      2502.3064
  -8107577.35249  -6308136.77746  21218305.9244   21218304.2484
       127.7214
 04  9 10 16 12 45.0020000  0  6G 1G20G11G14G23G25
  -8912106.46149  -6934051.03546  21322058.6274   21322057.2994
       766.3274
  -8422389.42248  -6560326.28544  22850605.0804   22850603.1584
      2362.5434
  -3629724.98048  -2820641.98045  21785625.3694   21785623.4554
      -854.0444
  13793488.29348  10732025.40243  23426313.6584   23426311.8384
     -3066.3444
  -2693182.02347  -2090861.52742  24085357.4324   24085354.6004
      2499.6894
  -8109358.16849  -6309524.42246  21217967.2444   21217965.0574
       118.7214
 04  9 10 16 13  0.0020000  0  6G 1G20G11G14G23G25
  -8923524.80949  -6942948.44146  21319885.4324   21319884.4754
       761.2234
  -8457795.84848  -6587915.71144  22843867.9944   22843865.9674
      2360.4284
  -3616779.43049  -2810554.55545  21788089.2294   21788087.0574
      -863.0374
  13839500.52348  10767879.05143  23435069.3144   23435068.1704
     -3067.4824
  -2730639.61347  -2120049.23042  24078229.1114   24078226.5104
      2497.1734
  -8111005.39149  -6310807.96946  21217653.7214   21217651.8344
       109.8154
 04  9 10 16 13 15.0020000  0  6G 1G20G11G14G23G25
  -8934866.09449  -6951785.82446  21317727.4794   21317726.1784
       756.0864
  -8493169.89848  -6615479.91444  22837136.6744   22837134.9394
      2358.2704
  -3603698.58648  -2800361.69545  21790578.1274   21790576.4364
      -872.0564
  13885530.27348  10803746.34043  23443828.6354   23443827.6354
     -3068.6504
  -2768058.87947  -2149207.09042  24071109.3074   24071105.9594
      2494.6184
  -8112518.41049  -6311986.94946  21217365.7294   21217363.9984
       100.8684
 04  9 10 16 13 30.0020000  0  6G 1G20G11G14G23G25
  -8946129.70749  -6960562.66046  21315583.9084   21315582.8894
       750.9084
  -8528510.69549  -6643018.19144  22830411.4084   22830409.6194
      2356.0534
  -3590482.07048  -2790063.13345  21793093.1194   21793091.4944
      -881.1014
  13931577.85948  10839627.55543  23452591.3384   23452590.4394
     -3069.8394
  -2805439.03947  -2178334.50042  24063996.0104   24063993.2404
      2492.0114
  -8113896.73448  -6313060.96546  21217103.4084   21217101.9124
        91.8884
 04  9 10 16 13 45.0020000  0  6G 1G20G11G14G23G25
  -8957316.97749  -6969280.01246  21313455.2604   21313454.1464
       745.8184
  -8563819.36348  -6670531.43444  22823692.1824   22823690.4714
      2353.9114
  -3577131.17249  -2779659.85545  21795633.8464   21795631.9794
      -890.0604
  13977641.93047  10875521.59843  23461357.4634   23461355.9394
     -3070.9384
  -2842781.43047  -2207432.46942  24056890.5494   24056887.0374
      2489.4934
  -8115141.58649  -6314030.97746  21216866.5104   21216864.6234
        82.9904
 04  9 10 16 14  0.0020000  0  6G 1G20G11G14G23G25
  -8968427.81649  -6977937.80146  21311340.7294   21311340.0214
       740.7234
  -8599095.59848  -6698019.42244  22816979.3074   22816977.5374
      2351.7494
  -3563645.87148  -2769151.85245  21798200.0964   21798198.1074
      -899.0204
  14023722.46548  10911428.47343  23470125.8304   23470124.9594
     -3072.0364
  -2880085.88747  -2236500.86342  24049790.9084   24049788.0804
      2486.9644
  -8116252.94948  -6314896.96946  21216654.9244   21216653.5184
        74.0914
 04  9 10 16 14 15.0020000  0  6G 1G20G11G14G23G25
  -8979464.96149  -6986538.18046  21309240.7604   21309239.6824
       735.8104
  -8634341.86748  -6725484.04344  22810271.8694   22810270.7174
      2349.7514
  -3550028.95749  -2758541.29745  21800791.1194   21800789.3264
      -907.7944
  14069816.71548  10947346.03943  23478897.4714   23478896.2954
     -3072.9504
  -2917354.84447  -2265541.60542  24042699.6744   24042696.5214
      2484.5974
  -8117233.32849  -6315660.89846  21216468.6584   21216466.9434
        65.3594
 04  9 10 16 14 30.0020000  0  6G 1G20G11G14G23G25
  -8990426.44949  -6995079.59846  21307154.8224   21307153.7524
       730.7664
  -8669555.91848  -6752923.54344  22803571.0414   22803569.6044
      2347.6034
  -3536278.45348  -2747826.64545  21803407.5574   21803406.5144
      -916.7004
  14115926.52748  10983275.73043  23487671.7364   23487670.1544
     -3073.9874
  -2954586.27747  -2294553.08642  24035614.1114   24035611.1234
      2482.0964
  -8118080.71549  -6316321.19546  21216307.0184   21216305.6434
        56.4924
 04  9 10 16 14 45.0020000  0  6G 1G20G11G14G23G25
  -9001310.14849  -7003560.39546  21305083.5334   21305082.3344
       725.5804
  -8704735.37548  -6780336.10544  22796876.3694   22796874.5064
      2345.2974
  -3522392.35548  -2737006.32845  21806050.5254   21806048.4864
      -925.7404
  14162053.84448  11019219.06343  23496449.6044   23496448.4554
     -3075.1544
  -2991777.95347  -2323533.62542  24028536.1664   24028534.1004
      2479.4454
  -8118793.07449  -6316876.28546  21216171.4324   21216169.9044
        47.4914
 04  9 10 16 15  0.0020000  0  6G 1G20G11G14G23G25
  -9012116.18449  -7011980.68446  21303027.2994   21303026.2874
       720.4024
  -8739880.10248  -6807721.61744  22790188.8464   22790187.0614
      2342.9824
  -3508370.76649  -2726080.43445  21808718.7994   21808716.9244
      -934.7734
  14208198.58248  11055175.95343  23505230.5104   23505229.6664
     -3076.3164
  -3028929.86747  -2352483.15642  24021466.9394   24021463.4714
      2476.7944
  -8119370.39849  -6317326.15246  21216062.2364   21216060.2794
        38.4884
 04  9 10 16 15 15.0020000  0  6G 1G20G11G14G23G25
  -9022845.25049  -7020340.99646  21300985.6664   21300984.6074
       715.2714
  -8774990.66048  -6835080.48844  22783507.8144   22783505.8224
      2340.7044
  -3494214.55548  -2715049.64146  21811412.3854   21811410.7054
      -943.7474
  14254359.98048  11091145.84043  23514015.3934   23514014.5374
     -3077.4274
  -3066042.71947  -2381402.23442  24014404.5334   24014400.8854
      2474.1904
  -8119813.32449  -6317671.28146  21215977.4394   21215975.7714
        29.5284
 04  9 10 16 15 30.0020000  0  6G 1G20G11G14G23G25
  -9033496.49249  -7028640.66446  21298958.6044   21298957.4434
       710.0834
  -8810065.93448  -6862411.87144  22776832.5334   22776830.9944
      2338.3524
  -3479922.72349  -2703913.14845  21814132.2834   21814130.2604
      -952.7894
  14300538.59848  11127129.14843  23522802.5254   23522801.9674
     -3078.5744
  -3103115.44147  -2410290.08242  24007349.8694   24007346.3774
      2471.5154
  -8120120.93749  -6317910.98046  21215919.0254   21215917.1194
        20.5084
 04  9 10 16 15 45.0020000  0  6G 1G20G11G14G23G25
  -9044070.08649  -7036879.83246  21296946.7294   21296945.3264
       704.9064
  -8845105.76648  -6889715.63744  22770165.2994   22770163.6464
      2335.9894
  -3465495.55948  -2692671.21945  21816877.8544   21816875.6784
      -961.8114
  14346734.25848  11163125.72743  23531593.6504   23531593.9044
     -3079.7114
  -3140148.25047  -2439146.78942  24000302.6274   24000299.3384
      2468.8544
  -8120293.45349  -6318045.41046  21215886.3384   21215884.6074
        11.5014
 04  9 10 16 16  0.0020000  0  6G 1G20G11G14G23G25
  -9054567.34049  -7045059.52046  21294949.1664   21294948.0924
       699.8174
  -8880111.27748  -6916992.65244  22763504.0334   22763502.6704
      2333.7014
  -3450934.47749  -2681324.94945  21819648.4864   21819646.4514
      -970.7394
  14392945.60248  11199134.52343  23540387.5254   23540386.9284
     -3080.7564
  -3177142.24247  -2467973.27343  23993262.7524   23993260.1864
      2466.2664
  -8120332.16849  -6318075.57446  21215878.8464   21215877.2324
         2.5814
 04  9 10 16 16 15.0020000  0  6G 1G20G11G14G23G25
  -9064988.50849  -7053179.91446  21292966.0494   21292964.8964
       694.7454
  -8915082.54348  -6944242.98844  22756849.0024   22756847.0144
      2331.4184
  -3436239.78548  -2669874.55545  21822444.8614   21822442.6934
      -979.6464
  14439172.32048  11235155.33243  23549183.7684   23549182.4674
     -3081.7814
  -3214097.55547  -2496769.62143  23986230.9714   23986228.2874
      2463.6884
  -8120237.21149  -6318001.57446  21215896.6824   21215895.1974
        -6.3304
 04  9 10 16 16 30.0020000  0  6G 1G20G11G14G23G25
  -9075334.12149  -7061241.41846  21290997.4164   21290996.2404
       689.7084
  -8950019.69148  -6971466.74244  22750200.4164   22750198.5254
      2329.1434
  -3421411.92248  -2658320.39545  21825266.3854   21825264.4364
      -988.5244
  14485413.74247  11271187.57843  23557983.0964   23557982.4634
     -3082.7614
  -3251014.53547  -2525536.09043  23979205.8694   23979202.6894
      2461.1324
  -8120009.10949  -6317823.84046  21215940.2684   21215938.6004
       -15.2074
 04  9 10 16 16 45.0020000  0  6G 1G20G11G14G23G25
  -9085603.17249  -7069243.27746  21289043.5184   21289042.2404
       684.6034
  -8984921.63348  -6998663.03544  22743558.4084   22743557.4474
      2326.7964
  -3406450.14149  -2646661.87945  21828113.7134   21828111.5024
      -997.4524
  14531670.73847  11307231.94543  23566785.7684   23566785.1824
     -3083.8004
  -3287892.23447  -2554271.94542  23972187.7914   23972184.5374
      2458.5134
  -8119646.88749  -6317541.58646  21216009.0334   21216007.5184
       -24.1484
 04  9 10 16 17  0.0020000  0  6G 1G20G11G14G23G25
  -9095795.42249  -7077185.29746  21287103.5574   21287102.6114
       679.4834
  -9019787.83248  -7025831.49644  22736923.7364   22736922.3464
      2324.4134
  -3391354.15648  -2634898.80145  21830986.2684   21830984.3504
     -1006.3994
  14577943.48047  11343288.59043  23575590.4714   23575589.8504
     -3084.8494
  -3324730.19148  -2582976.82842  23965178.3384   23965174.4394
      2455.8644
  -8119150.32049  -6317154.64846  21216103.6354   21216102.1234
       -33.1044
 04  9 10 16 17 15.0020000  0  6G 1G20G11G14G23G25
  -9105910.25449  -7085066.97746  21285178.8614   21285177.7294
       674.3224
  -9054617.37148  -7052971.41044  22730296.0184   22730294.7294
      2321.9694
  -3376123.38349  -2623030.69546  21833884.7054   21833882.3934
     -1015.3854
  14624232.58247  11379357.97742  23584399.3694   23584398.1624
     -3085.9404
  -3361527.69948  -2611650.19943  23958175.9634   23958172.3814
      2453.1674
  -8118518.68049  -6316662.46146  21216223.7754   21216222.1974
       -42.1094
 04  9 10 16 17 30.0020000  0  6G 1G20G11G14G23G25
  -9115948.64149  -7092889.09446  21283268.5574   21283268.1864
       669.2264
  -9089411.00448  -7080083.31644  22723675.2914   22723674.0884
      2319.5764
  -3360758.87548  -2611058.37945  21836808.4714   21836806.2564
     -1024.3014
  14670536.80147  11415439.14843  23593210.9944   23593210.4044
     -3086.9484
  -3398285.67248  -2640292.75443  23951181.2134   23951177.6354
      2450.5324
  -8117752.84449  -6316065.70346  21216369.4944   21216367.9394
       -51.0564
 04  9 10 16 17 45.0020000  0  6G 1G20G11G14G23G25
  -9125910.56249  -7100651.62946  21281372.7294   21281371.7404
       664.1284
  -9124168.41048  -7107166.99644  22717060.9244   22717059.6704
      2317.1604
  -3345260.63748  -2598981.84045  21839757.6894   21839755.5144
     -1033.2164
  14716856.22746  11451532.15643  23602025.0024   23602024.6664
     -3087.9624
  -3435003.87548  -2668904.34443  23944193.6274   23944190.9794
      2447.8804
  -8116852.71148  -6315364.30546  21216540.6824   21216539.2604
       -60.0094
 04  9 10 16 18  0.0020000  0  6G 1G20G11G14G23G25
  -9135796.15249  -7108354.68746  21279491.5104   21279490.4044
       659.0394
  -9158889.54748  -7134222.43444  22710454.3614   22710452.7714
      2314.7424
  -3329628.82048  -2586801.22345  21842732.4394   21842730.1234
     -1042.1214
  14763190.68847  11487636.90242  23610842.3304   23610841.9084
     -3088.9644
  -3471682.47747  -2697485.07443  23937213.4164   23937211.1704
      2445.2404
  -8115818.43448  -6314558.38346  21216737.7444   21216736.3694
       -68.9524
 04  9 10 16 18 15.0020000  0  6G 1G20G11G14G23G25
  -9145605.79349  -7115998.55946  21277624.8614   21277623.7684
       653.9764
  -9193574.58648  -7161249.73444  22703853.7834   22703851.9004
      2312.3364
  -3313864.05948  -2574517.02045  21845732.0494   21845730.2404
     -1050.9844
  14809539.68847  11523752.96543  23619662.4084   23619661.8964
     -3089.9334
  -3508321.57048  -2726034.99242  23930241.5574   23930238.6664
      2442.6064
  -8114650.52748  -6313648.32046  21216959.5964   21216958.0254
       -77.8604
 04  9 10 16 18 30.0020000  0  6G 1G20G11G14G23G25
  -9155339.05149  -7123582.92246  21275772.8074   21275771.6004
       648.8844
  -9228222.73848  -7188248.28944  22697259.9714   22697258.7214
      2309.8774
  -3297965.81649  -2562128.80545  21848757.6114   21848755.7054
     -1059.8834
  14855903.52346  11559880.60542  23628485.0024   23628485.4364
     -3090.9224
  -3544920.69948  -2754553.80543  23923277.1974   23923274.2214
      2439.9424
  -8113348.35949  -6312633.64146  21217207.7524   21217206.2524
       -86.8114
 04  9 10 16 18 45.0020000  0  6G 1G20G11G14G23G25
  -9164996.30549  -7131108.05546  21273935.0334   21273933.9904
       643.8174
  -9262834.19548  -7215218.24644  22690673.8144   22690672.2324
      2307.4304
  -3281934.54348  -2549636.93045  21851808.0884   21851806.1434
     -1068.7524
  14902281.85546  11596019.53143  23637310.5644   23637311.0414
     -3091.8894
  -3581480.14848  -2783041.67643  23916320.1664   23916316.7874
      2437.2974
  -8111912.22749  -6311514.57046  21217481.0254   21217479.4434
       -95.7424
 04  9 10 16 19  0.0020000  0  6G 1G20G11G14G23G25
  -9174577.66449  -7138574.05146  21272111.8614   21272110.6074
       638.7574
  -9297408.71948  -7242159.42644  22684094.8614   22684092.9324
      2304.9684
  -3265770.47748  -2537041.57045  21854884.0494   21854882.0184
     -1077.6044
  14948674.38346  11632169.53542  23646139.0494   23646139.3184
     -3092.8354
  -3617999.82447  -2811498.53943  23909370.2604   23909367.8034
      2434.6454
  -8110342.21948  -6310291.19946  21217779.9164   21217778.2294
      -104.6674
 04  9 10 16 19 15.0020000  0  6G 1G20G11G14G23G25
  -9184082.94949  -7145980.76246  21270303.0884   21270301.9944
       633.6864
  -9331945.93448  -7269071.54344  22677522.1744   22677520.6314
      2302.4814
  -3249473.50049  -2524342.66045  21857985.5494   21857983.1354
     -1086.4654
  14995081.26247  11668330.69542  23654969.6744   23654970.1074
     -3093.7924
  -3654479.45347  -2839924.20743  23902428.8224   23902426.3144
      2431.9754
  -8108638.18449  -6308963.37546  21218104.0884   21218102.8654
      -113.6024
 04  9 10 16 19 30.0020000  0  6G 1G20G11G14G23G25
  -9193511.04349  -7153327.33246  21268508.8464   21268507.6314
       628.5404
  -9366444.37149  -7295953.43744  22670957.7754   22670956.4794
      2299.8964
  -3233042.53949  -2511539.33245  21861111.9634   21861109.9864
     -1095.3974
  15041503.59047  11704503.89843  23663803.7684   23663803.2524
     -3094.8224
  -3690917.92647  -2868317.80143  23895494.8694   23895492.1934
      2429.2324
  -8106799.01249  -6307530.24646  21218454.5104   21218452.6744
      -122.6114
 04  9 10 16 19 45.0020000  0  6G 1G20G11G14G23G25
  -9202863.03949  -7160614.60246  21266729.2524   21266728.2754
       623.4664
  -9400905.03149  -7322805.89144  22664399.6744   22664398.4714
      2297.3774
  -3216478.66848  -2498632.43745  21864264.0804   21864262.0844
     -1104.2584
  15087940.09046  11740688.16042  23672640.4004   23672639.1784
     -3095.7674
  -3727316.21947  -2896680.06643  23888568.0334   23888565.6974
      2426.5534
  -8104825.81648  -6305992.69946  21218829.4714   21218827.8854
      -131.5464
 04  9 10 16 20  0.0020000  0  6G 1G20G11G14G23G25
  -9212139.71149  -7167843.17246  21264963.6894   21264963.2604
       618.4454
  -9435328.36748  -7349629.27044  22657849.8774   22657847.6664
      2294.8894
  -3199782.73048  -2485622.64845  21867441.3144   21867439.2294
     -1113.0624
  15134389.92646  11776882.80543  23681479.1824   23681478.9554
     -3096.6564
  -3763674.93047  -2925011.52342  23881649.1584   23881646.9794
      2423.9144
  -8102719.18449  -6304351.15646  21219230.2914   21219228.8304
      -140.4424
 04  9 10 16 20 15.0020000  0  6G 1G20G11G14G23G25
  -9221339.53549  -7175011.87146  21263213.3304   21263212.3074
       613.3224
  -9469712.66848  -7376422.23444  22651306.2994   22651304.4514
      2292.2874
  -3182953.40248  -2472508.90645  21870643.7994   21870642.2644
     -1121.9554
  15180854.54746  11813088.96543  23690321.9084   23690322.0144
     -3097.6414
  -3799992.41448  -2953310.85243  23874738.2444   23874735.6784
      2421.1664
  -8100477.83649  -6302604.64846  21219656.8614   21219654.9124
      -149.4234
 04  9 10 16 20 30.0020000  0  6G 1G20G11G14G23G25
  -9230461.95349  -7182120.24646  21261477.4794   21261476.1974
       608.1614
  -9504057.04349  -7403184.07444  22644770.9714   22644768.7644
      2289.6254
  -3165990.14548  -2459290.79745  21873871.9324   21873869.9324
     -1130.8844
  15227334.55147  11849307.09443  23699165.7604   23699166.8184
     -3098.6674
  -3836268.07847  -2981577.57843  23867835.3774   23867832.2294
      2418.3784
  -8098101.05148  -6300752.61346  21220109.4634   21220107.4594
      -158.4524
 04  9 10 16 20 45.0020000  0  6G 1G20G11G14G23G25
  -9239509.69149  -7189170.43446  21259755.7754   21259754.1394
       603.1834
  -9538363.89549  -7429916.69144  22638242.4244   22638240.5454
      2287.1234
  -3148895.78548  -2445970.52745  21877124.7604   21877122.7324
     -1139.6244
  15273826.99646  11885534.93842  23708013.4634   23708013.9204
     -3099.4964
  -3872504.35248  -3009813.62543  23860939.9084   23860936.1314
      2415.7524
  -8095591.49649  -6298797.11746  21220586.7604   21220585.1274
      -167.3044
 04  9 10 16 21  0.0020000  0  6G 1G20G11G14G23G25
  -9248483.68749  -7196163.16046  21258048.1194   21258046.7954
       598.2664
  -9572634.10949  -7456620.73444  22631721.0884   22631720.0294
      2284.6814
  -3131671.25448  -2432548.83645  21880402.6194   21880400.3774
     -1148.3024
  15320330.77047  11921771.62142  23716862.4084   23716863.1664
     -3100.2524
  -3908702.33648  -3038019.82843  23854051.6664   23854048.3184
      2413.1994
  -8092950.09049  -6296738.87946  21221089.3774   21221087.9324
      -176.0944
 04  9 10 16 21 15.0020000  0  6G 1G20G11G14G23G25
  -9257380.66849  -7203095.87546  21256354.8544   21256353.8964
       593.1324
  -9606863.91049  -7483293.29344  22625207.1824   22625205.6974
      2281.9874
  -3114313.36349  -2419023.21545  21883705.8304   21883704.0924
     -1157.1934
  15366849.22747  11958019.71942  23725715.1744   23725715.0574
     -3101.2304
  -3944858.53947  -3066193.46943  23847171.4634   23847168.2954
      2410.4144
  -8090173.51249  -6294575.30946  21221617.7604   21221615.9474
      -185.1054
 04  9 10 16 21 30.0020000  0  6G 1G20G11G14G23G25
  -9266202.91049  -7209970.34446  21254676.1114   21254675.0804
       588.1494
  -9641055.54349  -7509936.11744  22618700.7604   22618699.0024
      2279.4424
  -3096824.26248  -2405395.34845  21887033.6584   21887032.1824
     -1165.9404
  15413380.03547  11994277.46542  23734569.3144   23734569.3894
     -3102.0544
  -3980975.12148  -3094336.24243  23840298.6354   23840295.8614
      2407.7724
  -8087264.17648  -6292308.28946  21222171.3464   21222169.8654
      -193.9564
 04  9 10 16 21 45.0020000  0  6G 1G20G11G14G23G25
  -9274948.66049  -7216785.21146  21253011.9794   21253010.9904
       583.0504
  -9675206.77049  -7536547.46144  22612201.9714   22612200.3654
      2276.7484
  -3079202.51649  -2391664.13745  21890386.9794   21890385.0184
     -1174.7834
  15459924.93047  12030546.19142  23743426.9944   23743425.7954
     -3102.9934
  -4017050.15247  -3122446.62943  23833433.1194   23833430.5844
      2405.0024
  -8084220.10949  -6289936.29346  21222750.7214   21222748.8694
      -202.9384
 04  9 10 16 22  0.0020000  0  6G 1G20G11G14G23G25
  -9283618.80949  -7223541.16846  21251362.0104   21251360.8774
       578.0104
  -9709318.21149  -7563127.79744  22605710.6504   22605709.0644
      2274.0964
  -3061449.08648  -2377830.29345  21893765.3304   21893763.4674
     -1183.5624
  15506482.96147  12066825.14142  23752286.9394   23752286.2914
     -3103.8694
  -4053084.48448  -3150525.30943  23826576.5254   23826574.1004
      2402.2894
  -8081042.27049  -6287460.04346  21223355.6044   21223353.6744
      -211.8564
 04  9 10 16 22 15.0020000  0  6G 1G20G11G14G23G25
  -9292212.84849  -7230237.82446  21249726.3694   21249725.4164
       572.9364
  -9743389.25849  -7589676.66044  22599227.1824   22599225.3694
      2271.4034
  -3043563.56648  -2363893.53945  21897168.6584   21897167.0374
     -1192.3684
  15553054.42647  12103114.54742  23761149.0414   23761148.6354
     -3104.7644
  -4089077.49247  -3178571.80143  23819727.0414   23819724.6004
      2399.5344
  -8077730.21948  -6284879.23046  21223985.8464   21223983.9124
      -220.8034
 04  9 10 16 22 30.0020000  0  6G 1G20G11G14G23G25
  -9300731.36349  -7236875.62546  21248105.7214   21248104.4904
       567.9014
  -9777420.21949  -7616194.28544  22592751.3224   22592749.3814
      2268.7314
  -3025546.38348  -2349854.18745  21900597.1504   21900595.5414
     -1201.1464
  15599638.70347  12139413.94942  23770013.2754   23770013.7294
     -3105.6184
  -4125029.53548  -3206586.37943  23812886.3304   23812883.2714
      2396.8034
  -8074284.42649  -6282194.19546  21224641.2524   21224639.9364
      -229.7204
 04  9 10 16 22 45.0020000  0  6G 1G20G11G14G23G25
  -9309174.55149  -7243454.73446  21246498.9084   21246497.9434
       562.8794
  -9811410.94149  -7642680.57044  22586283.3614   22586281.3964
      2266.0484
  -3007398.10548  -2335712.68045  21904050.9084   21904049.2364
     -1209.8854
  15646235.59047  12175723.16842  23778880.7604   23778880.7094
     -3106.4594
  -4160940.85248  -3234569.19943  23806052.4164   23806049.0254
      2394.0884
  -8070705.24649  -6279405.21946  21225322.5414   21225321.0374
      -238.6124
 04  9 10 16 23  0.0020000  0  6G 1G20G11G14G23G25
  -9317541.90649  -7249974.75446  21244906.6974   21244905.8184
       557.8244
  -9845360.69549  -7669134.91844  22579823.0334   22579820.8424
      2263.3174
  -2989118.16449  -2321468.57445  21907529.5724   21907527.5534
     -1218.6634
  15692845.47347  12212042.50842  23787750.3464   23787750.2364
     -3107.3264
  -4196810.71147  -3262519.71543  23799226.0964   23799223.0844
      2391.3244
  -8066991.96149  -6276511.74646  21226029.1894   21226027.1624
      -247.5524
 04  9 10 16 23 15.0020000  0  6G 1G20G11G14G23G25
  -9325832.66849  -7256435.09046  21243329.1744   21243328.1464
       552.7174
  -9879268.44149  -7695556.53144  22573370.0804   22573369.1274
      2260.5164
  -2970705.90248  -2307121.37945  21911033.2834   21911031.4394
     -1227.4844
  15739469.03948  12248372.53542  23796622.7214   23796622.1194
     -3108.2384
  -4232638.25448  -3290437.26243  23792408.5254   23792405.7604
      2388.5034
  -8063143.91049  -6273513.26646  21226761.1824   21226759.4324
      -256.5374
 04  9 10 16 23 30.0020000  0  6G 1G20G11G14G23G25
  -9334049.74649  -7262838.01646  21241765.3694   21241764.0764
       547.8054
  -9913136.85549  -7721947.48444  22566925.4084   22566923.7404
      2257.8944
  -2952164.46948  -2292673.51245  21914561.5254   21914559.5454
     -1236.0964
  15786103.34448  12284710.93043  23805497.2444   23805496.7404
     -3108.9544
  -4268426.39148  -3318324.09043  23785598.0254   23785595.6864
      2385.8764
  -8059164.04348  -6270412.07446  21227518.9004   21227517.0024
      -265.3244
 04  9 10 16 23 45.0020000  0  6G 1G20G11G14G23G25
  -9342192.28149  -7269182.84846  21240215.8144   21240215.0024
       542.8364
  -9946964.80149  -7748306.92644  22560487.7994   22560486.7134
      2255.1964
  -2933493.00849  -2278124.33645  21918114.5574   21918112.5764
     -1244.7644
  15832749.16447  12321058.27742  23814372.5334   23814373.4164
     -3109.7214
  -4304174.02348  -3346179.36743  23778796.0184   23778792.8814
      2383.1764
  -8055051.38349  -6267207.39846  21228301.0644   21228299.3654
      -274.1774
 04  9 10 16 24  0.0020000  0  6G 1G20G11G14G23G25
  -9350261.12549  -7275470.25846  21238680.2524   21238679.5924
       537.9234
  -9980752.95349  -7774635.34844  22554058.1274   22554056.6194
      2252.5434
  -2914692.24649  -2263474.40645  21921692.4394   21921690.3694
     -1253.3844
  15879405.57447  12357413.85542  23823251.1434   23823251.2684
     -3110.4274
  -4339881.98447  -3374003.73443  23772000.3304   23771997.5684
      2380.5314
  -8050806.77749  -6263899.91046  21229109.0254   21229107.2644
      -282.9744
 04  9 10 16 24 15.0020000  0  6G 1G20G11G14G23G25
  -9358255.02049  -7281699.26246  21237159.4084   21237158.1114
       532.9264
 -10014499.62149  -7800931.44944  22547636.6584   22547634.7214
      2249.7784
  -2895761.22348  -2248722.97345  21925294.7524   21925292.9674
     -1262.0684
  15926073.68047  12393778.57042  23832132.6824   23832131.1394
     -3111.2074
  -4375548.94948  -3401796.16043  23765213.1434   23765210.7054
      2377.7984
  -8046429.01249  -6260488.67246  21229942.0494   21229940.2444
      -291.8514
 04  9 10 16 24 30.0020000  0  6G 1G20G11G14G23G25
  -9366173.90249  -7287869.81646  21235652.5884   21235651.0064
       527.9264
 -10048204.58249  -7827195.05544  22541223.3614   22541221.0844
      2246.9974
  -2876700.03549  -2233870.12145  21928922.1114   21928920.4554
     -1270.7464
  15972753.59448  12430152.49242  23841015.9164   23841014.6974
     -3111.9944
  -4411174.69548  -3429556.46543  23758434.1974   23758431.3574
      2375.0504
  -8041918.03149  -6256973.62546  21230800.6824   21230798.5414
      -300.7324
 04  9 10 16 24 45.0020000  0  6G 1G20G11G14G23G25
  -9374016.36349  -7293980.82846  21234160.2914   21234158.7404
       522.8314
 -10081866.15248  -7853424.84044  22534817.0254   22534815.8814
      2244.1054
  -2857507.28148  -2218914.73445  21932574.1894   21932572.5254
     -1279.5174
  16019446.53147  12466536.55942  23849900.4714   23849900.8074
     -3112.8624
  -4446757.76648  -3457283.51643  23751663.2364   23751659.8614
      2372.2054
  -8037272.55149  -6253353.77046  21231684.5414   21231682.8544
      -309.6994
 04  9 10 16 25  0.0020000  0  6G 1G20G11G14G23G25
  -9381785.25449  -7300034.50446  21232681.1504   21232680.1154
       517.9264
 -10115486.85248  -7879622.77744  22528419.3384   22528418.2404
      2241.3804
  -2838185.83249  -2203859.07845  21936250.6894   21936249.1824
     -1288.0974
  16066149.74247  12502928.62142  23858788.4164   23858788.2874
     -3113.5474
  -4482300.70748  -3484979.30143  23744899.4244   23744896.3034
      2369.5294
  -8032495.19149  -6249631.15246  21232593.6974   21232591.8034
      -318.4914
 04  9 10 16 25 15.0020000  0  6G 1G20G11G14G23G25
  -9389478.23449  -7306029.03546  21231217.3934   21231216.4004
       512.8654
 -10149064.14148  -7905786.89144  22522030.0574   22522028.3074
      2238.4864
  -2818733.45749  -2188701.39545  21939953.0574   21939950.7214
     -1296.8254
  16112865.47348  12539330.47742  23867677.8224   23867677.0144
     -3114.3824
  -4517801.20347  -3512642.00043  23738143.5494   23738140.7684
      2366.7004
  -8027583.75449  -6245804.05546  21233527.9714   21233526.6864
      -327.4294
 04  9 10 16 25 30.0020000  0  6G 1G20G11G14G23G25
  -9397095.34049  -7311964.43446  21229768.0184   21229767.4124
       507.8074
 -10182597.70749  -7931916.94144  22515648.5104   22515647.5764
      2235.5714
  -2799150.00448  -2173441.57445  21943679.2604   21943677.5494
     -1305.5644
  16159593.71148  12575742.06342  23876570.1194   23876569.8774
     -3115.2164
  -4553259.15647  -3540271.57043  23731396.1434   23731393.3184
      2363.8644
  -8022538.32848  -6241872.55546  21234488.1974   21234486.6624
      -336.3624
 04  9 10 16 25 45.0020000  0  6G 1G20G11G14G23G25
  -9404637.67649  -7317841.57846  21228332.7684   21228331.7644
       502.8224
 -10216088.41848  -7958013.58644  22509275.4324   22509274.0764
      2232.7144
  -2779436.98848  -2158080.80545  21947430.4554   21947428.6624
     -1314.2014
  16206333.24648  12612162.44142  23885464.0494   23885464.4824
     -3115.9694
  -4588675.55948  -3567868.76243  23724656.4944   23724653.8814
      2361.0934
  -8017359.88349  -6237837.39846  21235473.5414   21235471.7054
      -345.2304
 04  9 10 16 26  0.0020000  0  6G 1G20G11G14G23G25
  -9412105.51649  -7323660.68046  21226911.8694   21226910.6434
       497.8564
 -10249536.24249  -7984076.81244  22502910.4714   22502908.8384
      2229.8554
  -2759594.64148  -2142619.25445  21951206.5414   21951204.1934
     -1322.8234
  16253083.64847  12648591.29342  23894360.7834   23894360.0334
     -3116.6934
  -4624050.54748  -3595433.68743  23717924.7444   23717922.7564
      2358.3334
  -8012048.73049  -6233698.84046  21236484.3144   21236482.7564
      -354.0774
 04  9 10 16 26 15.0020000  0  6G 1G20G11G14G23G25
  -9419499.98049  -7329422.60246  21225504.6974   21225503.5764
       492.9644
 -10282942.07449  -8010107.32444  22496553.6744   22496551.9324
      2227.0554
  -2739624.30548  -2127057.96945  21955006.5254   21955004.6824
     -1331.3564
  16299843.67248  12685027.64143  23903259.2914   23903258.4554
     -3117.3354
  -4659385.09848  -3622967.08243  23711200.9244   23711198.7134
      2355.6374
  -8006606.00449  -6229457.75846  21237519.9474   21237518.5294
      -362.8484
 04  9 10 16 26 30.0020000  0  6G 1G20G11G14G23G25
  -9426819.36749  -7335126.02046  21224112.0804   21224110.7404
       487.9594
 -10316303.98849  -8036103.61744  22490205.1974   22490203.2834
      2224.1284
  -2719524.34049  -2111395.66845  21958831.6354   21958829.8464
     -1339.9984
  16346615.20348  12721472.94142  23912159.2604   23912159.0254
     -3118.1024
  -4694677.51648  -3650467.66443  23704485.1744   23704482.8264
      2352.8284
  -8001029.99249  -6225112.82046  21238581.3774   21238579.5104
      -371.7344
 04  9 10 16 26 45.0020000  0  6G 1G20G11G14G23G25
  -9434063.77349  -7340771.01246  21222733.4084   21222732.2564
       482.9604
 -10349621.76649  -8062065.52044  22483864.9634   22483862.7324
      2221.1854
  -2699295.02049  -2095632.57845  21962681.2444   21962679.3504
     -1348.6214
  16393398.03547  12757927.04742  23921061.7214   23921061.0724
     -3118.8554
  -4729927.85948  -3677935.44143  23697777.7054   23697774.1784
      2350.0234
  -7995320.81649  -6220664.10546  21239667.7914   21239666.2364
      -380.6124
 04  9 10 16 27  0.0020000  0  6G 1G20G11G14G23G25
  -9441233.02349  -7346357.43446  21221369.2294   21221368.1704
       477.9504
 -10382894.85549  -8087992.60944  22477533.7684   22477531.5684
      2218.2064
  -2678936.19548  -2079768.58645  21966555.3464   21966553.9674
     -1357.2554
  16440192.16847  12794389.97742  23929966.2444   23929966.2134
     -3119.6094
  -4765135.71547  -3705370.12143  23691077.8224   23691073.9944
      2347.1904
  -7989478.29749  -6216111.49646  21240779.3224   21240777.9594
      -389.5014
 04  9 10 16 27 15.0020000  0  6G 1G20G11G14G23G25
  -9448329.38349  -7351887.06646  21220018.4714   21220017.6584
       473.0914
 -10416125.30549  -8113886.45744  22471209.6824   22471208.5184
      2215.3634
  -2658450.19148  -2063805.47745  21970453.7914   21970452.1974
     -1365.7344
  16486995.32448  12830859.93442  23938872.3074   23938871.4324
     -3120.2104
  -4800303.29347  -3732773.40643  23684385.2524   23684381.8854
      2344.5054
  -7983504.66448  -6211456.71946  21241916.4394   21241914.1464
      -398.2424
 04  9 10 16 27 30.0020000  0  6G 1G20G11G14G23G25
  -9455348.59449  -7357356.57446  21218682.6974   21218681.7094
       467.9474
 -10449308.67249  -8139743.61344  22464895.0334   22464893.6234
      2212.2244
  -2637832.75449  -2047739.95345  21974376.9084   21974375.6544
     -1374.4964
  16533811.82847  12867340.28942  23947781.6274   23947780.6624
     -3121.1004
  -4835426.07848  -3760141.79343  23677701.3934   23677698.3264
      2341.5194
  -7977395.71949  -6206696.50846  21243078.5804   21243076.7484
      -407.2634
 04  9 10 16 27 45.0020000  0  6G 1G20G11G14G23G25
  -9462294.26649  -7362768.78946  21217361.3694   21217360.3774
       463.0454
 -10482448.16849  -8165566.60244  22458589.1824   22458587.5884
      2209.3004
  -2617087.74648  -2031575.02745  21978324.6824   21978323.0374
     -1383.0014
  16580637.92247  12903828.11342  23956692.3694   23956692.5214
     -3121.7404
  -4870507.64148  -3787478.06243  23671025.6274   23671022.1744
      2338.7714
  -7971155.10949  -6201833.69146  21244266.0414   21244264.5884
      -416.0414
 04  9 10 16 28  0.0020000  0  6G 1G20G11G14G23G25
  -9469165.09049  -7368122.66846  21216053.7604   21216053.1314
       458.0554
 -10515542.23049  -8191354.17644  22452291.1354   22452289.9904
      2206.2714
  -2596213.99248  -2015309.77745  21982296.8774   21982295.4634
     -1391.5844
  16627474.82047  12940324.35942  23965604.9714   23965605.6824
     -3122.4604
  -4905546.51648  -3814781.08243  23664358.6664   23664355.2954
      2335.9254
  -7964781.48849  -6196867.23846  21245479.0644   21245477.5104
      -424.9084
 04  9 10 16 28 15.0020000  0  6G 1G20G11G14G23G25
  -9475961.13349  -7373418.29746  21214760.2914   21214759.6274
       453.0704
 -10548590.59449  -8217106.13744  22446002.1434   22446000.8814
      2203.2244
  -2575211.65248  -1998944.33245  21986293.4084   21986291.7054
     -1400.1564
  16674322.53147  12976829.00442  23974519.7294   23974519.8504
     -3123.1814
  -4940542.66848  -3842050.80943  23657698.5104   23657696.1704
      2333.0774
  -7958274.81249  -6191797.10246  21246716.9244   21246715.6504
      -433.7784
 04  9 10 16 28 30.0020000  0  6G 1G20G11G14G23G25
  -9482682.14849  -7378655.44946  21213481.5884   21213480.1824
       448.0684
 -10581592.78149  -8242822.11344  22439722.4004   22439720.5374
      2200.1464
  -2554080.43748  -1982478.46945  21990314.6584   21990312.7644
     -1408.7484
  16721181.18447  13013342.21942  23983437.2684   23983435.8344
     -3123.9104
  -4975495.77348  -3869286.98043  23651046.8854   23651044.5534
      2330.2074
  -7951635.05149  -6186623.27046  21247980.6664   21247978.9944
      -442.6514
 04  9 10 16 28 45.0020000  0  6G 1G20G11G14G23G25
  -9489326.68449  -7383833.01246  21212216.9084   21212215.9434
       442.9694
 -10614547.11749  -8268500.82044  22433451.0574   22433449.6504
      2196.9564
  -2532818.94148  -1965911.08245  21994360.2524   21994358.7874
     -1417.4334
  16768052.00048  13049864.90242  23992356.8144   23992354.7054
     -3124.7214
  -5010404.28148  -3896488.39843  23644403.8614   23644401.4394
      2327.2344
  -7944860.66048  -6181344.51646  21249269.9554   21249268.2364
      -451.6264
 04  9 10 16 29  0.0020000  0  6G 1G20G11G14G23G25
  -9495897.17649  -7388952.87946  21210966.9714   21210965.5064
       438.0334
 -10647455.77349  -8294143.91444  22427189.1114   22427187.0184
      2193.9104
  -2511429.83248  -1949244.25445  21998430.9474   21998429.0924
     -1425.9414
  16814932.52347  13086395.13342  24001276.7524   24001276.9754
     -3125.3684
  -5045270.52047  -3923656.89843  23637769.0184   23637766.2404
      2324.4164
  -7937954.18449  -6175962.84846  21250584.3384   21250582.5454
      -460.4324
 04  9 10 16 29 15.0020000  0  6G 1G20G11G14G23G25
  -9502393.25849  -7394014.76646  21209730.4394   21209729.2404
       433.0724
 -10680317.93749  -8319750.80144  22420935.5184   22420933.0924
      2190.8114
  -2489912.85548  -1932477.80145  22002525.5804   22002523.3544
     -1434.4654
  16861823.26247  13122933.31642  24010200.0414   24010200.0254
     -3126.0494
  -5080093.98448  -3950792.06243  23631142.8544   23631139.6864
      2321.5644
  -7930915.18449  -6170477.91846  21251923.6504   21251922.0574
      -469.2674
 04  9 10 16 29 30.0020000  0  6G 1G20G11G14G23G25
  -9508815.95349  -7399019.46146  21208508.6354   21208507.3344
       428.1804
 -10713134.50449  -8345322.14144  22414691.0104   22414689.0184
      2187.7714
  -2468269.22748  -1915612.65245  22006643.8464   22006642.1394
     -1442.9094
  16908723.09047  13159478.60242  24019125.1044   24019124.3574
     -3126.6554
  -5114875.68748  -3977894.66443  23624524.3224   23624520.9554
      2318.7804
  -7923744.82849  -6164890.63746  21253287.9554   21253286.7874
      -478.0244
 04  9 10 16 29 45.0020000  0  6G 1G20G11G14G23G25
  -9515163.06249  -7403965.26246  21207300.4474   21207299.4714
       423.1414
 -10745902.94549  -8370855.99244  22408455.1194   22408453.0144
      2184.5634
  -2446496.71148  -1898647.07445  22010787.0254   22010785.6004
     -1451.5014
  16955634.12548  13196032.60242  24028052.5884   24028051.5534
     -3127.4024
  -5149613.18048  -4004962.82443  23617913.8774   23617910.7874
      2315.8334
  -7916440.82848  -6159199.21146  21254678.0964   21254676.0334
      -486.9334
 04  9 10 16 30  0.0020000  0  6G 1G20G11G14G23G25
  -9521436.56649  -7408853.70346  21206106.8384   21206105.5644
       418.2344
 -10778624.99249  -8396353.68444  22402228.3224   22402226.5214
      2181.4704
  -2424597.39848  -1881582.69145  22014954.3614   22014953.2254
     -1459.9544
  17002554.43447  13232593.85542  24036980.2994   24036980.2954
     -3128.0214
  -5184308.37148  -4031998.01243  23611311.5574   23611308.7524
      2313.0134
  -7909005.25849  -6153405.25846  21256093.0644   21256091.1154
      -495.7054
 04  9 10 16 30 15.0020000  0  6G 1G20G11G14G23G25
  -9527637.71949  -7413685.77046  21204926.5724   21204925.6154
       413.4104
 -10811301.60949  -8421815.98444  22396009.9084   22396008.4634
      2178.4414
  -2402572.79348  -1864420.66445  22019145.7994   22019143.7444
     -1468.3074
  17049482.63747  13269161.21142  24045910.4244   24045910.9164
     -3128.5474
  -5218962.45748  -4059001.18043  23604717.0724   23604714.2524
      2310.2724
  -7901439.36749  -6147509.76246  21257532.6044   21257530.7094
      -504.3934
 04  9 10 16 30 30.0020000  0  6G 1G20G11G14G23G25
  -9533764.19149  -7418459.64146  21203760.8544   21203759.9004
       408.4324
 -10843930.26649  -8447240.89144  22389800.7604   22389799.3964
      2175.2444
  -2380420.67248  -1847159.29745  22023360.9634   22023358.9554
     -1476.8084
  17096421.06648  13305736.60542  24054843.2214   24054842.6274
     -3129.2294
  -5253573.03148  -4085970.45743  23598130.5494   23598127.6544
      2307.3724
  -7893740.82848  -6141510.89846  21258997.7054   21258996.0574
      -513.2364
 04  9 10 16 30 45.0020000  0  6G 1G20G11G14G23G25
  -9539816.07049  -7423175.38746  21202609.1584   21202608.4124
       403.4594
 -10876510.66449  -8472628.21144  22383601.5724   22383599.1194
      2172.0274
  -2358141.14849  -1829798.64845  22027600.7684   22027599.0414
     -1485.3024
  17143369.53947  13342319.82042  24063776.8144   24063776.5614
     -3129.8984
  -5288139.97748  -4112905.71943  23591552.7134   23591550.0844
      2304.4634
  -7885909.67649  -6135408.70746  21260487.9084   21260485.9674
      -522.0774
 04  9 10 16 31  0.0020000  0  6G 1G20G11G14G23G25
  -9545792.31649  -7427832.20746  21201471.9794   21201470.8734
       398.4164
 -10909041.47349  -8497976.89844  22377411.0644   22377408.9394
      2168.7214
  -2335733.30148  -1812337.99645  22031864.9794   22031863.0184
     -1493.8574
  17190329.04747  13378911.59042  24072712.4394   24072712.8464
     -3130.6344
  -5322662.26648  -4139806.19143  23584983.7754   23584981.0644
      2301.4864
  -7877944.88348  -6129202.37546  21262003.7214   21262001.9754
      -530.9864
 04  9 10 16 31 15.0020000  0  6G 1G20G11G14G23G25
  -9551695.75849  -7432432.29346  21200348.7604   21200347.6314
       393.5634
 -10941525.30949  -8523288.96544  22371229.4164   22371227.5064
      2165.5894
  -2313200.10248  -1794779.68445  22036152.8934   22036150.8114
     -1502.2134
  17237296.59447  13415509.59842  24081650.3464   24081650.9554
     -3131.1704
  -5357142.46948  -4166673.87143  23578422.0414   23578419.1974
      2298.6804
  -7869849.41848  -6122894.22746  21263544.0254   21263542.4164
      -539.6984
 04  9 10 16 31 30.0020000  0  6G 1G20G11G14G23G25
  -9557525.05949  -7436974.60546  21199239.4394   21199238.1864
       388.6204
 -10973960.36749  -8548563.04344  22365057.2134   22365055.3774
      2162.3374
  -2290540.35248  -1777122.75045  22040464.3464   22040463.0614
     -1510.6504
  17284273.59848  13452114.99642  24090590.9474   24090590.4164
     -3131.8004
  -5391579.18748  -4193507.66443  23571869.3694   23571866.1704
      2295.7814
  -7861622.00848  -6116483.25446  21265109.4084   21265108.2604
      -548.4944
 04  9 10 16 31 45.0020000  0  6G 1G20G11G14G23G25
  -9563280.04749  -7441459.00446  21198144.3934   21198143.0844
       383.6664
 -11006346.34449  -8573798.86744  22358894.2364   22358892.4944
      2159.0654
  -2267753.90648  -1759367.09445  22044800.7364   22044799.5024
     -1519.0964
  17331260.22347  13488727.93042  24099531.1434   24099530.9514
     -3132.4424
  -5425972.07848  -4220307.30143  23565323.9084   23565321.3304
      2292.8594
  -7853262.49248  -6109969.35546  21266700.3464   21266698.6274
      -557.3014
 04  9 10 16 32  0.0020000  0  6G 1G20G11G14G23G25
  -9568961.48049  -7445886.09846  21197063.3614   21197062.1704
       378.7624
 -11038683.57049  -8598996.70344  22352740.6434   22352738.6004
      2155.8154
  -2244841.65648  -1741513.40245  22049160.8774   22049159.2714
     -1527.4834
  17378255.77047  13525347.78142  24108473.7604   24108473.4394
     -3133.0364
  -5460321.83248  -4247073.31643  23558787.9794   23558784.5614
      2289.9844
  -7844771.46148  -6103352.96146  21268316.0964   21268314.7564
      -566.0694
 04  9 10 16 32 15.0020000  0  6G 1G20G11G14G23G25
  -9574569.85249  -7450256.25846  21195995.8464   21195994.6624
       373.8914
 -11070972.33649  -8624156.78544  22346596.2834   22346594.0374
      2152.5844
  -2221804.19548  -1723562.14545  22053544.9164   22053543.1004
     -1535.8314
  17425259.58247  13561974.08242  24117418.9004   24117418.4594
     -3133.5874
  -5494628.80548  -4273806.01643  23552260.0644   23552256.3964
      2287.1324
  -7836149.41848  -6096634.49246  21269956.7054   21269955.2214
      -574.8034
 04  9 10 16 32 30.0020000  0  6G 1G20G11G14G23G25
  -9580103.95749  -7454568.55146  21194942.8694   21194941.7714
       368.9404
 -11103211.21949  -8649277.98044  22340461.5334   22340459.5294
      2149.2594
  -2198640.34448  -1705512.41045  22057953.0644   22057951.2564
     -1544.2574
  17472272.85947  13598607.75842  24126365.5104   24126365.5294
     -3134.2184
  -5528891.86348  -4300504.47743  23545739.1044   23545736.6234
      2284.2044
  -7827395.48848  -6089813.25446  21271622.6584   21271621.2364
      -583.5954
 04  9 10 16 32 45.0020000  0  6G 1G20G11G14G23G25
  -9585565.18449  -7458824.05146  21193903.6824   21193902.6974
       364.0824
 -11135401.29749  -8674361.15644  22334336.1974   22334334.0144
      2146.0054
  -2175351.89548  -1687365.57045  22062384.5724   22062382.4084
     -1552.5634
  17519294.03147  13635247.59442  24135312.8304   24135314.1704
     -3134.7454
  -5563112.12948  -4327169.61743  23539227.2834   23539224.5534
      2281.3514
  -7818510.91848  -6082890.21946  21273313.1894   21273311.7054
      -592.3054
 04  9 10 16 33  0.0020000  0  6G 1G20G11G14G23G25
  -9590952.34448  -7463021.83646  21192877.9474   21192877.1974
       359.1444
 -11167541.07049  -8699405.14144  22328220.1744   22328218.0614
      2142.6524
  -2151937.62148  -1669120.69945  22066840.0414   22066838.3734
     -1560.9524
  17566324.43847  13671894.57042  24144262.2444   24144262.9754
     -3135.3604
  -5597288.41848  -4353800.47743  23532723.9864   23532720.7874
      2278.4194
  -7809494.64848  -6075864.55147  21275029.1824   21275027.5184
      -601.0854
 04  9 10 16 33 15.0020000  0  6G 1G20G11G14G23G25
  -9596264.38749  -7467161.09446  21191867.4324   21191866.2834
       354.1364
 -11199629.16449  -8724408.84845  22322114.1664   22322112.6664
      2139.2064
  -2128396.68448  -1650777.12945  22071319.9554   22071317.8964
     -1569.3964
  17613364.96547  13708549.50842  24153214.6664   24153213.6434
     -3136.0354
  -5631419.41048  -4380396.03143  23526228.3224   23526225.5454
      2275.3994
  -7800345.63748  -6068735.46146  21276770.1044   21276768.5104
      -609.9344
 04  9 10 16 33 30.0020000  0  6G 1G20G11G14G23G25
  -9601503.09048  -7471243.19546  21190870.5334   21190869.4594
       349.2474
 -11231667.07049  -8749373.44944  22316017.6354   22316015.5334
      2135.8604
  -2104730.91849  -1632336.28545  22075823.3694   22075821.6394
     -1577.7184
  17660413.79748  13745210.91042  24162168.1824   24162167.0574
     -3136.5894
  -5665506.87147  -4406957.67643  23519742.2054   23519739.0374
      2272.4974
  -7791065.71548  -6061504.35246  21278536.0104   21278533.8654
      -618.6614
 04  9 10 16 33 45.0020000  0  6G 1G20G11G14G23G25
  -9606668.79348  -7475268.42646  21189887.6434   21189886.6114
       344.3804
 -11263654.88749  -8774299.02744  22309930.0644   22309928.4284
      2132.5214
  -2080940.77048  -1613798.52045  22080350.4474   22080348.8504
     -1586.0104
  17707470.52348  13781878.45342  24171122.6044   24171122.3074
     -3137.1154
  -5699550.97747  -4433485.52043  23513263.6504   23513260.2714
      2269.6074
  -7781655.12948  -6054171.43446  21280326.8224   21280324.7874
      -627.3724
 04  9 10 16 34  0.0020000  0  6G 1G20G11G14G23G25
  -9611761.78548  -7479236.98046  21188918.4634   21188917.1894
       339.5334
 -11295592.60249  -8799185.53944  22303852.2914   22303851.1504
      2129.1814
  -2057026.62548  -1595164.12945  22084901.0884   22084899.6824
     -1594.2764
  17754534.88747  13818551.94542  24180077.9084   24180078.6864
     -3137.6244
  -5733551.94947  -4459979.75443  23506793.6504   23506790.2564
      2266.7324
  -7772114.15648  -6046736.90646  21282142.3074   21282140.6744
      -636.0654
 04  9 10 16 34 15.0020000  0  6G 1G20G11G14G23G25
  -9616781.21949  -7483148.24646  21187963.1584   21187962.0844
       334.6294
 -11327478.99249  -8824032.06645  22297784.9634   22297783.0494
      2125.7594
  -2032987.82848  -1576432.62145  22089475.6114   22089474.1394
     -1602.5864
  17801607.80147  13855232.07842  24189036.1894   24189035.5494
     -3138.1944
  -5767508.73447  -4486439.57043  23500331.7054   23500328.7684
      2263.7864
  -7762442.25049  -6039200.36346  21283982.7994   21283981.2954
      -644.7944
 04  9 10 16 34 30.0020000  0  6G 1G20G11G14G23G25
  -9621728.57849  -7487003.33246  21187021.8544   21187020.7604
       329.8244
 -11359315.44549  -8848839.69144  22291726.6194   22291724.9044
      2122.4304
  -2008825.90648  -1557605.16445  22094073.3074   22094071.8224
     -1610.7954
  17848687.62948  13891917.64542  24197995.0184   24197994.7294
     -3138.6554
  -5801422.82047  -4512866.10543  23493877.7524   23493875.2404
      2260.9394
  -7752640.80148  -6031562.86746  21285847.8694   21285846.3264
      -653.4304
 04  9 10 16 34 45.0020000  0  6G 1G20G11G14G23G25
  -9626603.05148  -7490801.62146  21186094.2294   21186093.0494
       324.9654
 -11391100.68749  -8873607.39845  22285678.1584   22285676.5334
      2119.0164
  -1984540.25848  -1538681.29345  22098694.8304   22098693.2134
     -1619.0434
  17895775.13747  13928609.18042  24206955.6504   24206955.1974
     -3139.1674
  -5835293.19547  -4539258.59843  23487432.7214   23487429.6704
      2258.0254
  -7742709.03948  -6023823.84846  21287738.0254   21287736.1784
      -662.1174
 04  9 10 16 35  0.0020000  0  6G 1G20G11G14G23G25
  -9631405.62549  -7494543.88346  21185180.2684   21185178.9904
       320.1724
 -11422835.43049  -8898335.76645  22279639.4554   22279637.4084
      2115.6494
  -1960132.04748  -1519661.91445  22103339.8774   22103337.9754
     -1627.2144
  17942869.30547  13965305.90242  24215917.1584   24215917.8074
     -3139.6114
  -5869120.79347  -4565617.73843  23480995.8144   23480992.9124
      2255.1734
  -7732648.00849  -6015984.08646  21289652.7524   21289650.8184
      -670.7354
 04  9 10 16 35 15.0020000  0  6G 1G20G11G14G23G25
  -9636136.21549  -7498230.06246  21184280.3224   21184278.6664
       315.3734
 -11454519.38349  -8923024.56644  22273609.9004   22273607.3264
      2112.2644
  -1935601.17248  -1500546.96145  22108007.6274   22108005.8934
     -1635.3924
  17989970.20747  14002007.84842  24224880.6044   24224880.4364
     -3140.0604
  -5902905.42247  -4591943.41443  23474566.6744   23474563.4554
      2252.3094
  -7722457.60249  -6008043.50446  21291591.6354   21291589.8964
      -679.3604
 04  9 10 16 35 30.0020000  0  6G 1G20G11G14G23G25
  -9640794.78549  -7501860.11746  21183394.4794   21183392.2604
       310.5714
 -11486152.07449  -8947673.41444  22267590.2914   22267588.2714
      2108.8464
  -1910947.83248  -1481336.58245  22112698.8464   22112697.5684
     -1643.5564
  18037077.89547  14038715.08642  24233844.4634   24233844.9084
     -3140.5124
  -5936646.87547  -4618235.44543  23468145.6194   23468142.7294
      2249.4304
  -7712137.73849  -6000002.06246  21293555.0724   21293553.9864
      -687.9914
 04  9 10 16 35 45.0020000  0  6G 1G20G11G14G23G25
  -9645379.14549  -7505432.35246  21182521.1114   21182519.8074
       305.6244
 -11517731.19149  -8972280.50045  22261580.9714   22261579.4044
      2105.2744
  -1886170.22348  -1462029.36345  22117414.2444   22117412.6584
     -1651.8414
  18084194.40647  14075429.21542  24242810.8544   24242810.3424
     -3141.1014
  -5970342.87947  -4644492.04743  23461733.4324   23461730.3574
      2246.4004
  -7701686.44149  -5991858.19546  21295544.5184   21295542.7014
      -696.7534
 04  9 10 16 36  0.0020000  0  6G 1G20G11G14G23G25
  -9649891.27748  -7508948.30946  21181662.5644   21181661.7754
       300.8094
 -11549258.34449  -8996847.10245  22255581.6664   22255579.7564
      2101.8104
  -1861270.04748  -1442626.64145  22122152.2754   22122150.5924
     -1660.0124
  18131317.82047  14112148.72742  24251777.0574   24251777.1584
     -3141.5614
  -6003995.37547  -4670714.73443  23455329.3854   23455326.7564
      2243.5004
  -7691105.70749  -5983613.47346  21297557.9474   21297556.3424
      -705.3824
 04  9 10 16 36 15.0020000  0  6G 1G20G11G14G23G25
  -9654332.31648  -7512408.84846  21180817.4474   21180816.4394
       296.0694
 -11580734.22749  -9021373.75845  22249592.2054   22249590.2714
      2098.3924
  -1836248.60248  -1423129.41445  22126913.9084   22126911.7054
     -1668.0964
  18178447.07047  14148872.76642  24260746.1354   24260746.3654
     -3141.9504
  -6037605.25047  -4696904.23843  23448934.4474   23448931.3734
      2240.6584
  -7680396.64149  -5975268.75046  21299595.8694   21299593.8814
      -713.9384
 04  9 10 16 36 30.0020000  0  6G 1G20G11G14G23G25
  -9658699.18048  -7515811.60246  21179986.5024   21179985.4754
       291.1244
 -11612155.63349  -9045857.97745  22243612.8074   22243610.4394
      2094.7604
  -1811103.03948  -1403535.50045  22131699.0494   22131696.9864
     -1676.3714
  18225585.03147  14185603.57842  24269716.8074   24269716.6974
     -3142.5314
  -6071169.37547  -4723058.09043  23442546.8774   23442544.0724
      2237.6084
  -7669556.32848  -5966821.75846  21301658.3934   21301656.9904
      -722.6874
 04  9 10 16 36 45.0020000  0  6G 1G20G11G14G23G25
  -9662994.10248  -7519158.29746  21179169.2994   21179168.0024
       286.3284
 -11643524.36749  -9070301.13345  22237643.4474   22237641.6464
      2091.2494
  -1785835.75048  -1383846.70345  22136507.1824   22136505.1274
     -1684.4864
  18272729.55147  14222339.54742  24278687.7054   24278687.6004
     -3142.9684
  -6104689.86747  -4749177.94543  23436168.3934   23436165.6354
      2234.6994
  -7658587.03149  -5958274.25846  21303745.6824   21303744.5254
      -731.2864
 04  9 10 16 37  0.0020000  0  6G 1G20G11G14G23G25
  -9667215.29748  -7522447.53946  21178365.8854   21178364.8344
       281.4134
 -11674838.48849  -9094701.75844  22231684.6504   22231682.3304
      2087.6084
  -1760445.19148  -1364061.85945  22141338.6744   22141336.9324
     -1692.7044
  18319882.28547  14259081.91442  24287660.5024   24287659.6504
     -3143.5164
  -6138164.88747  -4775262.36343  23429798.1044   23429794.9554
      2231.6684
  -7647486.98849  -5949624.87146  21305858.3694   21305856.8654
      -740.0034
 04  9 10 16 37 15.0020000  0  6G 1G20G11G14G23G25
  -9671362.96948  -7525679.48846  21177576.8464   21177575.4284
       276.5114
 -11706097.84849  -9119059.68744  22225736.1504   22225734.1894
      2083.9574
  -1734931.59048  -1344181.14545  22146193.7604   22146192.0684
     -1700.9074
  18367043.10247  14295830.57042  24296634.6434   24296634.2404
     -3144.0544
  -6171594.56247  -4801311.43743  23423436.6194   23423433.7794
      2228.6454
  -7636256.37548  -5940873.75846  21307995.4004   21307993.8894
      -748.7084
 04  9 10 16 37 30.0020000  0  6G 1G20G11G14G23G25
  -9675439.71548  -7528856.17646  21176801.0884   21176799.4044
       271.7834
 -11737304.64549  -9143376.67245  22219797.6274   22219795.5724
      2080.4534
  -1709297.60548  -1324206.62545  22151071.7914   22151070.4394
     -1708.9324
  18414209.29347  14332583.38742  24305610.4394   24305610.7294
     -3144.4134
  -6204981.34847  -4827327.11343  23417083.1434   23417079.9284
      2225.7864
  -7624897.74648  -5932022.87946  21310157.0024   21310155.2174
      -757.2424
 04  9 10 16 37 45.0020000  0  6G 1G20G11G14G23G25
  -9679443.86749  -7531976.30146  21176039.2364   21176037.6704
       266.9434
 -11768456.99649  -9167651.22345  22213869.2834   22213867.6434
      2076.8234
  -1683541.74248  -1304137.14145  22155973.1894   22155971.8344
     -1717.0584
  18461382.55947  14369341.74242  24314587.7604   24314588.1784
     -3144.8844
  -6238323.34847  -4853307.87543  23410738.6044   23410734.9904
      2222.8004
  -7613409.59848  -5923071.07046  21312342.9474   21312341.2484
      -765.8774
 04  9 10 16 38  0.0020000  0  6G 1G20G11G14G23G25
  -9683376.15248  -7535040.41846  21175290.5644   21175289.6434
       262.1524
 -11799555.29349  -9191883.66445  22207951.8614   22207950.0724
      2073.2204
  -1657664.94948  -1283973.41445  22160897.1194   22160895.4474
     -1725.1204
  18508562.15647  14406104.99642  24323565.5334   24323566.3184
     -3145.3074
  -6271621.24246  -4879254.28143  23404402.0574   23404398.7214
      2219.8604
  -7601792.76248  -5914019.00446  21314553.6354   21314551.8224
      -774.4564
 04  9 10 16 38 15.0020000  0  6G 1G20G11G14G23G25
  -9687236.39848  -7538048.40246  21174556.4394   21174554.9594
       257.3504
 -11830599.16849  -9216073.69145  22202044.4394   22202042.3734
      2069.5924
  -1631667.17648  -1263715.41445  22165844.4164   22165843.1464
     -1733.1854
  18555748.19547  14442873.30942  24332544.3614   24332545.3424
     -3145.7364
  -6304874.88346  -4905166.19943  23398073.8774   23398070.9824
      2216.9094
  -7590047.07448  -5904866.52746  21316788.7684   21316787.1464
      -783.0464
 04  9 10 16 38 30.0020000  0  6G 1G20G11G14G23G25
  -9691026.99648  -7541002.11346  21173834.7364   21173833.5144
       252.7074
 -11861590.69149  -9240222.93445  22196146.6434   22196144.8614
      2066.1024
  -1605550.93748  -1243365.11745  22170814.3934   22170812.3774
     -1741.0834
  18602938.38347  14479644.83242  24341524.6354   24341524.9434
     -3146.0124
  -6338086.36747  -4931045.27743  23391754.4244   23391750.8144
      2214.0994
  -7578175.00048  -5895615.55146  21319047.8144   21319046.3264
      -791.4724
 04  9 10 16 38 45.0020000  0  6G 1G20G11G14G23G25
  -9694743.80549  -7543898.32447  21173127.7604   21173126.2254
       247.7874
 -11892525.29749  -9264327.80944  22190259.7134   22190258.5574
      2062.3074
  -1579312.30148  -1222919.44145  22175807.1194   22175805.6044
     -1749.2424
  18650136.61347  14516422.64542  24350506.1894   24350506.3144
     -3146.5494
  -6371251.41847  -4956888.16843  23385444.1114   23385440.1044
      2211.0034
  -7566172.35548  -5886262.85246  21321331.9164   21321330.3504
      -800.1764
 04  9 10 16 39  0.0020000  0  6G 1G20G11G14G23G25
  -9698387.38749  -7546737.48046  21172433.9084   21172432.7294
       242.9054
 -11923403.38749  -9288388.64145  22184383.8934   22184382.0024
      2058.5394
  -1552951.90648  -1202378.87945  22180823.3774   22180821.9084
     -1757.3604
  18697342.46147  14553206.37142  24359489.2994   24359489.7684
     -3147.0574
  -6404370.66047  -4982695.35943  23379140.7444   23379137.5144
      2207.9494
  -7554040.00048  -5876809.07846  21323640.7214   21323639.2564
      -808.8244
 04  9 10 16 39 15.0020000  0  6G 1G20G11G14G23G25
  -9701958.87548  -7549520.46546  21171754.4084   21171753.4434
       238.0994
 -11954225.68449  -9312406.01245  22178518.9394   22178516.7754
      2054.8204
  -1526471.10248  -1181744.50845  22185862.5574   22185861.3384
     -1765.3874
  18744554.55147  14589994.98442  24368473.7684   24368473.7834
     -3147.4734
  -6437445.03947  -5008467.59443  23372846.9554   23372843.6824
      2204.9594
  -7541779.08648  -5867255.12146  21325973.8224   21325972.3934
      -817.3944
 04  9 10 16 39 30.0020000  0  6G 1G20G11G14G23G25
  -9705457.92649  -7552246.99646  21171088.6894   21171087.7914
       233.2704
 -11984991.59449  -9336379.44145  22172664.2684   22172662.5884
      2051.0614
  -1499869.65648  -1161016.11745  22190924.6974   22190923.1504
     -1773.4304
  18791773.44147  14626788.87542  24377458.4474   24377459.0804
     -3147.9264
  -6470474.15247  -5034204.55543  23366561.6664   23366558.7054
      2201.9414
  -7529389.29748  -5857600.73846  21328331.3074   21328329.8964
      -825.9864
 04  9 10 16 39 45.0020000  0  6G 1G20G11G14G23G25
  -9708884.71149  -7554917.21546  21170436.5414   21170435.5374
       228.4524
 -12015700.97349  -9360308.83645  22166820.5804   22166818.6864
      2047.2924
  -1473147.79749  -1140193.90245  22196010.0254   22196008.1044
     -1781.4574
  18838998.77747  14663587.77742  24386445.1824   24386445.6624
     -3148.3564
  -6503458.01247  -5059906.25843  23360285.2364   23360281.7014
      2198.9244
  -7516870.87549  -5847846.13746  21330713.6974   21330711.8504
      -834.5614
 04  9 10 16 40  0.0020000  0  6G 1G20G11G14G23G25
  -9712239.20349  -7557531.10946  21169798.1434   21169797.1974
       223.6334
 -12046353.62949  -9384194.02045  22160987.6044   22160986.0374
      2043.5104
  -1446305.78948  -1119278.07045  22201117.9244   22201115.7484
     -1789.4674
  18886230.68047  14700391.81342  24395433.5414   24395433.1274
     -3148.7934
  -6536396.54747  -5085572.62943  23354016.9394   23354013.8964
      2195.9024
  -7504223.78949  -5837991.27046  21333120.3854   21333119.0144
      -843.1394
 04  9 10 16 40 15.0020000  0  6G 1G20G11G14G23G25
  -9715520.96949  -7560088.32446  21169173.8464   21169172.6274
       218.7844
 -12076948.74649  -9408034.36745  22155165.5574   22155163.9164
      2039.6744
  -1419343.27048  -1098268.32445  22206248.5414   22206246.7914
     -1797.5014
  18933469.44547  14737201.19142  24404423.0574   24404422.4864
     -3149.2514
  -6569289.01646  -5111203.12544  23347757.4394   23347754.5764
      2192.8314
  -7491447.76249  -5828035.93046  21335551.5964   21335550.0614
      -851.7354
 04  9 10 16 40 30.0020000  0  6G 1G20G11G14G23G25
  -9718730.10249  -7562588.95346  21168563.0494   21168562.0804
       213.9424
 -12107486.16849  -9431829.75045  22149354.2604   22149353.0924
      2035.8284
  -1392260.47748  -1077164.87145  22211402.1114   22211400.7404
     -1805.5204
  18980714.94147  14774015.83242  24413413.0804   24413413.1504
     -3149.7004
  -6602135.55146  -5136797.82043  23341507.1664   23341504.2294
      2189.7694
  -7478542.84849  -5817980.15246  21338007.4084   21338005.6974
      -860.3284
 04  9 10 16 40 45.0020000  0  6G 1G20G11G14G23G25
  -9721869.66049  -7565035.35946  21167965.5644   21167964.5614
       209.3044
 -12137968.41449  -9455582.14545  22143553.4004   22143551.7254
      2032.1504
  -1365060.70748  -1055970.26245  22216578.2994   22216576.6154
     -1813.3184
  19027964.25447  14810833.43842  24422404.5724   24422404.9284
     -3149.9544
  -6634939.06247  -5162358.99244  23335265.0574   23335262.5844
      2186.9014
  -7465512.08649  -5807826.31646  21340486.9634   21340485.0024
      -868.7174
 04  9 10 16 41  0.0020000  0  6G 1G20G11G14G23G25
  -9724937.75849  -7567426.08646  21167381.7684   21167380.6544
       204.5404
 -12168393.46549  -9479289.96545  22137764.1274   22137761.5644
      2028.3374
  -1337742.12548  -1034683.07045  22221776.4864   22221775.6044
     -1821.2394
  19075219.24247  14847655.45342  24431396.6974   24431397.1274
     -3150.3334
  -6667697.62947  -5187885.13343  23329031.3384   23329028.7094
      2183.9044
  -7452353.66849  -5797573.01246  21342991.0334   21342989.2524
      -877.2284
 04  9 10 16 41 15.0020000  0  6G 1G20G11G14G23G25
  -9727933.00849  -7569760.03546  21166812.0184   21166810.6544
       199.6834
 -12198759.58249  -9502951.87945  22131985.5644   22131984.3264
      2024.4084
  -1310303.55148  -1013302.37545  22226997.8774   22226996.9244
     -1829.2384
  19122481.21547  14884482.89842  24440390.7134   24440391.1624
     -3150.7984
  -6700409.60947  -5213374.98044  23322806.1354   23322803.7834
      2180.7994
  -7439066.32849  -5787219.24646  21345519.4474   21345518.0644
      -885.8234
 04  9 10 16 41 30.0020000  0  6G 1G20G11G14G23G25
  -9730857.29748  -7572038.70746  21166255.4394   21166254.2994
       194.9534
 -12229068.33649  -9526569.08245  22126217.6744   22126216.4284
      2020.5844
  -1282746.99648   -991829.75445  22232241.6894   22232240.2684
     -1837.1044
  19169748.22747  14921314.28942  24449385.2994   24449385.4324
     -3151.1344
  -6733076.92247  -5238830.01244  23316589.9164   23316587.0884
      2177.8214
  -7425652.02049  -5776766.53946  21348071.9794   21348070.4944
      -894.2874
 04  9 10 16 41 45.0020000  0  6G 1G20G11G14G23G25
  -9733709.09049  -7574260.88746  21165712.6974   21165711.6664
       190.1204
 -12259317.88749  -9550140.14144  22120461.6894   22120459.9594
      2016.6374
  -1255071.09848   -970264.13345  22237508.6894   22237506.8964
     -1845.0604
  19217021.88746  14958150.84442  24458381.1894   24458381.3894
     -3151.5774
  -6765697.75846  -5264248.82843  23310382.3694   23310378.9394
      2174.7224
  -7412109.26249  -5766213.75446  21350649.4944   21350647.5964
      -902.8514
 04  9 10 16 42  0.0020000  0  6G 1G20G11G14G23G25
  -9736486.24249  -7576424.91046  21165184.4324   21165183.0184
       185.1434
 -12289505.83649  -9573663.22344  22114716.9864   22114715.3114
      2012.5304
  -1227273.84848   -948603.95345  22242798.2994   22242796.5844
     -1853.1504
  19264304.21146  14994994.16442  24467378.4864   24467378.6194
     -3152.1554
  -6798270.00847  -5289629.79743  23304183.8614   23304181.0214
      2171.4834
  -7398436.03949  -5755559.30146  21353251.3694   21353249.9944
      -911.5484
 04  9 10 16 42 15.0020000  0  6G 1G20G11G14G23G25
  -9739190.12949  -7578531.83246  21164669.7054   21164668.5614
       180.2594
 -12319633.22348  -9597139.09845  22108984.0494   22108982.2834
      2008.4924
  -1199356.79348   -926850.42645  22248110.6114   22248109.1974
     -1861.1374
  19311593.93046  15031843.28542  24476377.9714   24476378.0104
     -3152.6484
  -6830794.78547  -5314973.76243  23297994.9244   23297991.3074
      2168.3184
  -7384633.82849  -5744804.33646  21355877.0574   21355875.8264
      -920.1474
 04  9 10 16 42 30.0020000  0  6G 1G20G11G14G23G25
  -9741823.39849  -7580583.73446  21164168.8144   21164167.8034
       175.5514
 -12349702.32448  -9620569.56645  22103261.8694   22103260.1464
      2004.6074
  -1171322.67248   -905005.66845  22253445.1354   22253443.7714
     -1868.9414
  19358888.38747  15068696.03542  24485377.2754   24485377.6784
     -3152.9644
  -6863274.79747  -5340282.84443  23291814.0644   23291810.6154
      2165.3344
  -7370705.33249  -5733950.96546  21358527.7914   21358526.5884
      -928.5664
 04  9 10 16 42 45.0020000  0  6G 1G20G11G14G23G25
  -9744385.31249  -7582580.02746  21163680.7524   21163680.2294
       170.7944
 -12379712.20748  -9643953.88345  22097551.3144   22097549.4634
      2000.6594
  -1143171.10548   -883069.40645  22258802.4864   22258800.7134
     -1876.7714
  19406188.16447  15105552.94542  24494378.6974   24494378.8304
     -3153.3184
  -6895709.14147  -5365556.36743  23285642.4794   23285638.7994
      2162.2904
  -7356649.85549  -5722998.65647  21361202.9394   21361201.3344
      -937.0324
 04  9 10 16 43  0.0020000  0  6G 1G20G11G14G23G25
  -9746877.80949  -7584522.23446  21163206.8464   21163205.8464
       166.1664
 -12409664.43449  -9667293.27745  22091851.7914   22091849.8304
      1996.8154
  -1114904.04348   -861043.14145  22264181.3224   22264179.8654
     -1884.4714
  19453491.39147  15142412.54742  24503379.1894   24503380.1434
     -3153.5484
  -6928099.71147  -5390795.74643  23279477.8854   23279475.0294
      2159.3714
  -7342469.36749  -5711948.93446  21363901.3224   21363899.8614
      -945.3664
 04  9 10 16 43 15.0020000  0  6G 1G20G11G14G23G25
  -9749299.38349  -7586409.18046  21162746.1044   21162744.8814
       161.4384
 -12439557.23848  -9690586.37145  22086163.2054   22086161.2444
      1992.8544
  -1086520.25048   -838925.91045  22269582.7524   22269581.2444
     -1892.2534
  19500799.46147  15179275.94942  24512382.2134   24512382.3814
     -3153.8714
  -6960444.85547  -5415999.75443  23273323.5804   23273320.2174
      2156.3434
  -7328162.52349  -5700800.75046  21366624.0494   21366622.2644
      -953.7904
 04  9 10 16 43 30.0020000  0  6G 1G20G11G14G23G25
  -9751647.16049  -7588238.62546  21162299.3224   21162298.1544
       156.5184
 -12469387.44948  -9713830.69145  22080486.7684   22080484.4944
      1988.6814
  -1058016.91048   -816715.54345  22275006.5964   22275005.0764
     -1900.2234
  19548115.31346  15216145.39542  24521386.0724   24521386.1704
     -3154.3904
  -6992741.55547  -5441165.98043  23267177.3464   23267174.0214
      2153.1134
  -7313726.39148  -5689551.82046  21369371.2054   21369369.5684
      -962.4094
 04  9 10 16 43 45.0020000  0  6G 1G20G11G14G23G25
  -9753923.19149  -7590012.15246  21161866.0574   21161864.8774
       151.7354
 -12499156.77348  -9737027.57045  22074822.0254   22074819.8384
      1984.6224
  -1029396.27748   -794413.77045  22280452.7604   22280451.4714
     -1908.0424
  19595436.83247  15253019.25442  24530392.0334   24530391.1074
     -3154.7684
  -7024991.69147  -5466295.94543  23261040.1744   23261037.1504
      2150.0094
  -7299163.15649  -5678203.85947  21372142.1894   21372140.5214
      -970.8824
 04  9 10 16 44  0.0020000  0  6G 1G20G11G14G23G25
  -9756126.76249  -7591729.21946  21161446.8934   21161445.8504
       146.9054
 -12528864.14548  -9760176.16845  22069168.6894   22069166.9124
      1980.4914
  -1000657.75048   -772020.12145  22285921.7214   22285919.9944
     -1915.9024
  19642764.75047  15289898.13342  24539397.3854   24539397.8264
     -3155.1954
  -7057194.53547  -5491389.06243  23254912.4084   23254909.8184
      2146.8564
  -7284472.26648  -5666756.41046  21374937.7364   21374936.4754
      -979.3934
 04  9 10 16 44 15.0020000  0  6G 1G20G11G14G23G25
  -9758259.85249  -7593391.36746  21161040.9324   21161039.8774
       142.2064
 -12558511.27348  -9783277.81245  22063526.9554   22063525.0494
      1976.4754
   -971803.59848   -749536.37545  22291412.4794   22291411.2604
     -1923.6104
  19690097.12147  15326780.45342  24548404.7054   24548404.5884
     -3155.4914
  -7089351.96947  -5516446.79743  23248792.4714   23248790.2094
      2143.8294
  -7269655.66849  -5655211.02046  21377757.3854   21377756.0844
      -987.7734
 04  9 10 16 44 30.0020000  0  6G 1G20G11G14G23G25
  -9760320.78949  -7594997.30147  21160648.8544   21160647.5924
       137.3964
 -12588096.05148  -9806330.89145  22057897.2524   22057895.4204
      1972.3184
   -942832.24648   -726961.31645  22296925.6194   22296924.0764
     -1931.4234
  19737435.57047  15363667.52342  24557412.9084   24557412.8074
     -3155.8974
  -7121462.18447  -5541467.73443  23242682.7684   23242679.9904
      2140.6814
  -7254711.68749  -5643566.36346  21380601.1114   21380599.6074
      -996.2654
 04  9 10 16 44 45.0020000  0  6G 1G20G11G14G23G25
  -9762309.36349  -7596546.84446  21160270.4324   21160269.2294
       132.5724
 -12617618.07848  -9829335.05945  22052279.1274   22052278.0574
      1968.1354
   -913743.63348   -704294.87145  22302461.0024   22302459.5724
     -1939.2414
  19784780.43847  15400559.55942  24566422.5574   24566422.4004
     -3156.3244
  -7153524.75047  -5566451.53544  23236580.8694   23236578.3384
      2137.5044
  -7239640.28149  -5631822.41446  21383469.1584   21383467.5414
     -1004.7604
 04  9 10 16 45  0.0020000  0  6G 1G20G11G14G23G25
  -9764226.79749  -7598040.94946  21159905.4324   21159904.6544
       127.8294
 -12647078.30548  -9852291.06645  22046673.2834   22046671.4364
      1964.0154
   -884539.09848   -681538.10545  22308018.5884   22308016.9164
     -1946.9694
  19832130.37547  15437455.58242  24575432.3384   24575433.2094
     -3156.6624
  -7185540.85948  -5591399.13343  23230488.3224   23230485.5494
      2134.4074
  -7224442.80949  -5619980.23446  21386361.3224   21386359.4824
     -1013.1654
 04  9 10 16 45 15.0020000  0  6G 1G20G11G14G23G25
  -9766073.30549  -7599479.78946  21159554.1354   21159552.9394
       123.1014
 -12676476.54748  -9875198.78545  22041078.9634   22041076.7324
      1959.8834
   -855219.14148   -658691.40245  22313597.6664   22313596.1664
     -1954.6644
  19879485.18847  15474355.40242  24584444.4004   24584444.7794
     -3156.9874
  -7217510.64148  -5616310.63343  23224405.1584   23224402.2644
      2131.3194
  -7209119.48449  -5608039.98846  21389276.8694   21389275.1464
     -1021.5554
 04  9 10 16 45 30.0020000  0  6G 1G20G11G14G23G25
  -9767848.40249  -7600862.98046  21159216.0334   21159215.1004
       118.3404
 -12705812.09048  -9898057.65245  22035496.4864   22035494.4904
      1955.7034
   -825783.25048   -635754.34845  22319199.4554   22319197.9044
     -1962.3934
  19926845.18447  15511259.24242  24593457.0574   24593457.2324
     -3157.3334
  -7249433.47348  -5641185.57044  23218330.5024   23218327.3464
      2128.1894
  -7193669.94549  -5596001.39547  21392216.9864   21392215.3034
     -1029.9694
 04  9 10 16 45 45.0020000  0  6G 1G20G11G14G23G25
  -9769552.31649  -7602190.71146  21158891.8614   21158890.7014
       113.5944
 -12735084.85549  -9920867.60545  22029926.0104   22029924.5024
      1951.5184
   -796231.95348   -612727.38345  22324822.8224   22324821.4434
     -1970.0864
  19974210.21547  15548167.00842  24602469.7834   24602470.2134
     -3157.6694
  -7281309.48447  -5666024.00844  23212264.5804   23212260.8894
      2125.0674
  -7178094.54349  -5583864.73046  21395180.8384   21395179.3504
     -1038.3604
 04  9 10 16 46  0.0020000  0  6G 1G20G11G14G23G25
  -9771185.85949  -7603463.60246  21158581.1664   21158580.1074
       108.9034
 -12764295.27349  -9943628.95745  22024367.6974   22024365.9084
      1947.3614
   -766566.28148   -589611.28945  22330468.4794   22330466.8964
     -1977.7114
  20021579.57046  15585078.17642  24611484.4634   24611484.3144
     -3157.9574
  -7313139.32848  -5690826.47344  23206207.5804   23206204.1784
      2121.9904
  -7162394.11349  -5571630.63346  21398168.7994   21398166.7054
     -1046.6954
 04  9 10 16 46 15.0020000  0  6G 1G20G11G14G23G25
  -9772748.68749  -7604681.39846  21158283.8544   21158282.3654
       104.1894
 -12793442.74249  -9966341.26245  22018820.8224   22018819.3544
      1943.1654
   -736786.09848   -566405.96945  22336135.1274   22336133.6664
     -1985.3464
  20068953.38347  15621992.79342  24620499.4944   24620499.4084
     -3158.2544
  -7344922.59848  -5715592.65244  23200159.3774   23200156.2834
      2118.8854
  -7146568.37949  -5559298.89546  21401179.9864   21401178.0374
     -1055.0494
 04  9 10 16 46 30.0020000  0  6G 1G20G11G14G23G25
  -9774238.59849  -7605842.36346  21157999.9864   21157998.8694
        99.3274
 -12822524.66049  -9989002.48845  22013286.4864   22013285.0024
      1938.7954
   -706889.28148   -543109.76244  22341824.3304   22341822.9944
     -1993.1214
  20116334.02047  15658912.75042  24629515.0254   24629515.7874
     -3158.7094
  -7376657.04348  -5740320.78143  23194120.9244   23194117.4364
      2115.6304
  -7130615.35949  -5546867.97746  21404216.0494   21404214.2754
     -1063.5354
 04  9 10 16 46 45.0020000  0  6G 1G20G11G14G23G25
  -9775662.40649  -7606951.82846  21157729.0964   21157728.0884
        94.9214
 -12851547.59848 -10011617.75845  22007763.9084   22007762.0184
      1934.8634
   -676882.81248   -519728.11744  22347534.2294   22347532.9474
     -2000.4314
  20163714.55146  15695832.60942  24638531.1274   24638532.3074
     -3158.7024
  -7408349.31648  -5765016.04344  23188089.6274   23188086.1504
      2112.8184
  -7114541.86749  -5534343.18047  21407274.7754   21407272.8224
     -1071.5664
 04  9 10 16 47  0.0020000  0  6G 1G20G11G14G23G25
  -9777013.23449  -7608004.43046  21157472.0644   21157470.7094
        90.0554
 -12880504.50448 -10034181.58245  22002253.4004   22002252.1004
      1930.4604
   -646760.16048   -496255.94145  22353266.3774   22353265.0334
     -2008.1774
  20211101.88346  15732757.77042  24647549.4244   24647549.1354
     -3159.1554
  -7439992.45748  -5789673.02744  23182068.4004   23182065.0254
      2109.5434
  -7098341.10949  -5521719.21946  21410357.4634   21410355.8894
     -1080.0514
 04  9 10 16 47 15.0020000  0  6G 1G20G11G14G23G25
  -9778292.48849  -7609001.24646  21157228.7994   21157227.6584
        85.2844
 -12909396.32848 -10056694.68745  21996755.6044   21996754.0144
      1926.1224
   -616522.81648   -472694.39545  22359020.4324   22359018.8144
     -2015.8234
  20258494.63346  15769687.09842  24656567.4164   24656567.5064
     -3159.5174
  -7471587.80548  -5814292.76644  23176055.6744   23176052.6934
      2106.3574
  -7082014.62149  -5508997.29346  21413464.3384   21413462.6394
     -1088.4334
 04  9 10 16 47 30.0020000  0  6G 1G20G11G14G23G25
  -9779501.61349  -7609943.43046  21156998.7754   21156997.9824
        80.6084
 -12938224.12148 -10079157.89845  21991269.9084   21991268.4124
      1921.8534
   -586172.32848   -449044.68044  22364795.7364   22364794.3964
     -2023.3664
  20305891.33246  15806619.53942  24665586.9004   24665587.4794
     -3159.7804
  -7503136.63748  -5838876.27344  23170052.3384   23170048.8934
      2103.2554
  -7065563.89549  -5496178.55146  21416594.6894   21416593.0334
     -1096.7154
 04  9 10 16 47 45.0020000  0  6G 1G20G11G14G23G25
  -9780642.04749  -7610832.08246  21156781.4164   21156780.6544
        76.0294
 -12966989.16448 -10101572.21945  21985795.9714   21985794.1274
      1917.6704
   -555710.37548   -425308.12145  22370592.8224   22370591.2794
     -2030.7974
  20353290.55945  15843553.99641  24674606.8934   24674607.1194
     -3159.9484
  -7534640.18748  -5863424.48044  23164057.6664   23164053.9554
      2100.2374
  -7048990.43749  -5483264.17246  21419748.4944   21419747.0924
     -1104.8974
 04  9 10 16 48  0.0020000  0  6G 1G20G11G14G23G25
  -9781712.76649  -7611666.41046  21156577.9714   21156577.1894
        71.3814
 -12995690.03148 -10123936.53145  21980334.4794   21980332.8144
      1913.3914
   -525136.11748   -401484.03944  22376410.9164   22376409.2754
     -2038.2844
  20400693.34045  15880491.19942  24683627.3854   24683627.6864
     -3160.1854
  -7566097.48448  -5887936.65244  23158071.1894   23158067.9324
      2097.1534
  -7032293.27749  -5470253.40646  21422925.8694   21422924.4364
     -1113.1444
 04  9 10 16 48 15.0020000  0  6G 1G20G11G14G23G25
  -9782714.59449  -7612447.06646  21156387.3144   21156386.3814
        66.7894
 -13024327.15648 -10146251.16845  21974885.0414   21974883.5764
      1909.1424
   -494450.48448   -377573.17644  22382249.7834   22382248.5684
     -2045.7094
  20448098.97345  15917430.60942  24692647.6044   24692648.7174
     -3160.3764
  -7597509.04748  -5912413.18744  23152094.1354   23152090.9244
      2094.1044
  -7015473.29349  -5457146.93446  21426126.6274   21426125.3074
     -1121.3324
 04  9 10 16 48 30.0020000  0  6G 1G20G11G14G23G25
  -9783645.50449  -7613172.44546  21156210.1664   21156209.4284
        62.0614
 -13052898.29348 -10168514.38345  21969448.4324   21969446.6974
      1904.7424
   -463651.61348   -353574.07444  22388110.6974   22388109.3304
     -2053.2584
  20495509.25445  15954373.62542  24701670.1354   24701670.9514
     -3160.6854
  -7628872.84848  -5936852.50444  23146125.6974   23146122.3304
      2090.9204
  -6998528.71549  -5443943.37146  21429351.2294   21429349.8034
     -1129.6394
 04  9 10 16 48 45.0020000  0  6G 1G20G11G14G23G25
  -9784506.24249  -7613843.15246  21156046.2294   21156045.0214
        57.3834
 -13081403.96148 -10190726.58245  21964023.4794   21964022.2684
      1900.3784
   -432740.44548   -329487.47345  22393993.3464   22393991.5684
     -2060.7454
  20542923.50445  15991319.74642  24710692.7524   24710694.0454
     -3160.9504
  -7660189.53148  -5961255.11344  23140166.2994   23140162.7834
      2087.7794
  -6981460.47349  -5430643.44546  21432598.9714   21432597.7954
     -1137.8834
 04  9 10 16 49  0.0020000  0  6G 1G20G11G14G23G25
  -9785297.09449  -7614459.40646  21155895.7754   21155895.0024
        52.7234
 -13109844.03548 -10212887.67245  21958611.6434   21958610.1504
      1896.0054
   -401717.66848   -305313.89144  22399896.5414   22399894.6044
     -2068.1854
  20590341.32845  16028268.64542  24719716.5254   24719717.3854
     -3161.1884
  -7691459.31248  -5985621.16844  23134216.0574   23134212.4554
      2084.6524
  -6964268.84049  -5417247.37146  21435870.5184   21435868.9554
     -1146.1094
 04  9 10 16 49 15.0020000  0  6G 1G20G11G14G23G25
  -9786017.86349  -7615021.05146  21155758.4944   21155757.4824
        48.0514
 -13138217.89148 -10234997.16445  21953212.2214   21953210.5574
      1891.5904
   -370583.07048   -281053.19145  22405821.1744   22405819.4514
     -2075.6404
  20637763.02045  16065220.58242  24728740.4164   24728741.4594
     -3161.4464
  -7722681.82848  -6009950.38344  23128274.2604   23128270.6544
      2081.5014
  -6946953.63349  -5403755.00846  21439165.7604   21439164.1864
     -1154.3474
 04  9 10 16 49 30.0020000  0  6G 1G20G11G14G23G25
  -9786668.81649  -7615528.29346  21155634.8304   21155633.4634
        43.3974
 -13166525.67248 -10257055.17645  21947825.6744   21947823.9674
      1887.1854
   -339337.12948   -256705.71545  22411767.5724   22411766.0064
     -2083.0634
  20685188.31346  16102175.30542  24737765.0414   24737764.9514
     -3161.6864
  -7753857.36348  -6034242.98844  23122341.5184   23122338.1434
      2078.3694
  -6929515.23849  -5390166.64846  21442483.9244   21442482.5294
     -1162.5604
 04  9 10 16 49 45.0020000  0  6G 1G20G11G14G23G25
  -9787251.18049  -7615982.09046  21155523.8544   21155522.6434
        38.8244
 -13194768.20748 -10279062.34445  21942451.3144   21942449.5334
      1882.8364
   -307981.12148   -232272.47345  22417733.9864   22417732.8464
     -2090.4014
  20732615.89145  16139131.84842  24746790.5334   24746790.1434
     -3161.8394
  -7784986.89548  -6058499.77344  23116417.8774   23116414.2644
      2075.3024
  -6911954.98049  -5376483.34846  21445825.8384   21445823.8304
     -1170.6844
 04  9 10 16 50  0.0020000  0  6G 1G20G11G14G23G25
  -9787761.81649  -7616379.98846  21155426.6744   21155425.6744
        34.0424
 -13222942.04748 -10301015.98445  21937090.1434   21937088.0024
      1878.2564
   -276512.34848   -207751.37544  22423722.5184   22423720.7684
     -2097.9184
  20780048.96545  16176092.62942  24755816.1274   24755817.1894
     -3162.2054
  -7816067.24648  -6082718.22344  23110503.6194   23110500.2874
      2072.0234
  -6894269.87149  -5362702.75046  21449191.0104   21449189.2484
     -1179.0074
 04  9 10 16 50 15.0020000  0  6G 1G20G11G14G23G25
  -9788206.24649  -7616726.29746  21155342.3304   21155341.0064
        29.6294
 -13251052.38748 -10322920.14145  21931740.7444   21931739.0184
      1874.0234
   -244936.45348   -183146.79344  22429731.6114   22429729.7714
     -2105.0604
  20827481.96144  16213053.37142  24764842.6114   24764843.5764
     -3162.2004
  -7847103.79748  -6106902.54344  23104597.5414   23104594.2684
      2069.1034
  -6876465.52749  -5348829.23447  21452579.1744   21452577.3034
     -1186.9564
 04  9 10 16 50 30.0020000  0  6G 1G20G11G14G23G25
  -9788582.18049  -7617019.23046  21155270.6044   21155269.6864
        25.0624
 -13279096.72348 -10344772.86345  21926403.9794   21926402.2874
      1869.6224
   -213251.39548   -158457.15645  22435760.6744   22435758.6744
     -2112.3374
  20874917.28545  16250015.90642  24773868.9944   24773870.9164
     -3162.3554
  -7878094.11347  -6131050.83244  23098699.9474   23098696.8694
      2066.0214
  -6858539.68749  -5334861.05546  21455990.2914   21455988.7364
     -1195.0564
 04  9 10 16 50 45.0020000  0  6G 1G20G11G14G23G25
  -9788886.20349  -7617256.14146  21155212.7444   21155211.9474
        20.2684
 -13307071.18049 -10366571.13345  21921080.6664   21921079.0764
      1864.9644
   -181453.69148   -133679.73444  22441811.3854   22441809.6394
     -2119.8474
  20922358.33245  16286982.91842  24782897.0574   24782899.3504
     -3162.7364
  -7909034.79748  -6155160.45744  23092812.3074   23092808.9084
      2062.7124
  -6840489.03949  -5320795.61346  21459425.3464   21459423.5374
     -1203.3774
 04  9 10 16 51  0.0020000  0  6G 1G20G11G14G23G25
  -9789121.16049  -7617439.22346  21155168.3304   21155166.9594
        15.6644
 -13334978.22749 -10388316.88345  21915770.1434   21915768.2874
      1860.4704
   -149546.59848   -108817.09444  22447883.1274   22447881.7604
     -2127.1404
  20969802.25445  16323952.14842  24791925.0574   24791926.2954
     -3162.9284
  -7939928.45347  -6179233.43444  23086933.3614   23086930.4244
      2059.5774
  -6822316.41849  -5306635.13346  21462883.2214   21462881.6354
     -1211.5084
 04  9 10 16 51 15.0020000  0  6G 1G20G11G14G23G25
  -9789288.10249  -7617569.31646  21155136.2134   21155135.4164
        11.1294
 -13362818.73849 -10410010.78145  21910472.3614   21910470.4204
      1856.0344
   -117531.37948    -83870.17244  22453975.6114   22453974.3614
     -2134.3484
  21017247.98844  16360922.77741  24800953.7994   24800954.5214
     -3163.0494
  -7970776.06248  -6203270.50844  23081063.1584   23081060.5964
      2056.5074
  -6804023.25849  -5292380.73046  21466364.3384   21466362.3464
     -1219.5444
 04  9 10 16 51 30.0020000  0  6G 1G20G11G14G23G25
  -9789384.91049  -7617644.75046  21155117.6824   21155116.8934
         6.4544
 -13390590.23848 -10431650.91045  21905187.5574   21905185.4044
      1851.4334
    -85405.93448    -58837.37944  22460089.0414   22460087.5764
     -2141.6964
  21064697.56644  16397896.44141  24809982.8614   24809983.7954
     -3163.3054
  -8001575.43048  -6227270.01644  23075202.5184   23075199.3854
      2053.2914
  -6785607.36749  -5278030.69546  21469868.3774   21469867.1894
     -1227.7264
 04  9 10 16 51 45.0020000  0  6G 1G20G11G14G23G25
  -9789410.63749  -7617664.79746  21155112.7834   21155111.8304
         1.7154
 -13418291.47349 -10453236.28545  21899915.9944   21899914.8144
      1846.7494
    -53169.66849    -33718.22344  22466223.2604   22466221.3854
     -2149.0844
  21112151.98444  16434873.89141  24819013.3544   24819013.8854
     -3163.6284
  -8032325.54348  -6251231.14144  23069350.9714   23069348.1004
      2050.0084
  -6767068.05149  -5263584.47746  21473396.6044   21473394.8464
     -1235.9544
 04  9 10 16 52  0.0020000  0  6G 1G20G11G14G23G25
  -9789368.50849  -7617631.97746  21155121.2294   21155119.9634
        -2.8094
 -13445925.39549 -10474769.20345  21894657.4324   21894656.2834
      1842.2614
    -20825.90249     -8515.30944  22472377.9944   22472376.6434
     -2156.2514
  21159608.03545  16471852.55141  24828044.1434   24828043.9514
     -3163.7374
  -8063029.47747  -6275156.27044  23063508.4864   23063505.3694
      2046.9294
  -6748408.59049  -5249044.64546  21476947.5024   21476945.5844
     -1243.9644
 04  9 10 16 52 15.0020000  0  6G 1G20G11G14G23G25
  -9789255.28949  -7617543.76246  21155142.4634   21155141.9284
        -7.5484
 -13473488.46549 -10496246.91845  21889412.4554   21889410.7914
      1837.5384
     11628.44949     16773.77344  22478554.0334   22478552.4904
     -2163.6234
  21207069.00445  16508835.07842  24837076.2604   24837076.0964
     -3164.0654
  -8093683.85548  -6299042.77744  23057674.8464   23057671.9364
      2043.6254
  -6729625.88749  -5234408.77746  21480522.0884   21480520.1394
     -1252.1804
 04  9 10 16 52 30.0020000  0  6G 1G20G11G14G23G25
  -9789073.35249  -7617401.98846  21155176.8694   21155176.1234
       -12.1294
 -13500982.64149 -10517670.94145  21884180.6044   21884178.8544
      1832.9454
     44190.75049     42146.97745  22484750.4244   22484748.9324
     -2170.8204
  21254532.44546  16545819.51242  24846108.1274   24846108.9044
     -3164.2294
  -8124291.00448  -6322892.49244  23051850.5574   23051847.3424
      2040.4774
  -6710722.34449  -5219678.74646  21484119.1584   21484117.5724
     -1260.2364
 04  9 10 16 52 45.0020000  0  6G 1G20G11G14G23G25
  -9788821.73849  -7617205.93446  21155225.2364   21155224.2134
       -16.7744
 -13528406.60949 -10539040.27045  21878961.8304   21878960.2364
      1828.2654
     76861.66849     67604.82444  22490967.1114   22490966.0574
     -2178.0614
  21301999.38345  16582806.71542  24855140.5884   24855141.3774
     -3164.4624
  -8154849.75447  -6346704.48844  23046035.0494   23046032.1704
      2037.2504
  -6691697.07049  -5204853.86746  21487739.1114   21487737.7404
     -1268.3524
 04  9 10 16 53  0.0020000  0  6G 1G20G11G14G23G25
  -9788503.53549  -7616957.98446  21155285.6274   21155284.5294
       -21.2144
 -13555763.21949 -10560357.11345  21873756.4474   21873754.4594
      1823.7744
    109637.94549     93144.75844  22497204.7604   22497203.0294
     -2185.0854
  21349466.67245  16619794.16442  24864174.1584   24864174.6194
     -3164.4864
  -8185363.22748  -6370481.22344  23040228.8144   23040225.5724
      2034.2324
  -6672553.44149  -5189936.75846  21491382.2684   21491380.7014
     -1276.2424
 04  9 10 16 53 15.0020000  0  6G 1G20G11G14G23G25
  -9788115.37149  -7616655.52746  21155359.7754   21155358.4634
       -25.8784
 -13583048.81649 -10581618.60945  21868563.9324   21868561.9394
      1819.0404
    142522.79348    118769.30144  22503461.8614   22503460.7254
     -2192.3234
  21396937.73445  16656784.55942  24873207.6824   24873208.0144
     -3164.7374
  -8215827.81648  -6394219.85244  23034431.6114   23034428.5574
      2030.9734
  -6653288.07449  -5174924.78946  21495048.2684   21495046.6354
     -1284.3584
 04  9 10 16 53 30.0020000  0  5G 1G20G11G23G25
  -9787657.86349  -7616299.02746  21155446.7834   21155445.5334
       -30.5014
 -13610263.64849 -10602824.97345  21863384.8304   21863383.2014
      1814.3224
    175515.40649    144477.81344  22509740.6434   22509739.3304
     -2199.5084
  -8246244.12147  -6417920.85544  23028643.4714   23028640.4434
      2027.7544
  -6633901.63749  -5159818.47346  21498737.4864   21498735.8934
     -1292.4294
 04  9 10 16 53 45.0020000  0  5G 1G20G11G23G25
  -9787129.30549  -7615887.17646  21155547.3544   21155546.2324
       -35.2374
 -13637405.73048 -10623974.63745  21858219.8934   21858218.2874
      1809.4724
    208617.32848    170271.50044  22516039.8224   22516038.3614
     -2206.7954
  -8276610.30548  -6441582.79744  23022864.9324   23022862.2914
      2024.4124
  -6614392.53549  -5144616.58246  21502449.6744   21502448.3384
     -1300.6074
 04  9 10 16 54  0.0020000  0  5G 1G20G11G23G25
  -9786531.71149  -7615421.51246  21155661.0254   21155659.7364
       -39.8404
 -13664476.72349 -10645068.92245  21853068.4394   21853066.9124
      1804.7334
    241826.33248    196148.62944  22522359.4634   22522357.7364
     -2213.9344
  -8306928.27748  -6465207.17244  23017095.7364   23017092.6464
      2021.1984
  -6594762.96149  -5129320.82046  21506185.4004   21506183.8114
     -1308.6384
 04  9 10 16 54 15.0020000  0  5G 1G20G11G23G25
  -9785863.04749  -7614900.47747  21155788.1434   21155787.2324
       -44.5784
 -13691474.29349 -10666105.98845  21847931.4554   21847929.2994
      1799.8384
    275144.18048    222110.57044  22528699.2604   22528697.7054
     -2221.1904
  -8337195.89848  -6488792.31644  23011336.3144   23011332.6974
      2017.8414
  -6575011.08249  -5113929.75046  21509943.9084   21509942.5374
     -1316.7924
 04  9 10 16 54 30.0020000  0  5G 1G20G11G23G25
  -9785124.82449  -7614325.24646  21155928.8694   21155927.3184
       -49.2154
 -13718399.59048 -10687086.73445  21842807.5804   21842805.2794
      1795.0204
    308569.17648    248156.00444  22535059.8854   22535058.3424
     -2228.3334
  -8367414.54348  -6512339.29344  23005585.7684   23005582.4864
      2014.5764
  -6555138.35949  -5098444.51646  21513725.6584   21513723.8964
     -1324.8484
 04  9 10 16 54 45.0020000  0  5G 1G20G11G23G25
  -9784315.64149  -7613694.72346  21156082.3774   21156081.4674
       -53.9464
 -13745250.97348 -10708009.89545  21837698.0494   21837695.7794
      1790.0924
    342102.47748    274285.84044  22541441.2214   22541439.5064
     -2235.5534
  -8397582.74248  -6535846.96944  22999844.7294   22999841.1864
      2011.2134
  -6535143.60949  -5082864.19946  21517530.6044   21517528.7714
     -1332.9834
 04  9 10 16 55  0.0020000  0  5G 1G20G11G23G25
  -9783432.32449  -7613006.43046  21156250.9794   21156249.8544
       -58.8884
 -13772024.85949 -10728872.65245  21832602.9794   21832601.2174
      1784.9264
    375747.14548    300502.44544  22547843.7294   22547841.9044
     -2242.9784
  -8427697.21548  -6559312.77344  22994113.7604   22994110.7644
      2007.6324
  -6515023.73849  -5067186.37946  21521359.2914   21521357.3894
     -1341.3254
 04  9 10 16 55 15.0020000  0  5G 1G20G11G23G25
  -9782479.25449  -7612263.77746  21156432.0414   21156431.5064
       -63.5384
 -13798725.35948 -10749678.23845  21827522.0184   21827520.3734
      1780.0334
    409498.44548    326802.14144  22554266.1894   22554265.1394
     -2250.0874
  -8457762.23448  -6582740.03944  22988392.5334   22988389.2484
      2004.3354
  -6494783.32449  -5051414.63746  21525210.5414   21525209.1154
     -1349.3614
 04  9 10 16 55 30.0020000  0  5G 1G20G11G23G25
  -9781456.62949  -7611466.92646  21156626.6824   21156625.7604
       -68.1754
 -13825352.35548 -10770426.55146  21822454.9714   21822452.9984
      1775.1334
    443356.09448    353184.70344  22560709.4004   22560707.7994
     -2257.1774
  -8487777.87948  -6606128.84044  22982680.6274   22982677.7404
      2001.0434
  -6474422.61749  -5035549.15246  21529085.1894   21529083.6664
     -1357.3804
 04  9 10 16 55 45.0020000  0  5G 1G20G11G23G25
  -9780363.09449  -7610614.82446  21156834.7364   21156833.4824
       -72.9024
 -13851904.13748 -10791116.24646  21817402.3074   21817400.5064
      1770.1194
    477321.38748    379651.14844  22567172.7444   22567171.3114
     -2264.3534
  -8517742.68047  -6629478.02044  22976978.2834   22976975.6044
      1997.6534
  -6453940.36749  -5019588.97346  21532982.8934   21532981.4004
     -1365.4834
 04  9 10 16 56  0.0020000  0  5G 1G20G11G23G25
  -9779202.92249  -7609710.80146  21157056.0184   21157054.5184
       -77.3454
 -13878384.57048 -10811750.34445  21812363.3614   21812361.5414
      1765.3624
    511389.66448    406197.84044  22573655.7994   22573654.5294
     -2271.2184
  -8547660.76247  -6652790.78944  22971285.2684   22971281.9394
      1994.5394
  -6433340.95349  -5003537.48446  21536902.8694   21536901.3424
     -1373.2944
 04  9 10 16 56 15.0020000  0  5G 1G20G11G23G25
  -9777973.53549  -7608752.84046  21157289.1974   21157288.6824
       -81.9594
 -13904790.85548 -10832326.66445  21807338.1584   21807336.3034
      1760.4194
    545563.28948    432826.61744  22580158.3074   22580157.0924
     -2278.2424
  -8577529.41448  -6676065.05544  22965601.4244   22965598.6394
      1991.2434
  -6412621.89849  -4987392.77346  21540845.5334   21540844.0844
     -1381.2704
 04  9 10 16 56 30.0020000  0  5G 1G20G11G23G25
  -9776675.43749  -7607741.34846  21157536.7444   21157535.8544
       -86.5404
 -13931123.18748 -10852845.35945  21802328.1044   21802325.6434
      1755.4894
    579841.55148    459536.93444  22586681.2604   22586679.9634
     -2285.2174
  -8607349.22348  -6699301.25844  22959926.8384   22959924.3144
      1987.9874
  -6391783.91449  -4971155.38746  21544810.6504   21544809.3144
     -1389.1994
 04  9 10 16 56 45.0020000  0  5G 1G20G11G23G25
  -9775308.21549  -7606675.98046  21157796.7134   21157795.3504
       -91.1484
 -13957380.78948 -10873305.83245  21797330.7604   21797329.3304
      1750.5074
    614224.64848    486328.94144  22593224.5184   22593222.9364
     -2292.2074
  -8637119.54748  -6722498.91044  22954262.2214   22954258.9904
      1984.6884
  -6370826.71949  -4954825.11346  21548798.7914   21548796.9204
     -1397.1464
 04  9 10 16 57  0.0020000  0  5G 1G20G11G23G25
  -9773873.97349  -7605558.39146  21158069.6354   21158068.6314
       -95.6164
 -13983565.46148 -10893709.46145  21792348.2444   21792346.4204
      1745.6454
    648710.28548    513200.84444  22599786.8854   22599785.7014
     -2299.0424
  -8666842.41048  -6745659.57444  22948606.1194   22948603.1824
      1981.5244
  -6349752.49249  -4938403.65246  21552809.2754   21552807.7214
     -1404.9484
 04  9 10 16 57 15.0020000  0  5G 1G20G11G23G25
  -9772370.88749  -7604387.16846  21158355.6114   21158354.8034
      -100.2064
 -14009675.19148 -10914054.70746  21787379.8144   21787377.9124
      1740.6494
    683300.08248    540153.91044  22606369.2134   22606368.0294
     -2305.9864
  -8696515.85948  -6768781.73044  22942959.5574   22942956.6114
      1978.2304
  -6328559.48449  -4921889.62946  21556841.9474   21556840.5614
     -1412.8674
 04  9 10 16 57 30.0020000  0  5G 1G20G11G23G25
  -9770799.29349  -7603162.55146  21158654.6664   21158653.6894
      -104.7734
 -14035709.87148 -10934341.46146  21782425.2524   21782423.5964
      1735.6454
    717993.68048    567187.87144  22612970.7054   22612969.9594
     -2312.9074
  -8726140.14148  -6791865.56244  22937322.1894   22937319.0024
      1974.9524
  -6307248.22749  -4905283.46146  21560897.6744   21560896.0844
     -1420.7514
 04  9 10 16 57 45.0020000  0  5G 1G20G11G23G25
  -9769160.41449  -7601885.50446  21158966.5884   21158965.6974
      -109.2594
 -14061670.38349 -10954570.43445  21777485.3384   21777483.5254
      1730.7014
    752789.40248    594301.39144  22619592.4004   22619591.3544
     -2319.7154
  -8755716.39848  -6814911.98844  22931693.5254   22931690.6464
      1971.7514
  -6285820.06649  -4888586.20346  21564975.1664   21564973.6704
     -1428.5444
 04  9 10 16 58  0.0020000  0  5G 1G20G11G23G25
  -9767454.61349  -7600556.32046  21159291.2134   21159290.2444
      -113.7204
 -14087556.91448 -10974741.75446  21772559.4164   21772557.1934
      1725.7694
    787686.65248    621494.03944  22626233.3614   22626232.0644
     -2326.4834
  -8785245.01248  -6837921.28944  22926075.0884   22926071.6664
      1968.5744
  -6264275.49249  -4871798.23046  21569074.7134   21569073.4204
     -1436.3054
 04  9 10 16 58 15.0020000  0  5G 1G20G11G23G25
  -9765680.00849  -7599173.51246  21159629.0104   21159627.9714
      -118.3074
 -14113367.05148 -10994853.55546  21767647.8384   21767645.8854
      1720.6764
    822687.11748    648767.11344  22632893.3544   22632892.3224
     -2333.3644
  -8814723.83648  -6860891.79344  22920465.2994   22920461.9634
      1965.2554
  -6242612.80949  -4854918.23046  21573197.0574   21573195.4124
     -1444.1794
 04  9 10 16 58 30.0020000  0  5G 1G20G11G23G25
  -9763837.54349  -7597737.82046  21159979.5104   21159978.5024
      -122.8314
 -14139101.52348 -11014906.37945  21762750.5964   21762748.7564
      1715.6324
    857789.69548    676119.75044  22639573.5184   22639571.8894
     -2340.1724
  -8844153.62548  -6883824.07844  22914865.1114   22914861.6504
      1961.9864
  -6220833.05149  -4837947.00846  21577341.9164   21577340.2254
     -1451.9844
 04  9 10 16 58 45.0020000  0  5G 1G20G11G23G25
  -9761929.59049  -7596251.11746  21160342.6584   21160341.7684
      -127.1974
 -14164762.32049 -11034901.80145  21757867.2914   21757865.3574
      1710.7204
    892991.83648    703549.96944  22646271.9004   22646270.9794
     -2346.8094
  -8873536.63348  -6906719.91044  22909273.4244   22909270.5064
      1958.8674
  -6198938.67649  -4820886.46546  21581508.1584   21581506.5374
     -1459.6254
 04  9 10 16 59  0.0020000  0  5G 1G20G11G23G25
  -9759952.05549  -7594710.18046  21160718.8144   21160717.8934
      -131.8364
 -14190345.04748 -11054836.38745  21752999.0494   21752997.2714
      1705.5154
    928297.27748    731060.69944  22652990.5104   22652989.6704
     -2353.6964
  -8902868.81648  -6929576.15244  22903691.7294   22903688.4124
      1955.4794
  -6176925.64849  -4803733.46946  21585697.0804   21585695.4004
     -1467.5354
 04  9 10 16 59 15.0020000  0  5G 1G20G11G23G25
  -9757906.90249  -7593116.55946  21161108.0334   21161106.6704
      -136.3434
 -14215851.34049 -11074711.41846  21748145.6584   21748143.7444
      1700.4204
    963703.99648    758650.32444  22659728.6584   22659727.1434
     -2360.4484
  -8932151.93048  -6952394.15244  22898119.1504   22898115.8964
      1952.2084
  -6154796.24649  -4786489.78546  21589908.1974   21589906.7134
     -1475.2934
 04  9 10 16 59 30.0020000  0  5G 1G20G11G23G25
  -9755794.86749  -7591470.82846  21161509.9084   21161509.1744
      -140.8024
 -14241281.66049 -11094527.25045  21743306.1894   21743304.2094
      1695.3554
    999210.97748    786318.07444  22666485.1114   22666484.3144
     -2367.1324
  -8961386.73848  -6975174.51244  22892555.9474   22892552.5964
      1948.9874
  -6132551.19549  -4769155.99246  21594140.9634   21594139.8774
     -1483.0034
 04  9 10 16 59 45.0020000  0  5G 1G20G11G23G25
  -9753614.91049  -7589772.16046  21161924.7214   21161923.6824
      -145.3304
 -14266634.60549 -11114282.78545  21738481.8144   21738480.0064
      1690.1964
   1034819.01648    814064.57444  22673261.1744   22673259.6704
     -2373.8694
  -8990572.00048  -6997916.25044  22887002.0804   22886998.5574
      1945.6844
  -6110189.55549  -4751731.35546  21598396.6434   21598395.1704
     -1490.7764
 04  9 10 17  0  0.0020000  0  5G 1G20G11G23G25
  -9751365.56649  -7588019.43446  21162352.9944   21162352.0454
      -149.9564
 -14291908.37949 -11133976.64145  21733672.4474   21733670.7014
      1684.9184
   1070529.39848    841890.82044  22680056.5644   22680055.2294
     -2380.6924
  -9019706.04748  -7020618.09444  22881458.3934   22881455.0064
      1942.2704
  -6087710.07049  -4734214.88346  21602674.5804   21602672.7254
     -1498.6324
